[[{"header":{"parameterUnit":"m.s-1","parameterCategory":1,"la1":30.6,"la2":29.2853,"lo1":-89.7004,"lo2":-87.6739,"dy":0.0162,"dx":0.0183,"nx":112,"ny":82,"refTime":"2024-07-18T18:00:00:Z","depth":0,"parameterNumber":2,"parameterNumberName":"U-component_of_WINDS"},"data":[0.0,0.0,0.0,0.0,0.0,0.0,0.0,0.0,0.0,0.0,0.0,0.0,0.0,0.0,0.0,0.0,0.0,0.0,0.0,0.0,0.0,0.0,0.0,0.0,0.0,0.0,0.0,0.0,0.0,0.0,0.0,0.0,0.0,0.0,0.0,0.0,0.0,0.0,0.0,0.0,0.0,0.0,0.0,0.0,0.0,0.0,0.0,0.0,0.0,0.0,0.0,0.0,0.0,0.0,0.0,0.0,0.0,0.0,0.0,0.0,0.0,0.0,0.0,0.0,0.0,0.0,0.0,0.0,0.0,0.0,0.0,0.0,0.0,0.0,0.0,0.0,0.0,0.0,0.0,0.0,0.0,0.0,0.0,0.0,0.0,0.0,0.0,0.0,0.0,0.0,-3.3618,-3.4414,-3.4492,-3.3887,-3.2324,-3.3496,-3.3711,-3.2285,0.0,0.0,0.0,0.0,0.0,0.0,0.0,0.0,0.0,0.0,0.0,0.0,0.0,0.0,0.0,0.0,0.0,0.0,0.0,0.0,0.0,0.0,0.0,0.0,0.0,0.0,0.0,0.0,0.0,0.0,0.0,0.0,0.0,0.0,0.0,0.0,0.0,0.0,0.0,0.0,0.0,0.0,0.0,0.0,0.0,0.0,0.0,0.0,0.0,0.0,0.0,0.0,0.0,0.0,0.0,0.0,0.0,0.0,0.0,0.0,0.0,0.0,0.0,0.0,0.0,0.0,0.0,0.0,0.0,0.0,0.0,0.0,0.0,0.0,0.0,0.0,0.0,0.0,0.0,0.0,0.0,0.0,0.0,0.0,0.0,0.0,0.0,0.0,0.0,0.0,0.0,0.0,0.0,0.0,0.0,0.0,0.0,0.0,0.0,0.0,0.0,0.0,0.0,0.0,-3.3437,-3.3574,-3.3594,-3.3223,-3.2285,-3.2422,-3.2461,-3.2226,0.0,0.0,0.0,0.0,0.0,0.0,0.0,0.0,0.0,0.0,0.0,0.0,0.0,0.0,0.0,0.0,0.0,0.0,0.0,0.0,0.0,0.0,0.0,0.0,0.0,0.0,0.0,0.0,0.0,0.0,0.0,0.0,0.0,0.0,0.0,0.0,0.0,0.0,0.0,0.0,0.0,0.0,0.0,0.0,0.0,0.0,0.0,0.0,0.0,0.0,0.0,0.0,0.0,0.0,0.0,0.0,0.0,0.0,0.0,0.0,0.0,0.0,0.0,0.0,0.0,0.0,0.0,0.0,0.0,0.0,0.0,0.0,0.0,0.0,0.0,0.0,0.0,0.0,0.0,0.0,0.0,0.0,0.0,0.0,0.0,0.0,0.0,0.0,0.0,0.0,0.0,0.0,0.0,0.0,0.0,0.0,0.0,0.0,0.0,0.0,0.0,0.0,0.0,-3.3823,-3.4101,-3.4101,-3.4101,-3.3594,-3.2305,-3.2598,-3.2461,-3.1543,-3.2285,0.0,0.0,0.0,0.0,0.0,0.0,0.0,0.0,0.0,0.0,0.0,0.0,0.0,0.0,0.0,0.0,0.0,0.0,0.0,0.0,0.0,0.0,0.0,0.0,0.0,0.0,0.0,0.0,0.0,0.0,0.0,0.0,0.0,0.0,0.0,0.0,0.0,0.0,0.0,0.0,0.0,0.0,0.0,0.0,0.0,0.0,0.0,0.0,0.0,0.0,0.0,0.0,0.0,0.0,0.0,0.0,0.0,0.0,0.0,0.0,0.0,0.0,0.0,0.0,0.0,0.0,0.0,0.0,0.0,0.0,0.0,0.0,0.0,0.0,0.0,0.0,0.0,0.0,0.0,0.0,0.0,0.0,0.0,0.0,0.0,0.0,0.0,0.0,0.0,0.0,0.0,0.0,0.0,0.0,0.0,0.0,0.0,0.0,0.0,0.0,0.0,0.0,-3.4696,-3.4901,-3.4726,-3.4707,-3.4023,-3.2344,-3.2754,-3.248,-3.0996,-3.1523,0.0,0.0,0.0,0.0,0.0,0.0,0.0,0.0,0.0,0.0,0.0,0.0,0.0,0.0,0.0,0.0,0.0,0.0,0.0,0.0,0.0,0.0,0.0,0.0,0.0,0.0,0.0,0.0,0.0,0.0,0.0,0.0,0.0,0.0,0.0,0.0,0.0,0.0,0.0,0.0,0.0,0.0,0.0,0.0,0.0,0.0,0.0,0.0,0.0,0.0,0.0,0.0,0.0,0.0,0.0,0.0,0.0,0.0,0.0,0.0,0.0,0.0,0.0,0.0,0.0,0.0,0.0,0.0,0.0,0.0,0.0,0.0,0.0,0.0,0.0,0.0,0.0,0.0,0.0,0.0,0.0,0.0,0.0,0.0,0.0,0.0,0.0,0.0,0.0,0.0,0.0,0.0,0.0,0.0,0.0,0.0,0.0,0.0,0.0,0.0,0.0,0.0,-3.4815,-3.5529,-3.4785,-3.4707,-3.4023,-3.2344,-3.2246,-3.1894,-3.0957,-3.0957,0.0,0.0,0.0,0.0,0.0,0.0,0.0,0.0,0.0,0.0,0.0,0.0,0.0,0.0,0.0,0.0,0.0,0.0,0.0,0.0,0.0,0.0,0.0,0.0,0.0,0.0,0.0,0.0,0.0,0.0,0.0,0.0,0.0,0.0,0.0,0.0,0.0,0.0,0.0,0.0,0.0,0.0,0.0,0.0,0.0,0.0,0.0,0.0,0.0,0.0,0.0,0.0,0.0,0.0,0.0,0.0,0.0,0.0,0.0,0.0,0.0,0.0,0.0,0.0,0.0,0.0,0.0,0.0,0.0,0.0,0.0,0.0,0.0,0.0,0.0,0.0,0.0,0.0,0.0,0.0,0.0,0.0,0.0,0.0,0.0,0.0,0.0,0.0,0.0,0.0,0.0,0.0,0.0,0.0,0.0,0.0,0.0,0.0,0.0,0.0,0.0,0.0,-3.4344,-3.5195,-3.5488,-3.5019,-3.4219,-3.3047,-3.248,-3.1836,-3.0957,0.0,0.0,0.0,0.0,0.0,0.0,0.0,0.0,0.0,0.0,0.0,0.0,0.0,0.0,0.0,0.0,0.0,0.0,0.0,0.0,0.0,0.0,0.0,0.0,0.0,0.0,0.0,0.0,0.0,0.0,0.0,0.0,0.0,0.0,0.0,0.0,0.0,0.0,0.0,0.0,0.0,0.0,0.0,0.0,0.0,0.0,0.0,0.0,0.0,0.0,0.0,0.0,0.0,0.0,0.0,0.0,0.0,0.0,0.0,0.0,0.0,0.0,0.0,0.0,0.0,0.0,0.0,0.0,0.0,0.0,0.0,0.0,0.0,0.0,0.0,0.0,0.0,0.0,0.0,0.0,0.0,0.0,0.0,0.0,0.0,0.0,0.0,0.0,0.0,0.0,0.0,0.0,0.0,0.0,0.0,0.0,0.0,0.0,0.0,0.0,0.0,0.0,-3.3134,-3.4231,-3.5096,-3.5502,-3.5038,-3.4238,-3.3105,-3.2519,-3.1836,-3.0957,0.0,0.0,0.0,0.0,0.0,0.0,0.0,0.0,0.0,0.0,0.0,0.0,0.0,0.0,0.0,0.0,0.0,0.0,0.0,0.0,0.0,0.0,0.0,0.0,0.0,0.0,0.0,0.0,0.0,0.0,0.0,0.0,0.0,0.0,0.0,0.0,0.0,0.0,0.0,0.0,0.0,0.0,0.0,0.0,0.0,0.0,0.0,0.0,0.0,0.0,0.0,0.0,0.0,0.0,0.0,0.0,0.0,0.0,0.0,0.0,0.0,0.0,0.0,0.0,0.0,0.0,0.0,0.0,0.0,0.0,0.0,0.0,0.0,0.0,0.0,0.0,0.0,0.0,0.0,0.0,0.0,0.0,0.0,0.0,0.0,0.0,0.0,0.0,0.0,0.0,0.0,0.0,0.0,0.0,0.0,0.0,0.0,0.0,0.0,0.0,0.0,0.0,-3.3074,-3.4602,-3.5404,-3.4685,-3.4642,-3.4004,-3.2344,-3.2187,-3.1816,0.0,0.0,0.0,0.0,0.0,0.0,0.0,0.0,0.0,0.0,0.0,0.0,0.0,0.0,0.0,0.0,0.0,0.0,0.0,0.0,0.0,0.0,0.0,0.0,0.0,0.0,0.0,0.0,0.0,0.0,0.0,0.0,0.0,0.0,0.0,0.0,0.0,0.0,0.0,0.0,0.0,0.0,0.0,0.0,0.0,0.0,0.0,0.0,0.0,0.0,0.0,0.0,0.0,0.0,0.0,0.0,0.0,0.0,0.0,0.0,0.0,0.0,0.0,0.0,0.0,0.0,0.0,0.0,0.0,0.0,0.0,0.0,0.0,0.0,0.0,0.0,0.0,0.0,0.0,0.0,0.0,0.0,0.0,0.0,0.0,0.0,0.0,0.0,0.0,0.0,0.0,0.0,0.0,0.0,0.0,0.0,0.0,0.0,0.0,0.0,0.0,0.0,0.0,-3.3074,-3.4132,-3.4798,-3.4626,-3.3607,-3.2734,-3.2246,-3.1641,-3.1172,-3.0918,0.0,0.0,0.0,0.0,0.0,0.0,0.0,0.0,0.0,0.0,0.0,0.0,0.0,0.0,0.0,0.0,0.0,0.0,0.0,0.0,0.0,0.0,0.0,0.0,0.0,0.0,0.0,0.0,0.0,0.0,0.0,0.0,0.0,0.0,0.0,0.0,0.0,0.0,0.0,0.0,0.0,0.0,0.0,0.0,0.0,0.0,0.0,0.0,0.0,0.0,0.0,0.0,0.0,0.0,0.0,0.0,0.0,0.0,0.0,0.0,0.0,0.0,0.0,0.0,0.0,0.0,0.0,0.0,0.0,0.0,0.0,0.0,0.0,0.0,0.0,0.0,0.0,0.0,0.0,0.0,0.0,0.0,0.0,0.0,0.0,0.0,0.0,0.0,0.0,0.0,0.0,0.0,0.0,0.0,0.0,0.0,0.0,0.0,0.0,0.0,0.0,0.0,-3.3012,-3.3886,-3.4374,-3.4065,-3.2938,-3.2051,-3.1719,-3.1191,-3.0898,-3.0898,0.0,0.0,0.0,0.0,0.0,0.0,0.0,0.0,0.0,0.0,0.0,0.0,0.0,0.0,0.0,0.0,0.0,0.0,0.0,0.0,0.0,0.0,0.0,0.0,0.0,0.0,0.0,0.0,0.0,0.0,0.0,0.0,0.0,0.0,0.0,0.0,0.0,0.0,0.0,0.0,0.0,0.0,0.0,0.0,0.0,0.0,0.0,0.0,0.0,0.0,0.0,0.0,0.0,0.0,0.0,0.0,0.0,0.0,0.0,0.0,0.0,0.0,0.0,0.0,0.0,0.0,0.0,0.0,0.0,0.0,0.0,0.0,0.0,0.0,0.0,0.0,0.0,0.0,0.0,0.0,0.0,0.0,0.0,0.0,0.0,0.0,0.0,0.0,0.0,0.0,0.0,0.0,0.0,0.0,0.0,0.0,0.0,0.0,0.0,0.0,0.0,0.0,-3.2795,-3.3722,-3.4059,-3.3177,-3.2476,-3.1758,-3.0976,-3.0898,-3.0898,-3.0898,0.0,0.0,0.0,0.0,0.0,0.0,0.0,0.0,0.0,0.0,0.0,0.0,0.0,0.0,0.0,0.0,0.0,0.0,0.0,0.0,0.0,0.0,0.0,0.0,0.0,0.0,0.0,0.0,0.0,0.0,0.0,0.0,0.0,0.0,0.0,0.0,0.0,0.0,0.0,0.0,0.0,0.0,0.0,0.0,0.0,0.0,0.0,0.0,0.0,0.0,0.0,0.0,0.0,0.0,0.0,0.0,0.0,0.0,0.0,0.0,-3.233,-3.2236,0.0,0.0,0.0,0.0,0.0,0.0,0.0,0.0,0.0,0.0,0.0,0.0,0.0,0.0,0.0,0.0,0.0,0.0,0.0,0.0,0.0,0.0,0.0,0.0,0.0,0.0,0.0,0.0,0.0,0.0,0.0,0.0,0.0,0.0,0.0,0.0,0.0,0.0,0.0,0.0,-3.2045,-3.2845,-3.3142,-3.2266,-3.158,-3.1094,-3.0918,-3.0898,-3.0898,-3.0898,-3.0898,0.0,0.0,0.0,0.0,0.0,0.0,0.0,0.0,0.0,0.0,0.0,0.0,0.0,0.0,0.0,0.0,0.0,0.0,0.0,0.0,0.0,0.0,0.0,0.0,0.0,0.0,0.0,0.0,0.0,0.0,0.0,0.0,0.0,0.0,0.0,0.0,0.0,0.0,0.0,0.0,0.0,0.0,0.0,0.0,0.0,0.0,0.0,0.0,0.0,0.0,0.0,0.0,0.0,0.0,0.0,0.0,0.0,0.0,0.0,-3.3066,-3.3023,0.0,0.0,0.0,0.0,0.0,0.0,0.0,0.0,0.0,0.0,0.0,0.0,0.0,0.0,0.0,0.0,0.0,0.0,0.0,0.0,0.0,0.0,0.0,0.0,0.0,0.0,0.0,0.0,0.0,0.0,0.0,0.0,0.0,0.0,0.0,0.0,0.0,0.0,0.0,0.0,-3.1795,-3.2569,-3.2866,-3.1997,-3.1307,-3.0898,-3.0898,-3.0898,-3.0898,-3.0898,-3.0898,0.0,0.0,0.0,0.0,0.0,0.0,0.0,0.0,0.0,0.0,0.0,0.0,0.0,0.0,0.0,0.0,0.0,0.0,0.0,0.0,0.0,0.0,0.0,0.0,0.0,0.0,0.0,0.0,0.0,0.0,0.0,0.0,0.0,0.0,0.0,0.0,0.0,0.0,0.0,0.0,0.0,0.0,0.0,0.0,0.0,0.0,0.0,0.0,0.0,0.0,0.0,0.0,0.0,-3.4474,-3.4116,-3.4653,-3.3926,-3.3929,-3.4475,-3.3861,-3.3958,-3.4463,-3.3767,0.0,0.0,0.0,0.0,0.0,0.0,0.0,0.0,0.0,0.0,0.0,0.0,0.0,0.0,0.0,0.0,0.0,0.0,0.0,0.0,0.0,0.0,-3.3346,-3.3294,-3.4375,-3.5048,-3.3588,0.0,0.0,0.0,0.0,0.0,0.0,0.0,0.0,0.0,0.0,0.0,-3.1814,-3.2569,-3.2808,-3.1783,-3.1209,-3.0898,-3.0898,-3.0898,-3.0898,-3.0898,-3.0898,-3.0898,0.0,0.0,0.0,0.0,0.0,0.0,0.0,0.0,0.0,0.0,0.0,0.0,0.0,0.0,0.0,0.0,0.0,0.0,0.0,0.0,0.0,0.0,0.0,0.0,0.0,0.0,0.0,0.0,0.0,0.0,0.0,0.0,-3.035,-3.1448,0.0,0.0,0.0,0.0,0.0,0.0,0.0,0.0,0.0,0.0,0.0,0.0,0.0,-3.6273,-3.7763,-3.7667,-3.7325,-3.673,-3.6407,-3.5933,-3.5355,-3.5258,-3.5245,-3.5341,-3.5245,0.0,-3.5354,-3.4526,0.0,0.0,0.0,0.0,0.0,0.0,0.0,0.0,0.0,0.0,0.0,0.0,0.0,0.0,0.0,0.0,0.0,0.0,0.0,0.0,0.0,0.0,-3.5093,-3.4863,-3.4994,-3.5089,-3.486,-3.5078,-3.5288,-3.5173,-3.4545,-3.3994,0.0,0.0,0.0,0.0,0.0,0.0,-3.191,-3.2569,-3.2578,-3.0953,-3.086,-3.0898,-3.0898,-3.0898,-3.0898,-3.0898,-3.0898,-3.0898,-3.0898,-3.0792,0.0,0.0,0.0,0.0,0.0,0.0,0.0,0.0,0.0,0.0,0.0,0.0,0.0,0.0,0.0,0.0,0.0,0.0,0.0,0.0,0.0,0.0,0.0,0.0,0.0,0.0,0.0,0.0,0.0,-2.9774,-3.1293,-3.122,-3.2547,-3.2918,0.0,0.0,0.0,0.0,0.0,0.0,0.0,0.0,0.0,-3.627,-3.7274,-3.8135,-3.8856,-3.8312,-3.7874,-3.7508,-3.6503,-3.5846,-3.55,-3.55,-3.55,-3.55,-3.55,-3.5528,-3.5526,-3.5162,-3.5345,-3.5773,0.0,0.0,0.0,0.0,-3.4847,-3.5204,-3.575,-3.6178,-3.6329,-3.5382,0.0,0.0,0.0,0.0,0.0,0.0,0.0,-3.3583,-3.4071,-3.4374,-3.4645,-3.5007,-3.5332,-3.5562,-3.5562,-3.6153,-3.645,-3.5652,-3.5192,-3.4776,-3.4282,-3.3468,0.0,0.0,0.0,-3.359,-3.1929,-3.2507,-3.2438,-3.0723,-3.0689,-3.0792,-3.0792,-3.0858,-3.0898,-3.0898,-3.0898,-3.0878,-3.0793,-3.0722,-3.0711,0.0,0.0,0.0,0.0,0.0,0.0,0.0,0.0,0.0,0.0,0.0,0.0,0.0,0.0,0.0,0.0,0.0,0.0,0.0,0.0,0.0,0.0,0.0,0.0,0.0,0.0,0.0,0.0,-3.1089,-3.2056,-3.1705,-3.3366,-3.3804,0.0,0.0,0.0,0.0,0.0,0.0,-3.5002,-3.5643,-3.6445,-3.7409,-3.8472,-3.9116,-3.9304,-3.843,-3.7892,-3.7642,-3.6404,-3.5692,-3.55,-3.55,-3.55,-3.55,-3.55,-3.55,-3.5494,-3.5544,-3.5958,-3.6477,-3.5894,-3.5659,-3.5644,-3.5671,-3.5799,-3.61,-3.7094,-3.7576,-3.7596,-3.6683,-3.5846,-3.493,-3.3622,0.0,0.0,0.0,0.0,-3.3606,-3.4265,-3.4232,-3.4182,-3.4746,-3.516,-3.5477,-3.5477,-3.6196,-3.6706,-3.614,-3.5914,-3.5596,-3.4949,-3.4122,0.0,-3.3564,-3.4122,-3.391,-3.2218,-3.259,-3.2363,-3.0673,-3.0592,-3.0677,-3.0677,-3.0762,-3.0812,-3.0812,-3.0812,-3.0785,-3.0679,-3.0665,-3.0624,-3.0606,0.0,0.0,0.0,0.0,0.0,0.0,0.0,0.0,0.0,0.0,0.0,0.0,0.0,0.0,0.0,0.0,0.0,0.0,0.0,0.0,0.0,0.0,0.0,0.0,0.0,0.0,0.0,0.0,0.0,-3.4208,-3.4318,0.0,0.0,0.0,0.0,-3.4377,-3.5129,-3.5939,-3.6725,-3.6816,-3.7556,-3.9126,-3.8464,-3.8457,-3.9284,-3.843,-3.7584,-3.675,-3.6673,-3.6231,-3.55,-3.55,-3.55,-3.55,-3.55,-3.55,-3.55,-3.5488,-3.5533,-3.5572,-3.5602,-3.5574,-3.5528,-3.5588,-3.6051,-3.6547,-3.5867,-3.6129,-3.6649,-3.5815,-3.4968,-3.4244,-3.4167,-3.4129,0.0,0.0,-3.4546,-3.4999,-3.5045,-3.4869,-3.4586,-3.4315,-3.4272,-3.4298,-3.4298,-3.4572,-3.5371,-3.7145,-3.7033,-3.6635,-3.6577,0.0,-3.5365,-3.5365,-3.5404,-3.4808,-3.3064,-3.2938,-3.2363,-3.0673,-3.0558,-3.0609,-3.0609,-3.0614,-3.0614,-3.0614,-3.0614,-3.0614,-3.0609,-3.0533,-3.0541,-3.0603,-3.0541,0.0,0.0,0.0,0.0,0.0,0.0,0.0,0.0,0.0,0.0,0.0,0.0,0.0,0.0,0.0,0.0,0.0,0.0,0.0,0.0,0.0,0.0,0.0,0.0,0.0,0.0,0.0,0.0,-3.3738,-3.5033,0.0,-3.3812,-3.4578,-3.5175,-3.5214,-3.543,-3.64,-3.8337,-3.7392,-3.7782,-3.9996,-3.8719,-3.8411,-3.9284,-3.7873,-3.7,-3.6692,-3.6173,-3.5788,-3.55,-3.55,-3.55,-3.55,-3.55,-3.55,-3.55,-3.55,-3.5808,-3.6219,-3.5727,-3.5849,-3.6199,-3.5727,-3.6035,-3.6654,-3.6365,-3.6827,-3.7411,-3.6538,-3.5712,-3.5045,-3.5045,-3.5045,-3.4999,-3.4837,-3.4934,-3.507,-3.4898,-3.4614,-3.4345,-3.4223,-3.408,-3.3935,-3.3935,-3.4177,-3.4647,-3.556,-3.5837,-3.5923,-3.5923,-3.5692,-3.55,-3.55,-3.55,-3.4865,-3.3122,-3.2915,-3.2295,-3.0604,-3.0509,-3.0537,-3.0537,-3.0575,-3.0603,-3.0603,-3.0603,-3.0581,-3.0541,-3.0501,-3.0481,-3.0463,-3.0451,-3.0451,0.0,0.0,0.0,0.0,0.0,0.0,0.0,0.0,0.0,0.0,0.0,0.0,0.0,0.0,0.0,0.0,0.0,0.0,0.0,0.0,0.0,0.0,0.0,0.0,0.0,-3.4105,-3.488,-3.4123,-3.5447,-3.5797,-3.4171,-3.5204,-3.5858,-3.5595,-3.5772,-3.6635,-3.8334,-3.7334,-3.7603,-3.9592,-3.8296,-3.7834,-3.8411,-3.7007,-3.6308,-3.6288,-3.575,-3.55,-3.55,-3.55,-3.55,-3.55,-3.55,-3.55,-3.55,-3.55,-3.5808,-3.6231,-3.5712,-3.5827,-3.6231,-3.5692,-3.5846,-3.6308,-3.6308,-3.6673,-3.7065,-3.6481,-3.5923,-3.5486,-3.5383,-3.5369,-3.5304,-3.5034,-3.4889,-3.4765,-3.4582,-3.4288,-3.4068,-3.4068,-3.3941,-3.3807,-3.3807,-3.4006,-3.4277,-3.4497,-3.4971,-3.5391,-3.5486,-3.55,-3.55,-3.55,-3.55,-3.4981,-3.3526,-3.3083,-3.2372,-3.0981,-3.0609,-3.0472,-3.0472,-3.0507,-3.0529,-3.0529,-3.0529,-3.0516,-3.0477,-3.0472,-3.0451,-3.0404,-3.0692,-3.0962,-3.1231,0.0,0.0,0.0,0.0,0.0,0.0,0.0,0.0,0.0,0.0,0.0,0.0,0.0,0.0,0.0,0.0,0.0,0.0,0.0,0.0,0.0,0.0,0.0,-3.4293,-3.4313,-3.4667,-3.5589,-3.5582,-3.5528,-3.559,-3.6235,-3.6346,-3.5596,-3.6231,-3.6692,-3.6731,-3.6692,-3.7065,-3.7969,-3.7142,-3.6673,-3.6692,-3.5904,-3.55,-3.55,-3.55,-3.55,-3.55,-3.55,-3.55,-3.55,-3.55,-3.55,-3.55,-3.55,-3.55,-3.55,-3.55,-3.55,-3.55,-3.55,-3.55,-3.55,-3.55,-3.55,-3.55,-3.55,-3.5493,-3.5439,-3.5182,-3.5096,-3.5025,-3.4754,-3.4445,-3.4188,-3.4188,-3.3981,-3.3807,-3.3807,-3.3807,-3.3807,-3.3807,-3.3993,-3.4188,-3.4188,-3.4676,-3.5155,-3.5439,-3.5493,-3.55,-3.55,-3.55,0.0,-3.4321,-3.3449,-3.2622,-3.1795,-3.0942,-3.0423,-3.0404,-3.0404,-3.0404,-3.0404,-3.0404,-3.0404,-3.0442,-3.0442,-3.0442,-3.0481,-3.1308,-3.2122,-3.2891,0.0,0.0,0.0,0.0,0.0,0.0,0.0,0.0,0.0,0.0,0.0,0.0,0.0,0.0,0.0,0.0,0.0,0.0,0.0,0.0,0.0,-3.3487,-3.4199,-3.423,-3.4764,-3.5277,-3.5519,-3.5522,-3.5501,-3.5528,-3.57,-3.5981,-3.6346,-3.6038,-3.6365,-3.7584,-3.6481,-3.65,-3.795,-3.6596,-3.6115,-3.6692,-3.5904,-3.55,-3.55,-3.55,-3.55,-3.55,-3.55,-3.55,-3.55,-3.55,-3.55,-3.55,-3.55,-3.55,-3.55,-3.55,-3.55,-3.55,-3.55,-3.55,-3.55,-3.55,-3.55,-3.55,-3.55,-3.5369,-3.5198,-3.5122,-3.4963,-3.4744,-3.4423,-3.4258,-3.4159,-3.3961,-3.3868,-3.3807,-3.3807,-3.3807,-3.3807,-3.3807,-3.3868,-3.3974,-3.4152,-3.4338,-3.4615,-3.5122,-3.5369,-3.55,-3.55,-3.55,-3.5192,-3.4321,-3.3994,-3.3295,-3.1852,-3.1487,-3.1096,-3.0442,-3.0404,-3.0404,-3.0404,-3.0404,-3.0673,-3.1308,-3.1346,-3.1621,-3.2199,-3.2449,-3.2679,0.0,0.0,0.0,0.0,0.0,0.0,0.0,0.0,0.0,0.0,0.0,0.0,0.0,0.0,0.0,0.0,0.0,0.0,0.0,0.0,0.0,0.0,-3.418,-3.4737,-3.4737,-3.5173,-3.55,-3.55,-3.55,-3.55,-3.55,-3.55,-3.5692,-3.6154,-3.5769,-3.5923,-3.6911,-3.6019,-3.5942,-3.693,-3.6,-3.5712,-3.6192,-3.5731,-3.55,-3.55,-3.55,-3.55,-3.55,-3.55,-3.55,-3.55,-3.55,-3.55,-3.55,-3.55,-3.55,-3.55,0.0,0.0,0.0,0.0,-3.5391,-3.55,-3.55,-3.5432,-3.532,-3.532,-3.5147,-3.4917,-3.4774,-3.4605,-3.4431,-3.4117,-3.4031,-3.4012,-3.3842,-3.3807,-3.3715,-3.3385,-3.3311,-3.3201,-3.2871,-3.3054,-3.3345,-3.3494,-3.3881,0.0,-3.4851,-3.5147,-3.5369,-3.5486,-3.55,-3.5327,-3.4814,-3.443,-3.384,-3.2852,-3.2429,-3.2006,-3.1481,-3.1442,0.0,0.0,0.0,-3.1673,-3.2179,-3.2199,0.0,0.0,0.0,0.0,0.0,-3.3987,0.0,0.0,-3.4007,-3.3859,0.0,0.0,0.0,0.0,0.0,0.0,0.0,0.0,0.0,0.0,0.0,0.0,0.0,0.0,0.0,0.0,-3.4863,-3.5453,-3.5453,-3.5486,-3.55,-3.55,-3.55,-3.55,-3.55,-3.55,-3.55,-3.55,-3.55,-3.55,-3.55,-3.55,0.0,0.0,0.0,-3.55,-3.55,-3.55,-3.55,-3.55,-3.55,-3.55,-3.55,-3.55,-3.55,-3.55,-3.55,-3.55,-3.55,-3.55,-3.5416,-3.5299,-3.5299,-3.5143,-3.4899,-3.4848,-3.4944,-3.5124,-3.5158,0.0,0.0,-3.4766,-3.4661,-3.4451,-3.415,-3.4108,-3.4117,-3.3881,-3.3807,-3.377,-3.3697,-3.366,-3.3458,-3.2656,-3.2454,-3.2284,-3.1562,-3.2027,-3.2601,-3.2601,-3.3444,-3.4265,-3.4601,-3.4908,-3.5198,-3.5453,-3.55,-3.55,-3.55,-3.4814,-3.4321,-3.4205,-3.341,0.0,-3.2776,-3.2679,-3.266,-3.2756,-3.2949,-3.3045,-3.3045,-3.3141,-3.3564,-3.434,-3.4359,-3.4737,-3.55,-3.55,-3.55,-3.5462,-3.391,-3.3603,0.0,0.0,0.0,0.0,0.0,0.0,0.0,0.0,0.0,0.0,0.0,0.0,0.0,0.0,0.0,-3.3535,-3.4464,-3.5182,-3.5182,-3.5369,-3.55,-3.55,-3.55,-3.55,-3.55,-3.55,-3.55,-3.55,-3.55,-3.55,-3.55,-3.55,-3.55,-3.55,-3.55,-3.55,-3.55,-3.55,-3.55,-3.55,-3.55,0.0,-3.55,-3.55,-3.55,-3.55,-3.55,-3.55,-3.55,-3.55,-3.4961,-3.4133,-3.4133,-3.3957,-3.3667,-3.3252,-3.2978,-3.2874,-3.3096,-3.2997,-3.2758,-3.2758,-3.3012,-3.331,-3.3254,-3.3537,0.0,-3.3802,-3.3807,-3.3642,-3.2999,-3.2821,-3.2619,-3.1825,-3.1623,-3.1586,-3.1433,-3.2027,-3.2601,-3.2601,-3.329,-3.3961,-3.4253,-3.4736,-3.5198,-3.5453,-3.55,-3.55,-3.55,-3.5346,-3.4988,-3.4282,-3.341,-3.2641,-3.1987,-3.1288,-3.1173,-3.1891,-3.3199,-3.3955,-3.3955,-3.4622,-3.5077,-3.525,-3.525,-3.5327,-3.55,-3.55,-3.55,-3.5481,-3.5154,-3.5096,0.0,0.0,0.0,0.0,0.0,0.0,0.0,0.0,0.0,0.0,0.0,-3.2232,-3.2665,0.0,-3.3551,-3.3976,-3.4641,-3.4952,-3.4514,-3.4675,-3.4853,-3.4853,-3.4853,-3.4853,-3.4853,-3.4853,-3.5026,-3.5462,-3.55,-3.55,-3.55,-3.55,-3.55,-3.55,-3.55,-3.55,-3.55,-3.55,-3.55,-3.55,-3.55,-3.55,-3.55,-3.55,-3.55,-3.55,-3.55,-3.525,-3.4808,-3.4263,-3.356,-3.276,-3.2354,-3.2531,-3.2933,-3.2391,-3.2276,-3.2408,-3.2408,-3.2212,-3.2002,-3.2002,-3.2093,-3.2211,-3.2211,-3.268,-3.3201,-3.3201,-3.3495,-3.3715,-3.3311,-3.2894,-3.2399,-3.1586,-3.1091,-3.0687,-3.0283,-3.1146,-3.2008,-3.2008,-3.2963,-3.3889,-3.414,-3.4449,-3.4803,-3.5231,-3.5297,-3.5354,-3.5486,-3.55,-3.5327,-3.4911,-3.4468,-3.4038,-3.3635,-3.2795,-3.2295,-3.2295,-3.3506,-3.4205,-3.4205,-3.5045,-3.55,-3.55,-3.55,-3.55,-3.55,-3.55,-3.55,-3.55,-3.55,-3.55,0.0,0.0,0.0,0.0,0.0,0.0,0.0,-3.0812,-3.1289,-3.2037,-3.2316,-3.2645,-3.335,-3.3481,-3.3717,-3.4414,-3.4671,-3.4513,-3.3809,-3.3849,-3.3898,-3.3725,-3.3859,-3.3955,-3.3955,-3.4109,-3.4487,-3.5192,-3.5404,-3.55,-3.55,-3.55,-3.55,-3.55,-3.55,-3.55,-3.55,-3.55,-3.55,-3.55,-3.55,-3.55,-3.55,-3.55,-3.55,-3.55,-3.5273,-3.4745,-3.3954,-3.2713,-3.1967,-3.1475,-3.0621,-3.0979,-3.1935,-3.1492,-3.1571,-3.1883,-3.1703,-3.1473,-3.1258,-3.1258,-3.1207,-3.1176,-3.1176,-3.1733,-3.2375,-3.2375,-3.2834,-3.3293,-3.3146,-3.2742,-3.2118,-3.1164,-3.0558,-2.9989,-2.917,-3.0136,-3.1213,-3.1378,-3.2577,-3.3697,-3.4056,-3.4123,-3.4338,-3.5008,-3.5105,-3.5198,-3.5479,-3.55,-3.55,-3.55,-3.5346,-3.5173,-3.5,-3.4507,-3.384,-3.2968,-3.3872,-3.4379,-3.4205,-3.5045,-3.55,-3.55,-3.55,-3.55,-3.55,-3.55,-3.55,-3.55,-3.55,-3.55,-2.9005,-2.9005,-2.9005,-2.9005,-2.9192,-2.9545,0.0,-3.0987,-3.1853,-3.2435,-3.3121,-3.3637,-3.3729,-3.3747,-3.3784,-3.3889,-3.3725,-3.3553,-3.3459,-3.3207,-3.2776,-3.2064,-3.2602,-3.3045,-3.3045,-3.3744,-3.4244,-3.434,-3.5064,-3.55,-3.55,-3.55,-3.55,-3.55,-3.55,-3.55,-3.55,-3.55,-3.55,-3.55,-3.55,-3.55,-3.55,-3.55,-3.55,-3.5435,-3.4427,-3.3805,-3.3346,-3.157,-3.0801,-3.0634,-2.9592,-2.9421,-2.9754,-2.9694,-2.9559,-2.9429,-2.9653,-2.9538,-2.9301,-2.9301,-2.9774,-3.0338,-3.0338,-3.0889,-3.1531,-3.1531,-3.1599,-3.1494,-3.0797,-3.1072,-3.1146,-2.9629,-2.9739,-2.9989,-2.917,-2.9702,-3.0558,-3.1268,-3.2118,-3.2963,-3.3713,-3.3842,-3.4129,-3.4962,-3.5105,-3.5198,-3.5479,-3.55,-3.55,-3.55,-3.4814,-3.4026,-3.3256,-3.3814,-3.384,-3.2968,-3.4442,-3.5007,-3.4225,-3.5045,-3.55,-3.55,-3.55,-3.55,-3.55,-3.55,-3.55,-3.55,-3.55,-3.55,-2.8824,-2.9005,-2.9005,-2.9005,-2.9078,-2.9348,-3.0031,-3.0544,-3.1063,-3.1758,-3.254,-3.3096,-3.3096,-3.3476,-3.3642,-3.3183,-3.3145,-3.2836,-3.19,-3.1785,-3.1481,-3.0636,-3.1389,-3.2037,-3.2186,-3.2526,-3.3141,-3.4129,-3.4545,-3.4968,-3.5462,-3.55,-3.55,-3.55,-3.55,-3.5432,-3.5273,-3.5273,-3.5273,-3.5273,-3.5273,-3.5354,-3.5493,-3.5346,-3.519,-3.4949,-3.3501,-3.2723,-3.2345,-3.0603,-2.9813,-2.9614,-2.9173,-2.9067,-2.9178,-2.9178,-2.92,-2.9225,-2.9171,-2.9089,-2.9005,-2.9005,-2.9225,-2.95,-2.95,-3.0393,-3.1305,-3.0834,-3.1715,-3.2614,-3.1806,-3.1861,-3.1935,-3.1262,-3.0999,-3.0797,-3.0467,-3.1035,-3.1702,-3.2027,-3.2761,-3.3421,-3.3733,-3.3807,-3.3992,-3.451,-3.4735,-3.4963,-3.5231,-3.5391,-3.55,-3.55,-3.5173,-3.4603,-3.3718,-3.3994,-3.384,-3.2968,-3.4064,-3.4584,-3.4225,-3.5045,-3.55,-3.55,-3.55,-3.55,-3.55,-3.55,-3.55,-3.55,-3.55,-3.55,-2.8794,-2.9005,-2.9005,-2.9005,-2.9005,-2.9152,-2.9739,-3.0044,-3.0375,-3.0944,-3.1715,-3.2284,-3.2284,-3.2742,-3.3018,-3.2656,-3.2445,-3.202,-3.106,-3.0762,-3.0496,-3.0073,-3.0728,-3.1356,-3.1776,-3.1943,-3.2622,-3.409,-3.4205,-3.4584,-3.5442,-3.55,-3.5479,-3.5383,-3.5383,-3.5266,-3.499,-3.499,-3.499,-3.499,-3.499,-3.5096,-3.5281,-3.5079,-3.4832,-3.4467,-3.2804,-3.1948,-3.1585,-3.019,-2.9522,-2.9335,-2.9335,-2.9335,-2.9299,-2.9078,-2.9123,-2.9257,-2.9067,-2.9005,-2.9005,-2.9005,-2.9005,-2.9005,-2.9005,-2.9971,-3.0944,-3.0356,-3.1623,-3.2999,-3.243,-3.2417,-3.2546,-3.232,-3.199,-3.1659,-3.1452,-3.1861,-3.2326,-3.2564,-3.306,-3.3532,-3.3752,-3.3807,-3.3881,-3.4068,-3.4357,-3.4685,-3.5043,-3.5327,-3.55,-3.55,-3.55,-3.5231,-3.4603,-3.4564,-3.418,-3.3314,-3.4083,-3.4449,-3.4205,-3.5045,-3.55,-3.55,-3.55,-3.55,-3.55,-3.55,-3.55,-3.55,-3.55,-3.55,-2.8987,-2.9005,-2.9005,-2.9005,-2.9005,-2.9005,-2.9023,-2.9629,-3.021,-3.0228,-3.087,-3.1452,-3.1452,-3.147,-3.1715,-3.2472,-3.1527,-3.0929,-3.1663,-3.0592,-3.0017,-3.0762,-3.0894,-3.1223,-3.2006,-3.2573,-3.3237,-3.4129,-3.4205,-3.4584,-3.5442,-3.55,-3.5376,-3.5122,-3.5113,-3.4981,-3.4704,-3.4704,-3.4704,-3.4704,-3.4704,-3.4733,-3.4714,-3.4733,-3.4529,-3.4137,-3.2501,-3.1663,-3.1354,-3.0515,-3.0166,-3.0173,-3.0173,-3.0173,-3.0081,-2.9299,-2.9005,-2.9017,-2.9005,-2.9005,-2.9005,-2.9005,-2.9005,-2.9005,-2.9005,-2.9574,-3.0228,-3.021,-3.0815,-3.147,-3.1452,-3.2027,-3.2399,-3.1623,-3.2008,-3.2344,-3.158,-3.1415,-3.1659,-3.2454,-3.2619,-3.2876,-3.3678,-3.3807,-3.3788,-3.3802,-3.4043,-3.4427,-3.5025,-3.5327,-3.55,-3.55,-3.55,-3.5481,-3.5462,-3.5462,-3.5084,-3.4225,-3.4988,-3.5084,-3.4225,-3.5045,-3.55,-3.55,-3.55,-3.55,-3.55,-3.55,-3.55,-3.55,-3.55,-3.55,-2.887,-2.8815,-2.867,-2.8929,-2.9005,-2.9005,-2.9005,-2.9207,-2.939,-2.939,-3.0044,-3.0595,-3.0595,-3.1035,-3.1311,-3.1054,-3.0624,-3.0233,-2.9975,-2.9536,-2.9527,-3.0342,-3.1065,-3.1805,-3.2617,-3.2496,-3.2722,-3.3605,-3.3681,-3.4042,-3.4934,-3.4972,-3.4935,-3.4851,-3.4822,-3.4675,-3.4368,-3.4368,-3.4368,-3.4368,-3.4582,-3.4582,-3.4368,-3.4368,-3.4206,-3.3867,-3.281,-3.2274,-3.2137,-3.1329,-3.0999,-3.0999,-3.0999,-3.0999,-3.0962,-3.0687,-3.0246,-2.9721,-2.9189,-2.9005,-2.9005,-2.9005,-2.9005,-2.9005,-2.9005,-2.9934,-3.087,-3.0356,-3.1549,-3.2871,-3.2339,-3.2797,-3.333,-3.3054,-3.3201,-3.333,-3.3054,-3.2981,-3.3073,-3.3348,-3.3403,-3.3476,-3.3752,-3.3807,-3.3807,-3.3807,-3.4031,-3.4416,-3.5025,-3.5182,-3.5304,-3.5486,-3.55,-3.55,-3.55,-3.55,-3.5365,-3.5084,-3.5346,-3.5365,-3.5064,-3.5346,-3.55,-3.55,-3.55,-3.55,-3.55,-3.55,-3.55,-3.55,-3.55,-3.55,-2.862,-2.8608,-2.8502,-2.8905,-2.9005,-2.9005,-2.9005,-2.9005,-2.9005,-2.9005,-2.9409,-2.9757,-2.9757,-3.0191,-3.0558,-3.0613,-3.0155,-2.9787,-2.9861,-2.961,-2.9721,-3.0522,-3.1486,-3.2511,-3.3611,-3.3364,-3.3342,-3.3824,-3.3843,-3.4079,-3.4675,-3.4694,-3.4653,-3.4529,-3.4529,-3.4368,-3.4068,-3.4056,-3.4056,-3.4068,-3.4272,-3.426,-3.4056,-3.4056,-3.3813,-3.3348,-3.2821,-3.2436,-3.2155,-3.1916,-3.1825,-3.1825,-3.1825,-3.1825,-3.1788,-3.1507,-3.1072,-3.0503,-2.9702,-2.9244,-2.9005,-2.9005,-2.9005,-2.906,-2.9335,-3.0356,-3.136,-3.1127,-3.2375,-3.3678,-3.3151,-3.3421,-3.3807,-3.3807,-3.3807,-3.3807,-3.3807,-3.3807,-3.3807,-3.3807,-3.3807,-3.3807,-3.3807,-3.3807,-3.3807,-3.3807,-3.3948,-3.423,-3.4725,-3.4879,-3.5016,-3.5198,-3.5297,-3.5361,-3.5361,-3.5446,-3.55,-3.55,-3.55,-3.55,-3.55,-3.55,-3.55,-3.55,-3.55,-3.55,-3.55,-3.55,-3.55,-3.55,-3.55,-3.55,-2.8231,-2.8322,-2.8417,-2.8832,-2.8968,-2.9005,-2.9005,-2.9005,-2.9005,-2.9005,-2.9005,-2.9005,-2.9005,-2.9023,-2.9555,-3.1091,-3.0099,-2.9647,-3.1195,-3.0742,-3.0558,-3.1378,-3.2137,-3.3225,-3.4802,-3.4986,-3.4887,-3.4668,-3.463,-3.4649,-3.4699,-3.4691,-3.4508,-3.4195,-3.4183,-3.4068,-3.3788,-3.3807,-3.3807,-3.3807,-3.3807,-3.3807,-3.3807,-3.3807,-3.3385,-3.2656,-3.2656,-3.2228,-3.158,-3.2357,-3.2656,-3.2656,-3.2656,-3.2656,-3.2564,-3.1788,-3.1507,-3.136,-3.0595,-2.9794,-2.9115,-2.9078,-2.9097,-2.9262,-3.0026,-3.0815,-3.1623,-3.2381,-3.3183,-3.3807,-3.3807,-3.3807,-3.3807,-3.3807,-3.3807,-3.3807,-3.3807,-3.3807,-3.3807,-3.3807,-3.3807,-3.3807,-3.3807,-3.3807,-3.3807,-3.3807,-3.3807,-3.3902,-3.4171,-3.4486,-3.4674,-3.4694,-3.4935,-3.5088,-3.5088,-3.5312,-3.546,-3.5486,-3.5486,-3.5493,-3.55,-3.55,-3.5493,-3.5486,-3.5493,-3.5493,-3.5486,-3.5493,-3.55,-3.55,-3.55,-3.55,-2.7276,-2.7358,-2.7355,-2.7956,-2.8565,-2.9005,-2.9005,-2.9005,-2.9005,-2.9005,-2.9005,-2.9005,-2.9005,-2.9482,-3.0026,-3.0448,-3.065,-3.0925,-3.1342,-3.1231,-3.1384,-3.221,-3.2472,-3.3005,-3.4009,-3.4656,-3.4724,-3.4073,-3.4559,-3.4911,-3.4924,-3.4363,-3.3992,-3.3902,-3.3902,-3.3863,-3.3807,-3.3807,-3.3807,-3.3807,-3.3807,-3.3807,-3.3807,-3.3807,-3.3697,-3.3495,-3.3495,-3.3385,-3.3201,-3.3403,-3.3495,-3.3495,-3.3495,-3.3495,-3.3476,-3.3256,-3.2816,-3.2265,-3.2051,-3.1458,-3.0687,-3.0099,-3.0301,-3.0834,-3.1017,-3.1659,-3.2339,-3.2546,-3.3183,-3.3807,-3.3807,-3.3807,-3.3807,-3.3807,-3.3807,-3.3807,-3.3807,-3.3807,-3.3807,-3.3807,-3.3807,-3.3807,-3.3807,-3.3807,-3.3807,-3.3807,-3.3807,-3.3902,-3.4171,-3.4258,-3.4423,-3.4674,-3.4754,-3.4793,-3.4793,-3.4851,-3.499,-3.519,-3.5207,-3.5289,-3.5493,-3.55,-3.5417,-3.5207,-3.5391,-3.5391,-3.5207,-3.5391,-3.55,-3.55,-3.55,-3.55,-2.6517,-2.6546,-2.6672,-2.7565,-2.8136,-2.8565,-2.8932,-2.9005,-2.9005,-2.9005,-2.9005,-2.9005,-2.9005,-2.9941,-3.0834,-3.1201,-3.1641,-3.2045,-3.2394,-3.2155,-3.21,-3.2546,-3.2913,-3.344,-3.4252,-3.4747,-3.4968,-3.4908,-3.4949,-3.4857,-3.4491,-3.4045,-3.3807,-3.3807,-3.3807,-3.3807,-3.3807,-3.3807,-3.3807,-3.3807,-3.3807,-3.3807,-3.3807,-3.3807,-3.3605,-3.3293,-3.3642,-3.3605,-3.3311,-3.3642,-3.3807,-3.3807,-3.3807,-3.3807,-3.3807,-3.3807,-3.3513,-3.3091,-3.2711,-3.254,-3.2265,-3.1091,-3.1017,-3.147,-3.1825,-3.2247,-3.2674,-3.3036,-3.3458,-3.3807,-3.3807,-3.3807,-3.3807,-3.3807,-3.3807,-3.3807,-3.3807,-3.3807,-3.3807,-3.3807,-3.3807,-3.3807,-3.3807,-3.3807,-3.3807,-3.3807,-3.3807,-3.3855,-3.4012,-3.4018,-3.4093,-3.4272,-3.4409,-3.4486,-3.4486,-3.4622,-3.4754,-3.4917,-3.5025,-3.5174,-3.5312,-3.532,-3.5246,-3.5105,-3.513,-3.513,-3.5105,-3.5239,-3.5383,-3.55,-3.55,-3.55,-2.5832,-2.5847,-2.6139,-2.7343,-2.7725,-2.8007,-2.8822,-2.9005,-2.9005,-2.9005,-2.9005,-2.9005,-2.9005,-3.0228,-3.1494,-3.2307,-3.2528,-3.2913,-3.3825,-3.3261,-3.2803,-3.2913,-3.344,-3.4082,-3.4766,-3.4839,-3.5151,-3.5899,-3.5261,-3.4582,-3.399,-3.3862,-3.3807,-3.3807,-3.3807,-3.3807,-3.3807,-3.3807,-3.3807,-3.3807,-3.3807,-3.3807,-3.3807,-3.3807,-3.3421,-3.2803,-3.3495,-3.3403,-3.2803,-3.3513,-3.3807,-3.3807,-3.3807,-3.3807,-3.3807,-3.3807,-3.3807,-3.3697,-3.2999,-3.322,-3.355,-3.2045,-3.1635,-3.1856,-3.2559,-3.2748,-3.2894,-3.3605,-3.3807,-3.3807,-3.3807,-3.3807,-3.3807,-3.3807,-3.3807,-3.3807,-3.3807,-3.3807,-3.3807,-3.3807,-3.3807,-3.3807,-3.3807,-3.3807,-3.3807,-3.3807,-3.3807,-3.3807,-3.3807,-3.3807,-3.3807,-3.3807,-3.4006,-3.4147,-3.4147,-3.442,-3.4601,-3.4632,-3.4851,-3.5008,-3.5053,-3.5053,-3.5025,-3.4971,-3.4822,-3.486,-3.5053,-3.5113,-3.5281,-3.55,-3.55,-3.55,-2.4885,-2.5036,-2.5366,-2.6519,-2.731,-2.8007,-2.8822,-2.9005,-2.9005,-2.9005,-2.9005,-2.9005,-2.9005,-2.9757,-3.0668,-3.1476,-3.2173,-3.3115,-3.4601,-3.41,-3.3844,-3.4509,-3.4105,-3.3844,-3.399,-3.4009,-3.4082,-3.4211,-3.4082,-3.4247,-3.4766,-3.4174,-3.3807,-3.3807,-3.3807,-3.3807,-3.3807,-3.3807,-3.3807,-3.3807,-3.3807,-3.3807,-3.3807,-3.3807,-3.3715,-3.3605,-3.3733,-3.3715,-3.3605,-3.3733,-3.3807,-3.3807,-3.3807,-3.3807,-3.3807,-3.3807,-3.3807,-3.377,-3.3642,-3.3678,-3.3642,-3.2706,-3.2834,-3.3403,-3.355,-3.3587,-3.3623,-3.3752,-3.3807,-3.3807,-3.3807,-3.3807,-3.3807,-3.3807,-3.3807,-3.3807,-3.3807,-3.3807,-3.3807,-3.3807,-3.3807,-3.3807,-3.3807,-3.3807,-3.3807,-3.3807,-3.3807,-3.3807,-3.3807,-3.3807,-3.3807,-3.3807,-3.3842,-3.3863,-3.3863,-3.3915,-3.4049,-3.4258,-3.4327,-3.4489,-3.4754,-3.4764,-3.4634,-3.436,-3.4794,-3.4944,-3.4764,-3.5215,-3.5446,-3.55,-3.55,-3.55,-2.5088,-2.4819,-2.4871,-2.624,-2.6888,-2.7512,-2.8712,-2.9005,-2.9005,-2.9005,-2.9005,-2.9005,-2.9005,-3.0008,-3.1091,-3.1898,-3.2706,-3.3807,-3.5459,-3.4949,-3.4564,-3.4949,-3.4656,-3.4266,-3.3844,-3.3807,-3.3807,-3.3807,-3.3807,-3.3972,-3.4344,-3.4009,-3.3807,-3.3807,-3.3807,-3.3807,-3.3807,-3.3807,-3.3807,-3.3807,-3.3807,-3.3807,-3.3807,-3.3807,-3.3807,-3.3807,-3.3807,-3.3807,-3.3807,-3.3807,-3.3807,-3.3807,-3.3807,-3.3807,-3.3807,-3.3807,-3.3807,-3.3807,-3.3807,-3.3807,-3.3733,-3.3348,-3.3495,-3.3807,-3.3807,-3.3807,-3.3807,-3.3807,-3.3652,-3.3536,-3.3748,-3.3634,-3.3536,-3.3748,-3.3807,-3.3807,-3.3807,-3.3807,-3.3807,-3.3807,-3.3807,-3.3807,-3.3807,-3.3807,-3.3807,-3.3807,-3.3807,-3.3807,-3.3807,-3.3807,-3.3807,-3.3807,-3.3807,-3.3807,-3.3807,-3.3807,-3.385,-3.3986,-3.4123,-3.4258,-3.4423,-3.4434,-3.4368,-3.42,-3.4345,-3.4518,-3.4694,-3.4963,-3.5223,-3.55,-3.55,-3.55,-2.5714,-2.5209,-2.5052,-2.6502,-2.6869,-2.7226,-2.8675,-2.9005,-2.9005,-2.9005,-2.9005,-2.9005,-2.9005,-3.0026,-3.1201,-3.2192,-3.2871,-3.399,-3.6009,-3.5555,-3.5078,-3.5261,-3.5114,-3.4674,-3.388,-3.3807,-3.3807,-3.3807,-3.3807,-3.3807,-3.3807,-3.3807,-3.3807,-3.3807,-3.3807,-3.3807,-3.3807,-3.3807,-3.3807,-3.3807,-3.3807,-3.3807,-3.3807,-3.3807,-3.3807,-3.3807,-3.3807,-3.3807,-3.3807,-3.3807,-3.3807,-3.3807,-3.3807,-3.3807,-3.3807,-3.3807,-3.3807,-3.3807,-3.3807,-3.3807,-3.3807,-3.3807,-3.3807,-3.3807,-3.3807,-3.3734,-3.368,-3.368,-3.3375,-3.3121,-3.3433,-3.3361,-3.3302,-3.3707,-3.3807,-3.3807,-3.3807,-3.3807,-3.3807,-3.3807,-3.3807,-3.3807,-3.3807,-3.3807,-3.3807,-3.3807,-3.3807,-3.3807,-3.3807,-3.3807,-3.3807,-3.3807,-3.3807,-3.3807,-3.3807,-3.3807,-3.3807,-3.3807,-3.4012,-3.4111,-3.4111,-3.4111,-3.4111,-3.4111,-3.4037,-3.4232,-3.4694,-3.4822,-3.5062,-3.5424,-3.546,-3.5479,-2.6428,-2.6447,-2.6594,-2.7475,-2.7688,-2.7915,-2.8803,-2.9005,-2.9005,-2.9005,-2.9005,-2.9005,-2.9005,-2.9115,-2.9721,-3.1256,-3.158,-3.2719,-3.5862,-3.5555,-3.5298,-3.6083,-3.5481,-3.4674,-3.388,-3.3807,-3.3807,-3.3807,-3.3807,-3.3807,-3.3807,-3.3807,-3.3807,-3.3807,-3.3807,-3.3807,-3.3807,-3.3807,-3.3807,-3.3807,-3.3807,-3.3807,-3.3807,-3.3807,-3.3807,-3.3807,-3.3807,-3.3807,-3.3807,-3.3807,-3.3807,-3.3807,-3.3807,-3.3807,-3.3807,-3.3807,-3.3807,-3.3807,-3.3807,-3.3807,-3.3807,-3.3807,-3.3807,-3.3807,-3.3807,-3.3536,-3.3258,-3.3258,-3.2919,-3.2567,-3.2616,-3.2921,-3.3302,-3.3707,-3.3807,-3.3807,-3.3807,-3.3807,-3.3807,-3.3807,-3.3807,-3.3807,-3.3807,-3.3807,-3.3807,-3.3807,-3.3807,-3.3807,-3.3807,-3.3807,-3.3807,-3.3807,-3.3807,-3.3807,-3.3807,-3.3807,-3.3807,-3.3807,-3.3815,-3.3842,-3.3842,-3.3842,-3.3842,-3.3842,-3.4341,-3.4643,-3.4694,-3.519,-3.5339,-3.5138,-3.5383,-3.5369,-2.7288,-2.6979,-2.6796,-2.7603,-2.7798,-2.8007,-2.8822,-2.9005,-2.9005,-2.9005,-2.9005,-2.9005,-2.9005,-2.9005,-2.9537,-3.114,-3.1397,-3.2553,-3.5844,-3.6009,-3.6083,-3.6923,-3.6285,-3.5459,-3.4601,-3.4082,-3.3807,-3.3807,-3.3807,-3.3807,-3.3807,-3.3807,-3.3807,-3.3807,-3.333,-3.3311,-3.3807,-3.333,-3.333,-3.3807,-3.3807,-3.3807,-3.3807,-3.3807,-3.3807,-3.3807,-3.3807,-3.3807,-3.3807,-3.3807,-3.3807,-3.3807,-3.3807,-3.3807,-3.3807,-3.3807,-3.3807,-3.3807,-3.3807,-3.3807,-3.3807,-3.3807,-3.3652,-3.3494,-3.3721,-3.3522,-3.3199,-3.3199,-3.2665,-3.2144,-3.2434,-3.284,-3.3243,-3.339,-3.362,-3.3807,-3.3807,-3.3807,-3.3807,-3.3807,-3.3807,-3.3807,-3.3807,-3.3807,-3.3807,-3.3807,-3.3807,-3.3807,-3.3807,-3.3807,-3.3807,-3.3807,-3.3807,-3.3807,-3.3807,-3.3807,-3.3807,-3.3807,-3.3807,-3.3807,-3.3807,-3.3807,-3.3807,-3.3807,-3.4043,-3.4237,-3.4401,-3.4607,-3.4851,-3.5105,-3.5207,-3.5289,-2.8154,-2.775,-2.7446,-2.8007,-2.8154,-2.8301,-2.8877,-2.9005,-2.9005,-2.9005,-2.9005,-2.9005,-2.9005,-2.9005,-2.9537,-3.114,-3.1599,-3.2816,-3.5862,-3.6486,-3.6868,-3.7437,-3.6997,-3.6211,-3.5114,-3.427,-3.3807,-3.3807,-3.3807,-3.3807,-3.3807,-3.3807,-3.3807,-3.3807,-3.3256,-3.3238,-3.3788,-3.3238,-3.3238,-3.3807,-3.3807,-3.3807,-3.3807,-3.3807,-3.3807,-3.3807,-3.3807,-3.3807,-3.3807,-3.3807,-3.3807,-3.3807,-3.3807,-3.3807,-3.3807,-3.3807,-3.3807,-3.3807,-3.3807,-3.3807,-3.3807,-3.3807,-3.3522,-3.3258,-3.3536,-3.3225,-3.2793,-3.2793,-3.2213,-3.1733,-3.2179,-3.2648,-3.3029,-3.3169,-3.3508,-3.3807,-3.3807,-3.3807,-3.3807,-3.3807,-3.3807,-3.3807,-3.3807,-3.3807,-3.3807,-3.3807,-3.3807,-3.3807,-3.3807,-3.3807,-3.3807,-3.3807,-3.3807,-3.3807,-3.3807,-3.3807,-3.3807,-3.3807,-3.3807,-3.3807,-3.3807,-3.3807,-3.3807,-3.3807,-3.3876,-3.4006,-3.42,-3.4311,-3.4563,-3.4981,-3.507,-3.5239,-2.8987,-2.8987,-2.8987,-2.8987,-2.8987,-2.8987,-2.9005,-2.9005,-2.9005,-2.9005,-2.9005,-2.9005,-2.9005,-2.9005,-2.9537,-3.114,-3.2063,-3.3445,-3.5954,-3.6997,-3.7492,-3.7492,-3.7492,-3.6817,-3.5169,-3.427,-3.3807,-3.3807,-3.3807,-3.3807,-3.3807,-3.3807,-3.3807,-3.3807,-3.3788,-3.3788,-3.3807,-3.3788,-3.3788,-3.3807,-3.3807,-3.3807,-3.3807,-3.3807,-3.3807,-3.3807,-3.3807,-3.3807,-3.3807,-3.3807,-3.3807,-3.3807,-3.3807,-3.3807,-3.3807,-3.3807,-3.3807,-3.3807,-3.3807,-3.3807,-3.3807,-3.3807,-3.3522,-3.3199,-3.3199,-3.2549,-3.1808,-3.1808,-3.1526,-3.131,-3.1715,-3.2161,-3.2632,-3.3075,-3.3508,-3.3807,-3.3807,-3.3807,-3.3807,-3.3807,-3.3807,-3.3807,-3.3807,-3.3807,-3.3807,-3.3807,-3.3807,-3.3807,-3.3807,-3.3807,-3.3807,-3.3807,-3.3807,-3.3807,-3.3807,-3.3807,-3.3807,-3.3807,-3.3807,-3.3807,-3.3807,-3.3807,-3.3807,-3.3807,-3.4068,-3.4188,-3.42,-3.4529,-3.4694,-3.4704,-3.4972,-3.5239,-2.9005,-2.9005,-2.9005,-2.9005,-2.9005,-2.9044,-2.9225,-2.9134,-2.9082,-2.9416,-2.9209,-2.9062,-2.9235,-2.9123,-2.9702,-3.1867,-3.2417,-3.366,-3.6684,-3.7345,-3.7713,-3.8248,-3.7349,-3.6009,-3.4339,-3.3954,-3.3807,-3.3807,-3.3807,-3.3807,-3.3807,-3.3807,-3.3807,-3.3807,-3.3275,-3.3238,-3.3788,-3.3256,-3.3256,-3.3807,-3.3807,-3.3807,-3.3807,-3.3807,-3.3807,-3.3807,-3.3807,-3.3807,-3.3807,-3.3807,-3.3807,-3.3807,-3.3807,-3.3807,-3.3807,-3.3807,-3.3807,-3.3807,-3.3807,-3.3807,-3.3807,-3.3807,-3.3299,-3.2713,-3.2713,-3.2281,-3.1734,-3.1468,-3.131,-3.123,-3.1351,-3.1696,-3.2144,-3.2616,-3.306,-3.3465,-3.3734,-3.3807,-3.3807,-3.3807,-3.3807,-3.3807,-3.3807,-3.3807,-3.3807,-3.3807,-3.3807,-3.3807,-3.3807,-3.3807,-3.3807,-3.3807,-3.3807,-3.3807,-3.3807,-3.3807,-3.3807,-3.3807,-3.3807,-3.3807,-3.3807,-3.3807,-3.3807,-3.3807,-3.3876,-3.4006,-3.42,-3.4311,-3.4563,-3.4981,-3.5258,-3.5424,-2.9044,-2.9127,-2.9228,-2.9044,-2.9138,-2.9301,-2.9392,-2.9332,-2.9355,-2.9643,-2.9415,-2.9285,-2.9762,-2.9632,-3.0143,-3.2252,-3.3115,-3.4325,-3.6707,-3.7584,-3.8028,-3.8212,-3.6798,-3.5404,-3.4344,-3.3972,-3.3807,-3.3807,-3.3807,-3.3807,-3.3807,-3.3807,-3.3807,-3.3807,-3.3311,-3.3293,-3.3807,-3.3311,-3.3311,-3.3807,-3.3807,-3.3807,-3.3807,-3.3807,-3.3807,-3.3807,-3.3807,-3.3807,0.0,-3.3807,-3.3807,-3.3807,-3.3807,-3.3807,-3.3807,-3.3807,-3.3807,-3.3807,-3.3807,-3.3707,-3.3564,-3.3564,-3.2981,-3.2213,-3.2056,-3.1823,-3.1526,-3.1271,-3.119,-3.119,-3.119,-3.1507,-3.1915,-3.2401,-3.2874,-3.3302,-3.3707,-3.3807,-3.3807,-3.3807,-3.3807,-3.3807,-3.3807,-3.3807,-3.3807,-3.3807,-3.3807,-3.3807,-3.3807,-3.3807,-3.3807,-3.3807,-3.3807,-3.3807,-3.3807,-3.3807,-3.3807,-3.3807,-3.3807,-3.3807,-3.3807,-3.3807,-3.3807,-3.3807,-3.3807,-3.3876,-3.4056,-3.4277,-3.4574,-3.4954,-3.5339,-3.5446,0.0,-2.9367,-2.9598,-2.9171,-2.9377,-2.9652,-2.9474,-2.957,0.0,-2.9748,-2.9608,-2.9748,-3.0559,-3.0486,-3.0834,-3.2491,-3.4014,-3.5316,-3.6248,-3.7661,-3.8322,-3.7511,-3.5991,-3.4986,-3.4931,-3.4247,-3.3807,-3.3807,-3.3752,-3.3733,-3.3807,-3.3752,-3.3733,-3.3807,-3.3807,-3.3807,-3.3807,-3.3807,-3.3807,-3.3807,-3.3807,-3.3807,-3.3807,-3.3807,-3.3807,-3.3807,-3.3807,-3.3807,-3.3807,-3.3807,-3.3807,-3.3807,-3.3807,-3.3807,-3.3807,-3.3807,-3.3807,-3.3807,-3.378,-3.3508,-3.3199,-3.3139,-3.2516,-3.1716,-3.1312,-3.119,-3.119,-3.119,-3.119,-3.119,-3.119,-3.147,-3.1879,-3.235,-3.2809,-3.3258,-3.368,-3.3793,-3.3807,-3.3807,-3.3807,-3.3807,-3.3807,-3.3807,-3.3807,-3.3807,-3.3807,-3.3807,-3.3807,-3.3807,-3.3807,-3.3807,-3.3807,-3.3807,-3.3807,-3.3807,-3.3807,-3.3807,-3.3807,-3.3807,-3.3807,-3.3807,-3.3807,-3.3807,-3.3815,-3.3829,-3.3829,-3.4428,-3.4704,-3.4734,-3.5231,-3.5346,-2.9616,0.0,-2.9678,-2.9561,-2.9616,-2.9739,0.0,-2.9771,-2.9799,-3.0155,-3.0285,-3.0619,-3.1569,-3.1388,-3.1843,-3.4069,-3.4747,-3.5518,-3.7015,-3.7547,-3.7492,-3.667,-3.5646,-3.4766,-3.4137,-3.3917,-3.3807,-3.3807,-3.3238,-3.3146,-3.377,-3.322,-3.3151,-3.377,-3.3807,-3.3807,-3.3807,-3.3807,-3.3807,-3.3807,-3.3807,-3.3807,-3.3807,-3.3807,-3.3807,-3.3807,-3.3807,-3.3807,-3.3807,-3.3807,-3.3807,-3.3807,-3.3807,-3.3807,-3.3807,-3.3807,-3.3807,-3.3748,-3.3451,-3.3273,-3.3093,-3.2418,-3.2021,-3.1716,-3.1312,-3.119,-3.119,-3.119,-3.119,-3.119,-3.119,-3.1271,-3.1449,-3.1861,-3.2315,-3.2777,-3.3225,-3.3578,-3.3807,-3.3807,-3.3807,-3.3807,-3.3807,-3.3807,-3.3807,-3.3807,-3.3807,-3.3807,-3.3807,-3.3807,-3.3807,-3.3807,-3.3807,-3.3807,-3.3807,-3.3807,-3.3807,-3.3807,-3.3807,-3.3807,-3.3807,-3.3807,-3.3807,-3.3807,-3.3993,-3.4099,-3.4099,-3.4508,-3.4812,-3.5008,-3.5149,-3.5147,-3.0052,-3.0308,-3.0574,-3.0359,-3.046,-3.0601,-3.0597,-3.0304,-3.0099,-3.0349,-3.0587,-3.1014,-3.192,-3.2314,-3.3054,-3.4729,-3.5646,-3.6468,-3.7364,-3.6835,-3.6193,-3.5771,-3.4949,-3.427,-3.3844,-3.3807,-3.3807,-3.3807,-3.3041,-3.2784,-3.3238,-3.2485,-3.243,-3.322,-3.3256,-3.344,-3.3807,-3.3807,-3.3807,-3.3807,-3.3807,-3.3807,-3.3807,-3.3807,-3.3807,-3.3807,-3.3807,-3.3807,-3.3807,-3.3807,-3.3807,-3.3807,-3.3807,-3.3807,-3.3807,-3.3807,-3.3807,-3.3734,-3.3332,-3.2919,-3.245,-3.1786,-3.1562,-3.147,-3.1269,-3.119,-3.119,-3.119,-3.119,-3.119,-3.119,-3.119,-3.1351,-3.1968,-3.2316,-3.2681,-3.3332,-3.3652,-3.3807,-3.3807,-3.3807,-3.3807,-3.3807,-3.3807,-3.3807,-3.3807,-3.3807,-3.3807,-3.3807,-3.3807,-3.3807,-3.3807,-3.3807,-3.3807,-3.3807,-3.3807,-3.3807,-3.3807,-3.3807,-3.3807,-3.3807,-3.3807,-3.3807,-3.3807,-3.3935,-3.4006,-3.4006,-3.4311,-3.4624,-3.4917,-3.4917,-3.4917,-3.0558,-3.1193,-3.1666,-3.101,-3.1241,-3.1533,-3.1146,0.0,0.0,-3.0299,-3.0703,-3.1327,-3.2079,-3.3189,-3.4247,-3.5078,-3.6395,-3.7364,-3.7474,-3.6064,-3.5004,-3.5004,-3.4302,-3.3807,-3.3807,-3.3807,-3.3752,-3.3623,-3.2871,-3.2417,-3.2417,-3.1641,-3.1586,-3.2381,-3.2528,-3.2931,-3.3605,-3.3733,-3.3807,-3.3807,-3.3807,-3.3807,-3.3807,-3.3807,-3.3807,-3.3807,-3.3807,-3.3807,-3.3807,-3.3807,-3.3807,-3.3807,-3.3807,-3.3807,-3.3807,-3.3807,-3.3762,-3.3634,-3.3151,-3.2416,-3.1641,-3.131,-3.119,-3.119,-3.119,-3.119,-3.119,-3.119,-3.119,-3.119,-3.119,-3.119,-3.1406,-3.2127,-3.2401,-3.2713,-3.3447,-3.3707,-3.3807,-3.3807,-3.3807,-3.3807,-3.3807,-3.3807,-3.3807,-3.3807,-3.3807,-3.3807,-3.3807,-3.3807,-3.3807,-3.3807,-3.3807,-3.3807,-3.3807,-3.3807,-3.3807,-3.3807,-3.3807,-3.3807,-3.3807,-3.3807,-3.3807,-3.3807,-3.3807,-3.3807,-3.3807,-3.4031,-3.4311,-3.4614,-3.4614,-3.4614,-3.1288,-3.1928,-3.2012,-3.0529,-3.0761,-3.1108,-3.0166,-3.0169,-3.0286,0.0,-3.092,-3.2107,-3.2747,-3.3937,-3.5096,-3.5954,-3.6321,-3.6721,-3.7401,-3.6064,-3.5004,-3.5004,-3.4302,-3.3807,-3.3807,-3.3807,-3.3532,-3.2839,-3.2045,-3.1568,-3.1568,-3.0815,-3.0742,-3.1549,-3.2247,-3.2656,-3.2784,-3.3458,-3.3807,-3.3807,-3.3807,-3.3807,-3.3807,-3.3807,-3.3807,-3.3807,-3.3807,-3.3807,-3.3807,-3.3807,-3.3807,-3.3807,-3.3807,-3.3807,-3.3807,-3.3807,-3.3578,-3.3166,-3.2298,-3.1714,-3.1291,-3.123,-3.119,-3.119,-3.119,-3.119,-3.119,-3.119,-3.119,-3.119,-3.119,-3.119,-3.123,-3.1368,-3.195,-3.2534,-3.2681,-3.3284,-3.3807,-3.3807,-3.3807,-3.3807,-3.3807,-3.3807,-3.3807,-3.3807,-3.3807,-3.3807,-3.3807,-3.3807,-3.3807,-3.3807,-3.3807,-3.3807,-3.3807,-3.3807,-3.3807,-3.3807,-3.3807,-3.3807,-3.3807,-3.3807,-3.3807,-3.3807,-3.3807,-3.3807,-3.3807,-3.3842,-3.4012,-3.4288,-3.4288,-3.4288,-3.0885,-3.1312,-3.1459,-3.0682,-3.146,-3.2305,-3.1808,-3.1507,-3.1268,-3.1043,-3.1842,-3.266,-3.2955,-3.4484,-3.5973,-3.6813,-3.6593,-3.6266,-3.6156,-3.511,-3.4344,-3.4344,-3.4027,-3.3623,-3.3201,-3.3146,-3.2816,-3.2008,-3.1201,-3.0742,-3.0742,-2.9989,-2.9922,-3.0723,-3.1531,-3.2173,-3.2601,-3.3403,-3.3807,-3.3807,-3.3807,-3.3807,-3.3807,-3.3807,-3.3807,-3.3807,-3.3807,-3.3807,-3.3807,-3.3807,-3.3807,-3.3807,-3.3807,-3.3666,-3.3451,-3.3196,-3.2822,-3.2383,-3.1951,-3.1545,-3.119,-3.119,-3.119,-3.119,-3.119,-3.119,-3.119,-3.119,-3.119,-3.119,-3.119,-3.119,-3.1252,-3.147,-3.1842,-3.2179,-3.2451,-3.3011,-3.348,-3.348,-3.3652,-3.3807,-3.3807,-3.3807,-3.3807,-3.3807,-3.3807,-3.3807,-3.3807,-3.3807,-3.3807,-3.3807,-3.3807,-3.3807,-3.3807,-3.3807,-3.3807,-3.3807,-3.3807,-3.3807,-3.3807,-3.3807,-3.3807,-3.3807,-3.3807,-3.3807,-3.3807,-3.3807,-3.3935,-3.4188,-3.4056,-3.4068,-3.0346,-3.0647,-3.095,-3.1139,-3.1986,-3.2782,-3.2889,-3.2341,-3.1845,-3.1914,-3.2504,-3.2983,-3.2924,-3.4597,-3.6266,-3.7088,-3.6523,-3.5771,-3.5096,-3.4307,-3.3733,-3.3532,-3.3532,-3.3201,-3.2412,-3.232,-3.199,-3.1182,-3.0558,-3.0118,-2.9934,-2.9335,-2.928,-2.9898,-3.0705,-3.1513,-3.2307,-3.3128,-3.3605,-3.3807,-3.3807,-3.3807,-3.3807,-3.3807,-3.3807,-3.3807,-3.3807,-3.3807,-3.3807,-3.3807,-3.3807,-3.3775,-3.3694,-3.3404,-3.2983,-3.2517,-3.2109,-3.1789,-3.1696,-3.1468,-3.119,-3.119,-3.119,-3.119,-3.119,-3.119,-3.119,-3.119,-3.119,-3.119,-3.119,-3.119,-3.1271,-3.1584,-3.1734,-3.1915,-3.2401,-3.2874,-3.3229,-3.3317,-3.3578,-3.3807,-3.3807,-3.3807,-3.3807,-3.3807,-3.3807,-3.3807,-3.3807,-3.3807,-3.3807,-3.3807,-3.3807,-3.3807,-3.3807,-3.3807,-3.3807,-3.3807,-3.3807,-3.3807,-3.3807,-3.3807,-3.3807,-3.3807,-3.3807,-3.3807,-3.3807,-3.3807,-3.3935,-3.4188,-3.391,-3.3935,-3.0173,-3.0647,-3.1082,-3.1902,-3.1455,-3.0923,-3.1439,-3.1259,-3.1081,-3.1382,-3.2279,-3.2924,-3.2672,-3.3972,-3.5371,-3.6248,-3.5661,-3.5078,-3.5023,-3.4307,-3.3532,-3.2784,-3.2693,-3.2375,-3.1549,-3.1488,-3.1146,-3.0356,-3.0228,-2.9879,-2.9133,-2.9023,-2.9023,-2.9078,-2.9879,-3.0668,-3.1488,-3.2284,-3.3073,-3.3807,-3.3807,-3.3807,-3.3807,-3.3807,-3.3807,-3.3807,-3.3807,-3.3807,-3.3807,-3.3807,-3.3807,-3.3762,-3.3375,-3.2968,-3.2501,-3.2022,-3.1843,-3.1752,-3.137,-3.123,-3.119,-3.119,-3.119,-3.119,-3.119,-3.119,-3.119,-3.119,-3.119,-3.119,-3.119,-3.119,-3.121,-3.1249,-3.1545,-3.1915,-3.2401,-3.2874,-3.3302,-3.3694,-3.3793,-3.3807,-3.3807,-3.3807,-3.3807,-3.3807,-3.3807,-3.3807,-3.3807,-3.3807,-3.3807,-3.3807,-3.3807,-3.3807,-3.3807,-3.3807,-3.3807,-3.3807,-3.3807,-3.3807,-3.3807,-3.3807,-3.3807,-3.3807,-3.3807,-3.3807,-3.3807,-3.3807,-3.3935,-3.4188,-3.391,-3.3935,-2.9347,-3.0128,-3.0951,-3.1144,-3.1154,-3.1273,-3.1997,-3.2053,-3.2149,-3.2757,-3.3219,-3.3626,-3.4022,-3.4601,-3.5114,-3.5445,-3.4802,-3.4069,-3.3573,-3.2816,-3.2192,-3.188,-3.1843,-3.1531,-3.0723,-3.065,-3.032,-2.95,-2.9445,-2.9317,-2.9023,-2.9005,-2.9005,-2.9005,-2.9776,-3.0356,-3.065,-3.1439,-3.2265,-3.3073,-3.3568,-3.3807,-3.3807,-3.3807,-3.3807,-3.3807,-3.3807,-3.3807,-3.3807,-3.3807,-3.3648,-3.3346,-3.2614,-3.2213,-3.2004,-3.1584,-3.143,-3.1411,-3.1252,-3.119,-3.119,-3.119,-3.119,-3.119,-3.119,-3.119,-3.119,-3.119,-3.119,-3.119,-3.119,-3.119,-3.119,-3.119,-3.1329,-3.1487,-3.1657,-3.2265,-3.2809,-3.2965,-3.3433,-3.3807,-3.3807,-3.3807,-3.3807,-3.3807,-3.3807,-3.3807,-3.3807,-3.3807,-3.3807,-3.3807,-3.3807,-3.3807,-3.3807,-3.3807,-3.3807,-3.3807,-3.3807,-3.3807,-3.3807,-3.3807,-3.3807,-3.3807,-3.3807,-3.3807,-3.3807,-3.3807,-3.3855,-3.3948,-3.3855,-3.3855,-2.9131,-2.9977,-3.0827,-3.0953,-3.1004,-3.1292,-3.2362,-3.2601,-3.2821,-3.3623,-3.3807,-3.3972,-3.4509,-3.4417,-3.4252,-3.4252,-3.3568,-3.2852,-3.2302,-3.1751,-3.1323,-3.1048,-3.1029,-3.0705,-2.9898,-2.9824,-2.9592,-2.9042,-2.9005,-2.9005,-2.9005,-2.9005,-2.9005,-2.9005,-2.9537,-2.9953,-3.021,-3.0999,-3.1806,-3.2601,-3.3421,-3.3807,-3.3807,-3.3807,-3.3807,-3.3807,-3.3807,-3.3721,-3.3606,-3.3606,-3.327,-3.2679,-3.2057,-3.1716,-3.1584,-3.131,-3.119,-3.119,-3.119,-3.119,-3.119,-3.119,-3.119,-3.119,-3.119,-3.119,-3.119,-3.119,-3.119,-3.119,-3.119,-3.119,-3.119,-3.119,-3.119,-3.1288,-3.1562,-3.2074,-3.2583,-3.2856,-3.3386,-3.3807,-3.3807,-3.3807,-3.3807,-3.3807,-3.3807,-3.3807,-3.3807,-3.3807,-3.3807,-3.3807,-3.3807,-3.3807,-3.3807,-3.3807,-3.3807,-3.3807,-3.3807,-3.3807,-3.3807,-3.3807,-3.3807,-3.3807,-3.3807,-3.3807,-3.3807,-3.3807,-3.3842,-3.391,-3.3842,-3.3855,-2.9745,-3.03,-3.0788,-3.1589,-3.1004,-3.065,-3.2234,-3.2601,-3.2821,-3.3623,-3.377,-3.377,-3.377,-3.3128,-3.2583,-3.2583,-3.1916,-3.1397,-3.1397,-3.1378,-3.1085,-3.0283,-3.0191,-2.9879,-2.9078,-2.9005,-2.9005,-2.9005,-2.9005,-2.9005,-2.9005,-2.9005,-2.9005,-2.9005,-2.9005,-2.9372,-3.0173,-3.0993,-3.1788,-3.2601,-3.3403,-3.3788,-3.3807,-3.3807,-3.3807,-3.3807,-3.3807,-3.3564,-3.3199,-3.3199,-3.2631,-3.1807,-3.1807,-3.1547,-3.119,-3.119,-3.119,-3.119,-3.119,-3.119,-3.119,-3.119,-3.119,-3.119,-3.119,-3.119,-3.119,-3.119,-3.119,-3.119,-3.119,-3.119,-3.119,-3.119,-3.119,-3.1447,-3.2299,-3.2501,-3.2761,-3.362,-3.3807,-3.3807,-3.3807,-3.3807,-3.3807,-3.3807,-3.3807,-3.3807,-3.3807,-3.3807,-3.3807,-3.3807,-3.3807,-3.3807,-3.3807,-3.3807,-3.3807,-3.3807,-3.3807,-3.3807,-3.3807,-3.3807,-3.3807,-3.3807,-3.3807,-3.3807,-3.3807,-3.3807,-3.3954,-3.4188,-3.391,-3.3935,-2.9009,-2.9711,-3.0615,-3.0655,-3.1281,-3.2014,-3.2491,-3.2601,-3.2674,-3.2913,-3.2504,-3.21,-3.21,-3.1916,-3.1751,-3.1751,-3.1072,-3.0558,-3.0558,-3.0081,-2.961,-2.9372,-2.9354,-2.9262,-2.9023,-2.9005,-2.9005,-2.9005,-2.9005,-2.9005,-2.9005,-2.9005,-2.9005,-2.9005,-2.9005,-2.9115,-2.9354,-3.0155,-3.0962,-3.177,-3.2577,-3.3256,-3.3807,-3.3807,-3.3807,-3.3775,-3.3508,-3.3302,-3.3154,-3.2483,-3.2057,-3.1771,-3.1488,-3.131,-3.119,-3.119,-3.119,-3.119,-3.119,-3.119,-3.119,-3.119,-3.119,-3.119,-3.119,-3.119,-3.119,-3.119,-3.119,-3.119,-3.119,-3.119,-3.119,-3.119,-3.119,-3.1349,-3.1879,-3.2282,-3.2681,-3.3255,-3.3606,-3.3807,-3.3807,-3.3807,-3.3807,-3.3807,-3.3807,-3.3807,-3.3807,-3.3807,-3.3807,-3.3807,-3.3807,-3.3807,-3.3807,-3.3807,-3.3807,-3.3807,-3.3807,-3.3807,-3.3807,-3.3807,-3.3807,-3.3807,-3.3807,-3.3807,-3.3807,-3.3807,-3.3842,-3.3928,-3.3842,-3.3842,-2.9776,-3.0327,-3.1023,-3.1507,-3.2118,-3.2601,-3.2601,-3.2601,-3.2509,-3.2192,-3.1733,-3.1397,-3.1397,-3.114,-3.0907,-3.0907,-3.0246,-2.9721,-2.9721,-2.9317,-2.9005,-2.9005,-2.9005,-2.9005,-2.9005,-2.9005,-2.9005,-2.9005,-2.9005,-2.9005,-2.9005,-2.9005,-2.9005,-2.9005,-2.9005,-2.9005,-2.9005,-3.0118,-3.0907,-3.1415,-3.254,-3.333,-3.3788,-3.3476,-3.3495,-3.3762,-3.3181,-3.2809,-3.2582,-3.1843,-3.1547,-3.1545,-3.1291,-3.119,-3.119,-3.119,-3.119,-3.119,-3.119,-3.119,-3.119,-3.119,-3.119,-3.119,-3.119,-3.131,-3.1411,-3.1232,-3.1329,-3.1391,-3.1232,-3.1312,-3.1449,-3.1449,-3.1466,-3.1637,-3.223,-3.2565,-3.2903,-3.3346,-3.362,-3.3807,-3.3807,-3.3807,-3.3807,-3.3807,-3.3807,-3.3807,-3.3807,-3.3807,-3.3807,-3.3807,-3.3807,-3.3807,-3.3807,-3.3807,-3.3807,-3.3807,-3.3807,-3.3807,-3.3807,-3.3807,-3.3807,-3.3807,-3.3807,-3.3807,-3.3807,-3.3807,-3.3807,-3.3807,-3.3807,-3.3807,-3.1337,-3.1496,-3.169,-3.3293,-3.3146,-3.2564,-3.2399,-3.2381,-3.2161,-3.1439,-3.1231,-3.1182,-3.1182,-3.0577,-3.0099,-3.0099,-2.9482,-2.9005,-2.9005,-2.9005,-2.9005,-2.9005,-2.9005,-2.9005,-2.9005,-2.9005,-2.9005,-2.9005,-2.9005,-2.9005,-2.9005,-2.9005,-2.9005,-2.9005,-2.9005,-2.9005,-2.9005,-3.0522,-3.1286,-3.1323,-3.2852,-3.3587,-3.355,-3.2981,-3.307,-3.3634,-3.2809,-3.2161,-3.1733,-3.1351,-3.119,-3.119,-3.119,-3.119,-3.119,-3.119,-3.119,-3.119,-3.119,-3.119,-3.119,-3.119,-3.119,-3.119,-3.119,-3.1468,-3.166,-3.131,-3.1451,-3.166,-3.1291,-3.1507,-3.1825,-3.1844,-3.1914,-3.2179,-3.3014,-3.3199,-3.3317,-3.3721,-3.3807,-3.3807,-3.3807,-3.3807,-3.3807,-3.3807,-3.3807,-3.3807,-3.3807,-3.3807,-3.3825,-3.3899,-3.3844,-3.3825,-3.3899,-3.3844,-3.3807,-3.3807,-3.3807,-3.3807,-3.3807,-3.3807,-3.3807,-3.3807,-3.3807,-3.3807,-3.3807,-3.3807,-3.3807,-3.3807,-3.3807,-3.3807,-3.0835,-3.0664,-3.0834,-3.2454,-3.2729,-3.2271,-3.0999,-3.0723,-3.0668,-3.0485,-2.9971,-2.9519,-2.9519,-2.9372,-2.9262,-2.9262,-2.9115,-2.9005,-2.9005,-2.9005,-2.9005,-2.9005,-2.9005,-2.9005,-2.9005,-2.9005,-2.9005,-2.9005,-2.9005,-2.9005,-2.9005,-2.9005,-2.9005,-2.9005,-2.9005,-2.9005,-2.9005,-2.9971,-3.0467,-3.0467,-3.1439,-3.1929,-3.1935,-3.3036,-3.3269,-3.2761,-3.2196,-3.1715,-3.1312,-3.1249,-3.119,-3.119,-3.119,-3.119,-3.119,-3.119,-3.119,-3.119,-3.119,-3.119,-3.119,-3.119,-3.119,-3.119,-3.119,-3.1252,-3.131,-3.123,-3.1252,-3.131,-3.123,-3.1507,-3.188,-3.2247,-3.235,-3.2517,-3.3075,-3.3199,-3.3317,-3.3721,-3.3807,-3.3807,-3.3807,-3.3807,-3.3807,-3.3807,-3.3807,-3.3807,-3.3807,-3.3807,-3.4045,-3.4674,-3.4192,-3.4064,-3.4692,-3.4174,-3.3807,-3.3807,-3.3807,-3.3807,-3.3807,-3.3807,-3.3807,-3.3807,-3.3807,-3.3807,-3.3807,-3.3807,-3.3807,-3.3807,-3.3807,-3.3807,-3.104,-3.0979,-3.1072,-3.2289,-3.2601,-3.2179,-3.0577,-3.021,-3.0099,-2.9702,-2.9299,-2.9005,-2.9005,-2.9005,-2.9005,-2.9005,-2.9005,-2.9005,-2.9005,-2.9005,-2.9005,-2.9005,-2.9005,-2.9005,-2.9005,-2.9005,-2.9005,-2.9005,-2.9005,-2.9005,-2.9005,-2.9005,-2.9005,-2.9005,-2.9005,-2.9005,-2.9005,-2.9794,-3.021,-3.021,-3.1029,-3.1309,-3.1203,-3.2042,-3.1912,-3.1076,-3.122,-3.124,-3.119,-3.119,-3.119,-3.119,-3.119,-3.119,-3.119,-3.119,-3.1312,-3.1451,-3.1271,-3.1329,-3.1468,-3.1252,-3.119,-3.119,-3.119,-3.1332,-3.1449,-3.1252,-3.1332,-3.1488,-3.1488,-3.1806,-3.2247,-3.2729,-3.2842,-3.295,-3.339,-3.3494,-3.355,-3.3762,-3.3807,-3.3807,-3.3807,-3.3807,-3.3807,-3.3807,-3.3807,-3.3807,-3.3807,-3.3807,-3.4119,-3.4912,-3.4619,-3.4711,-3.5555,-3.4857,-3.4362,-3.4362,-3.4009,-3.3807,-3.3807,-3.3807,-3.3807,-3.3807,-3.3807,-3.3807,-3.3807,-3.3807,-3.3807,-3.3807,-3.3807,-3.3807,-3.1264,-3.1607,-3.1733,-3.2265,-3.2381,-3.1959,-3.0363,-2.9989,-2.9794,-2.9133,-2.9005,-2.9005,-2.9005,-2.9005,-2.9005,-2.9005,-2.9005,-2.9005,-2.9005,-2.9005,-2.9005,-2.9005,-2.9005,-2.9005,-2.9005,-2.9005,-2.9005,-2.9005,-2.9005,-2.9005,-2.9005,-2.9005,-2.9005,-2.9005,-2.9005,-2.9005,-2.9005,-2.9647,-2.9989,-2.9996,-3.0601,-3.0722,-3.0386,-3.0386,-3.0074,-2.9574,-3.0283,-3.0755,-3.1021,-3.114,-3.119,-3.119,-3.119,-3.119,-3.121,-3.1271,-3.1507,-3.1752,-3.1507,-3.164,-3.1861,-3.1526,-3.1428,-3.1428,-3.1428,-3.1658,-3.1843,-3.1524,-3.1658,-3.1915,-3.1915,-3.2264,-3.2713,-3.3124,-3.3258,-3.339,-3.3721,-3.3807,-3.3807,-3.3807,-3.3807,-3.3807,-3.3807,-3.3807,-3.3844,-3.399,-3.4009,-3.4009,-3.4009,-3.4009,-3.4321,-3.5133,-3.5096,-3.5408,-3.6413,-3.5573,-3.5004,-3.5004,-3.4234,-3.3807,-3.3807,-3.3807,-3.3807,-3.3807,-3.3807,-3.3807,-3.3807,-3.3807,-3.3807,-3.3807,-3.3807,-3.3807,-3.0616,-3.1577,-3.2302,-3.1715,-3.1549,-3.1127,-2.9537,-2.9152,-2.9133,-2.9023,-2.9005,-2.9005,-2.9005,-2.9005,-2.9005,-2.9005,-2.9005,-2.9005,-2.9005,-2.9005,-2.9005,-2.9005,-2.9005,-2.9005,-2.9005,-2.9005,-2.9005,-2.9005,-2.9005,-2.9005,-2.9005,-2.9005,-2.9005,-2.9005,-2.9005,-2.9005,-2.9005,-2.9115,-2.9152,-2.917,-2.893,-2.864,-2.8301,-2.8301,-2.876,-2.9607,-3.0014,-3.0215,-3.0311,-3.0937,-3.119,-3.119,-3.119,-3.119,-3.1232,-3.1584,-3.1752,-3.1861,-3.2213,-3.2367,-3.2401,-3.235,-3.2333,-3.2333,-3.2333,-3.2367,-3.2401,-3.2333,-3.2367,-3.2417,-3.2417,-3.2745,-3.3105,-3.3184,-3.3465,-3.3734,-3.3793,-3.3807,-3.3807,-3.3807,-3.3807,-3.3807,-3.3807,-3.3807,-3.4045,-3.4729,-3.4839,-3.4839,-3.4839,-3.4839,-3.5169,-3.6028,-3.5445,-3.5628,-3.7217,-3.5885,-3.5004,-3.5004,-3.4234,-3.3807,-3.3807,-3.3807,-3.3807,-3.3807,-3.3807,-3.3807,-3.3807,-3.3807,-3.3807,-3.3807,-3.3807,-3.3807,-3.1046,-3.2027,-3.2705,-3.2193,-3.1733,-3.1103,-2.9953,-2.9317,-2.9005,-2.9005,-2.9005,-2.9005,-2.9005,-2.9005,-2.9005,-2.9005,-2.9005,-2.9005,-2.9005,-2.9005,-2.9005,-2.9005,-2.9005,-2.9005,-2.9005,-2.9005,-2.9005,-2.9005,-2.9005,-2.9005,-2.9005,-2.9005,-2.9005,-2.9005,-2.9005,-2.9005,-2.9005,-2.8773,-2.857,-2.8391,-2.7992,-2.7819,-2.7883,-2.7424,-2.7845,-2.895,-2.9076,-2.9276,-2.9533,-3.0277,-3.0581,-3.0632,-3.1038,-3.119,-3.1249,-3.1641,-3.1968,-3.2213,-3.2434,-3.2665,-3.284,-3.2583,-3.2501,-3.2501,-3.2501,-3.2501,-3.2501,-3.2501,-3.2501,-3.2567,-3.2809,-3.3045,-3.3258,-3.3494,-3.368,-3.3807,-3.3807,-3.3807,-3.3807,-3.3807,-3.3807,-3.3807,-3.3807,-3.3807,-3.3917,-3.427,-3.4711,-3.5004,-3.5004,-3.5426,-3.6046,-3.6886,-3.6633,-3.6872,-3.8065,-3.7074,-3.6395,-3.6395,-3.5642,-3.4981,-3.4491,-3.4472,-3.4266,-3.3807,-3.3807,-3.3807,-3.3807,-3.3807,-3.3807,-3.3807,-3.3807,-3.3807,-3.1374,-3.2224,-3.2728,-3.2453,-3.2097,-3.1587,-3.0711,-3.0044,-2.9537,-2.9354,-2.9299,-2.9244,-2.9042,-2.9005,-2.9005,-2.9005,-2.9005,-2.9005,-2.9005,-2.9005,-2.9005,-2.9005,-2.9005,-2.9005,-2.9005,-2.9005,-2.9005,-2.9005,-2.9005,-2.9005,-2.9005,-2.9005,-2.9005,-2.9005,-2.9005,-2.894,-2.8851,-2.8476,-2.8102,-2.7754,-2.7562,-2.7604,-2.7883,-2.7288,-2.7473,-2.8281,-2.8246,-2.8425,-2.8738,-2.9516,-2.982,-2.9907,-3.0751,-3.1062,-3.1155,-3.1899,-3.2383,-3.2697,-3.2793,-3.306,-3.3302,-3.2934,-3.284,-3.284,-3.284,-3.284,-3.284,-3.284,-3.284,-3.2903,-3.3273,-3.3346,-3.3437,-3.3721,-3.3807,-3.3807,-3.3807,-3.3807,-3.3807,-3.3807,-3.3807,-3.3807,-3.3807,-3.3807,-3.3935,-3.4376,-3.4963,-3.5408,-3.561,-3.6193,-3.6831,-3.7437,-3.7492,-3.7841,-3.8634,-3.797,-3.7492,-3.7492,-3.6725,-3.5917,-3.5041,-3.5004,-3.4619,-3.3825,-3.3807,-3.3807,-3.3807,-3.3807,-3.3807,-3.3807,-3.3807,-3.3807,-3.1085,-3.1772,-3.2174,-3.1904,-3.2378,-3.2637,-3.1581,-3.1323,-3.1054,-3.0283,-3.0136,-2.9898,-2.9133,-2.9005,-2.9005,-2.9005,-2.9005,-2.9005,-2.9005,-2.9005,-2.9005,-2.9005,-2.9005,-2.9005,-2.9005,-2.9005,-2.9005,-2.9005,-2.9005,-2.9005,-2.9005,-2.9005,-2.9005,-2.9005,-2.9005,-2.8827,-2.8433,-2.8088,-2.7739,-2.735,-2.771,-2.7883,-2.7897,-2.7855,-2.7872,-2.7914,-2.7858,-2.7841,-2.7925,-2.8721,-2.9061,-2.9183,-3.0299,-3.0733,-3.0924,-3.2523,-3.3136,-3.3229,-3.3592,-3.3748,-3.3762,-3.3734,-3.3734,-3.3734,-3.3734,-3.3734,-3.3734,-3.3734,-3.3734,-3.3734,-3.3762,-3.3762,-3.3762,-3.3807,-3.3807,-3.3807,-3.3807,-3.3807,-3.3807,-3.3807,-3.3807,-3.3807,-3.3807,-3.3807,-3.4339,-3.5936,-3.6211,-3.6505,-3.7272,-3.7419,-3.7456,-3.7492,-3.7492,-3.7841,-3.8634,-3.797,-3.7492,-3.7492,-3.6725,-3.5917,-3.5041,-3.5004,-3.4619,-3.3825,-3.3807,-3.3807,-3.3807,-3.3807,-3.3807,-3.3807,-3.3807,-3.3807,-3.1108,-3.1453,-3.1686,-3.1919,-3.211,-3.2125,-3.1744,-3.1513,-3.1176,-3.0375,-3.021,-2.9941,-2.9152,-2.9005,-2.9005,-2.9005,-2.9005,-2.9005,-2.9005,-2.9005,-2.9005,-2.9005,-2.9005,-2.9005,-2.9005,-2.9005,-2.9005,-2.9005,-2.9005,-2.9005,-2.9005,-2.9005,-2.8875,-2.8615,-2.8602,-2.8329,-2.7704,-2.7823,-2.7692,-2.7301,-2.7707,-2.8006,-2.8192,-2.7736,-2.7666,-2.7872,-2.7327,-2.7097,-2.7165,-2.7926,-2.823,-2.8383,-2.9769,-3.0468,-3.0872,-3.2233,-3.2952,-3.3258,-3.3666,-3.3807,-3.3807,-3.3807,-3.3807,-3.3807,-3.3807,-3.3807,-3.3807,-3.3807,-3.3807,-3.3807,-3.3807,-3.3807,-3.3807,-3.3807,-3.3807,-3.3807,-3.3807,-3.3807,-3.3807,-3.3807,-3.3807,-3.3807,-3.3807,-3.3807,-3.4174,-3.5298,-3.5936,-3.6578,-3.7401,-3.7936,-3.8267,-3.8267,-3.8267,-3.8395,-3.8689,-3.8432,-3.8267,-3.8267,-3.7529,-3.6688,-3.5881,-3.5298,-3.4619,-3.3825,-3.3807,-3.3807,-3.3807,-3.3807,-3.3807,-3.3807,-3.3807,-3.3807,-3.0884,-3.1212,-3.1569,-3.2103,-3.2138,-3.2139,-3.2508,-3.2258,-3.1765,-3.1121,-3.0797,-3.0356,-2.9537,-2.9189,-2.9005,-2.9005,-2.9005,-2.9005,-2.9005,-2.9005,-2.9005,-2.9005,-2.9005,-2.9005,-2.9005,-2.9005,-2.9005,-2.9005,-2.9005,-2.894,-2.8815,-2.8797,-2.862,-2.825,-2.8098,-2.7862,-2.75,-2.7634,-2.7619,-2.7517,-2.7894,-2.8183,-2.8381,-2.7794,-2.7651,-2.7855,-2.7051,-2.6691,-2.6725,-2.7232,-2.7435,-2.7588,-2.9161,-2.992,-3.0357,-3.1945,-3.2724,-3.3073,-3.3616,-3.3807,-3.3807,-3.3807,-3.3807,-3.3807,-3.3807,-3.3807,-3.3807,-3.3807,-3.3807,-3.3807,-3.3807,-3.3807,-3.3807,-3.3807,-3.3807,-3.3807,-3.3807,-3.3807,-3.3807,-3.3807,-3.3807,-3.3807,-3.3807,-3.3807,-3.4174,-3.5261,-3.5665,-3.6266,-3.7364,-3.797,-3.8303,-3.8303,-3.8542,-3.8707,-3.8707,-3.845,-3.8303,-3.8303,-3.7547,-3.6725,-3.5899,-3.5316,-3.4619,-3.3825,-3.3807,-3.3807,-3.3807,-3.3807,-3.3807,-3.3807,-3.3807,-3.3807,0.0,0.0,0.0,-3.2302,-3.2457,-3.2752,-3.3863,-3.3517,-3.2899,-3.2636,-3.196,-3.117,-3.035,-2.9567,-2.9023,-2.9005,-2.9005,-2.9005,-2.9005,-2.9005,-2.9005,-2.9005,-2.9005,-2.9005,-2.9005,-2.9005,-2.9005,-2.9005,-2.9005,-2.8827,-2.842,-2.8381,-2.8224,-2.7897,-2.7485,-2.747,-2.7869,-2.7485,-2.75,-2.7911,-2.825,-2.8407,-2.8407,-2.8061,-2.7897,-2.7855,-2.7051,-2.6725,-2.6708,-2.6708,-2.6691,-2.6859,-2.8461,-2.9074,-2.9386,-3.1687,-3.257,-3.2711,-3.3495,-3.377,-3.3807,-3.3807,-3.3807,-3.3807,-3.3807,-3.3807,-3.3807,-3.3807,-3.3807,-3.3807,-3.3807,-3.3807,-3.3807,-3.3807,-3.3807,-3.3807,-3.3807,-3.3807,-3.3807,-3.3807,-3.3807,-3.3807,-3.3807,-3.3825,-3.4394,-3.6046,-3.5591,-3.5665,-3.7327,-3.7511,-3.7492,-3.7492,-3.8193,-3.867,-3.867,-3.7936,-3.7492,-3.7492,-3.6721,-3.5881,-3.5041,-3.4986,-3.4601,-3.3825,-3.3807,-3.3807,-3.3807,-3.3807,-3.3807,-3.3807,-3.3807,-3.3807,-3.0404,0.0,0.0,0.0,0.0,0.0,-3.2027,-3.2232,-3.2328,-3.2325,-3.1986,-3.144,-3.0638,-3.0153,-2.9684,-2.9097,-2.9005,-2.9005,-2.9005,-2.9005,-2.9005,-2.9005,-2.9005,-2.9005,-2.9005,-2.9005,-2.9005,-2.9005,-2.9005,-2.8827,-2.842,-2.7886,-2.7557,-2.747,-2.7067,-2.6923,-2.7019,-2.721,-2.75,-2.7911,-2.825,-2.8552,-2.8815,-2.8188,-2.7897,-2.7869,-2.7365,-2.7131,-2.7115,-2.6808,-2.6691,-2.6826,-2.8103,-2.8789,-2.9272,-3.0756,-3.1846,-3.2619,-3.2839,-3.3311,-3.3807,-3.3807,-3.3807,-3.3807,-3.3807,-3.3807,-3.3807,-3.3807,-3.3807,-3.3807,-3.3807,-3.3807,-3.3807,-3.3807,-3.3807,-3.3807,-3.3807,-3.3807,-3.3807,-3.3807,-3.3807,-3.3807,-3.3807,-3.427,-3.5041,-3.6138,-3.6578,-3.7184,-3.823,-3.786,-3.7492,-3.7492,-3.7694,-3.7841,-3.7841,-3.7621,-3.7492,-3.7492,-3.6156,-3.5261,-3.5023,-3.4435,-3.4027,-3.3807,-3.3807,-3.3807,-3.3807,-3.3807,-3.3807,-3.3807,-3.3807,-3.3807,-3.05,-3.0404,-3.0481,-3.0846,0.0,0.0,-3.1665,-3.1784,-3.1946,-3.2562,-3.2322,-3.1921,-3.1793,-3.1379,-3.0846,-3.0257,-3.0161,-3.0005,-2.9561,-2.9207,-2.9115,-2.9464,-2.95,-2.9372,-2.9023,-2.9299,-2.9354,-2.9023,-2.8839,-2.8515,-2.7974,-2.7361,-2.7051,-2.7051,-2.6808,-2.6791,-2.6955,-2.7194,-2.75,-2.7911,-2.8102,-2.8321,-2.852,-2.8093,-2.7897,-2.7883,-2.7648,-2.7545,-2.753,-2.7303,-2.721,-2.7276,-2.8095,-2.8563,-2.8953,-3.0125,-3.1211,-3.2155,-3.2472,-3.3115,-3.3807,-3.3807,-3.3807,-3.3807,-3.3807,-3.3807,-3.3807,-3.3807,-3.3807,-3.3807,-3.3807,-3.3807,-3.3807,-3.3807,-3.3807,-3.3807,-3.3807,-3.3807,-3.3807,-3.3807,-3.3807,-3.3807,-3.3807,-3.4192,-3.4784,-3.5642,-3.6156,-3.6762,-3.7588,-3.7584,-3.7492,-3.7492,-3.7492,-3.7492,-3.7492,-3.6868,-3.6468,-3.6468,-3.5238,-3.4491,-3.4491,-3.4045,-3.3807,-3.3807,-3.3807,-3.3807,-3.3807,-3.3807,-3.3807,-3.3807,-3.3807,-3.3807,-3.0885,-3.0673,-3.0846,-3.1525,-3.1173,0.0,-3.2012,-3.1794,-3.1694,-3.2949,-3.2628,-3.2326,-3.3025,-3.2647,-3.2062,-3.1634,-3.1702,-3.1459,-3.0478,-2.9721,-2.9537,-3.0246,-3.0338,-3.0026,-2.9207,-2.9776,-2.9879,-2.906,-2.8577,-2.8043,-2.7332,-2.6923,-2.6691,-2.6691,-2.6691,-2.6873,-2.7241,-2.7224,-2.7441,-2.784,-2.7883,-2.7926,-2.7968,-2.7968,-2.7968,-2.7968,-2.7968,-2.7968,-2.7968,-2.801,-2.7968,-2.794,-2.8277,-2.8407,-2.8549,-2.9649,-3.0632,-3.1507,-3.2228,-3.3054,-3.3807,-3.3807,-3.3807,-3.3807,-3.3807,-3.3807,-3.3807,-3.3807,-3.3807,-3.3807,-3.3807,-3.3807,-3.3807,-3.3807,-3.3807,-3.3807,-3.3807,-3.3807,-3.3807,-3.3807,-3.3807,-3.3807,-3.3807,-3.3862,-3.4192,-3.4894,-3.5078,-3.5426,-3.6193,-3.6923,-3.7327,-3.7235,-3.7309,-3.7327,-3.7235,-3.5862,-3.5004,-3.5004,-3.4234,-3.3807,-3.3807,-3.3807,-3.3807,-3.3807,-3.3807,-3.3807,-3.3807,-3.3807,-3.3807,-3.3807,-3.3807,-3.3807,-3.2468,-3.241,-3.2295,-3.1814,-3.2064,0.0,-3.1053,-3.1239,-3.1706,-3.1979,-3.1741,-3.151,-3.1675,-3.1989,-3.1751,-3.0348,-3.1058,-3.1645,-3.1244,-3.1017,-3.0993,-3.1146,-3.1176,-3.0852,-3.0044,-3.0118,-2.9879,-2.906,-2.8391,-2.7794,-2.7317,-2.6923,-2.6691,-2.6691,-2.6691,-2.6741,-2.6825,-2.6825,-2.7019,-2.7409,-2.7754,-2.8034,-2.8298,-2.8298,-2.8298,-2.8298,-2.8298,-2.8298,-2.8329,-2.8651,-2.8443,-2.794,-2.8277,-2.8407,-2.8464,-2.9034,-3.0155,-3.1415,-3.158,-3.2577,-3.3807,-3.3807,-3.3807,-3.3807,-3.3807,-3.3807,-3.3807,-3.3807,-3.3807,-3.3807,-3.3807,-3.3807,-3.3807,-3.3807,-3.3807,-3.3807,-3.3807,-3.3807,-3.3807,-3.3807,-3.3807,-3.3807,-3.3807,-3.4325,-3.4821,-3.4986,-3.5591,-3.6101,-3.6266,-3.6431,-3.6266,-3.5555,-3.6119,-3.6248,-3.5555,-3.5188,-3.5004,-3.5004,-3.4234,-3.3807,-3.3807,-3.3807,-3.3807,-3.3807,-3.3807,-3.3807,-3.3807,-3.3807,-3.3807,-3.3807,-3.3807,-3.3807,-3.2458,-3.2345,-3.2366,-3.2435,-3.2401,0.0,0.0,-3.1064,-3.1173,-3.1621,-3.1584,-3.1613,-3.2016,-3.2359,-3.2232,-3.1254,-3.2041,-3.256,-3.1856,-3.1542,-3.1562,-3.1953,-3.2008,-3.1678,-3.087,-3.1164,-3.0903,-2.9683,-2.8923,-2.8228,-2.7568,-2.7012,-2.6691,-2.6691,-2.6691,-2.6691,-2.6691,-2.6691,-2.6906,-2.7303,-2.75,-2.7794,-2.8156,-2.8311,-2.8407,-2.842,-2.8602,-2.8694,-2.8707,-2.8917,-2.8779,-2.8469,-2.8633,-2.8694,-2.8719,-2.8929,-2.9769,-3.0797,-3.0797,-3.1861,-3.3201,-3.3201,-3.3476,-3.3807,-3.3807,-3.3807,-3.3807,-3.3807,-3.3807,-3.3807,-3.3807,-3.3807,-3.3807,-3.3807,-3.3807,-3.3807,-3.3807,-3.3807,-3.3807,-3.3807,-3.3807,-3.3807,-3.3807,-3.4137,-3.4399,-3.4399,-3.5114,-3.5646,-3.5646,-3.6028,-3.6138,-3.5697,-3.5646,-3.5463,-3.5041,-3.4637,-3.4399,-3.4399,-3.4027,-3.3807,-3.3807,-3.3807,-3.3807,-3.3807,-3.3807,-3.3807,-3.3807,-3.3807,-3.3807,-3.3807,-3.3807,-3.3807,-3.2188,-3.204,-3.2217,-3.2801,-3.2511,-3.198,0.0,0.0,0.0,-3.1375,-3.1491,-3.1678,-3.2324,-3.2568,-3.2551,-3.2168,-3.2909,-3.3162,-3.2108,-3.1699,-3.182,-3.2593,-3.2768,-3.2522,-3.1715,-3.2082,-3.1774,-3.0313,-2.9644,-2.887,-2.7859,-2.7249,-2.6843,-2.6691,-2.6691,-2.6691,-2.6691,-2.6775,-2.6988,-2.7303,-2.7439,-2.7692,-2.8006,-2.8355,-2.8527,-2.854,-2.8863,-2.9005,-2.9005,-2.9005,-2.9005,-2.9005,-2.9005,-2.9005,-2.9005,-2.9005,-2.95,-3.0228,-3.0375,-3.1384,-3.2619,-3.2784,-3.3275,-3.3807,-3.3807,-3.3807,-3.3807,-3.3807,-3.3807,-3.3807,-3.3807,-3.3807,-3.3807,-3.3807,-3.3807,-3.3807,-3.3807,-3.3807,-3.3807,-3.3807,-3.3807,-3.3807,-3.3807,-3.3807,-3.3807,-3.3807,-3.4344,-3.4766,-3.4766,-3.5532,-3.5991,-3.5844,-3.5334,-3.4949,-3.4784,-3.416,-3.3807,-3.3807,-3.3807,-3.3807,-3.3807,-3.3807,-3.3807,-3.3807,-3.3807,-3.3807,-3.3807,-3.3807,-3.3807,-3.3807,-3.3807,-3.3807,-3.29,-3.2943,-3.2875,-3.2211,-3.2555,-3.2642,-3.1096,0.0,-3.1543,-3.0866,0.0,-3.0726,-3.077,0.0,0.0,-3.0782,-3.1769,-3.2346,-3.1507,-3.1759,-3.2239,-3.2883,-3.3375,-3.3348,-3.2528,-3.1898,-3.1156,-3.0277,-3.0128,-2.9416,-2.7893,-2.7722,-2.7367,-2.6708,-2.6691,-2.6691,-2.6691,-2.7051,-2.7239,-2.7319,-2.7956,-2.8298,-2.8368,-2.8749,-2.8929,-2.8929,-2.8982,-2.9005,-2.9005,-2.9005,-2.9005,-2.9005,-2.9005,-2.9005,-2.9005,-2.9005,-2.95,-3.0301,-3.1029,-3.1843,-3.2711,-3.344,-3.3733,-3.3807,-3.3807,-3.3807,-3.3807,-3.3807,-3.3807,-3.3807,-3.3807,-3.3807,-3.3807,-3.3807,-3.3807,-3.3807,-3.3807,-3.3807,-3.3807,-3.3807,-3.3807,-3.3807,-3.3807,-3.3807,-3.3807,-3.3807,-3.388,-3.3935,-3.3935,-3.4637,-3.4876,-3.4156,-3.4619,-3.4711,-3.4009,-3.3844,-3.3807,-3.3807,-3.3807,-3.3807,-3.3807,-3.3807,-3.3807,-3.3807,-3.3807,-3.3807,-3.3807,-3.3807,-3.3807,-3.3807,-3.3807,-3.3807,-3.2357,-3.2405,-3.2494,-3.2719,-3.261,-3.2252,-3.1575,-3.1278,-3.1047,-3.0681,0.0,0.0,0.0,0.0,0.0,0.0,-3.1383,-3.1788,-3.0899,-3.166,-3.2363,-3.2468,-3.2571,-3.2631,-3.2608,-3.2302,-3.2055,-3.1945,-3.1112,-3.0285,-2.9506,-2.8681,-2.7947,-2.7368,-2.6911,-2.6808,-2.7035,-2.7225,-2.7512,-2.7946,-2.8246,-2.8527,-2.8761,-2.8929,-2.9005,-2.9005,-2.9005,-2.9005,-2.9005,-2.9005,-2.9005,-2.9005,-2.9005,-2.9005,-2.9005,-2.9005,-2.9207,-2.9537,-2.9886,-3.054,-3.1421,-3.2693,-3.3421,-3.3807,-3.3807,-3.3807,-3.3807,-3.3807,-3.3807,-3.3807,-3.3807,-3.3807,-3.3807,-3.3807,-3.3807,-3.3807,-3.3807,-3.3807,-3.3807,-3.3807,-3.3807,-3.3807,-3.3807,-3.3807,-3.3807,-3.3807,-3.3807,-3.3807,-3.3807,-3.41,-3.416,-3.3844,-3.41,-3.4174,-3.3825,-3.3807,-3.3807,-3.3807,-3.3807,-3.3807,-3.3807,-3.3807,-3.3807,-3.3807,-3.3807,-3.3807,-3.3807,-3.3807,-3.3807,-3.3807,-3.3807,-3.3807,-3.156,-3.1607,-3.1794,-3.2537,-3.2172,-3.1648,-3.1699,-3.1177,-3.0681,-3.0681,-3.0681,0.0,0.0,0.0,-3.0611,-3.0541,0.0,-3.1202,-3.0521,-3.1296,-3.1897,-3.189,-3.1869,-3.2099,-3.2662,-3.2508,-3.2617,-3.3171,-3.1953,-3.1103,-3.0903,-2.9682,-2.8671,-2.8015,-2.7266,-2.7003,-2.7303,-2.7409,-2.7776,-2.8407,-2.8515,-2.8725,-2.9005,-2.9005,-2.9005,-2.9005,-2.9005,-2.9005,-2.9005,-2.9005,-2.9005,-2.9005,-2.9005,-2.9005,-2.9005,-2.9005,-2.9005,-2.9023,-2.9244,-2.9849,-3.076,-3.2142,-3.2999,-3.3513,-3.3733,-3.3807,-3.3807,-3.3807,-3.3807,-3.3807,-3.3807,-3.3807,-3.3807,-3.3807,-3.3807,-3.3807,-3.3807,-3.3807,-3.3807,-3.3807,-3.3807,-3.3807,-3.3807,-3.3807,-3.3807,-3.3807,-3.3807,-3.3807,-3.3807,-3.3807,-3.3807,-3.3807,-3.3807,-3.3807,-3.3807,-3.3807,-3.3807,-3.3807,-3.3807,-3.3807,-3.3807,-3.3807,-3.3807,-3.3807,-3.3807,-3.3807,-3.3807,-3.3807,-3.3807,-3.3807,-3.3807,-3.3807,-3.0732,-3.0831,-3.0937,-3.0976,-3.0957,-3.0937,-3.0937,-3.0918,-3.0898,-3.0898,-3.0898,-3.0857,-3.072,-3.0693,-3.0679,-3.0614,-3.0568,0.0,0.0,-3.0474,-3.067,-3.1249,-3.1785,-3.2338,-3.2936,-3.2292,-3.2213,-3.3132,-3.2426,-3.1781,-3.1397,-3.0588,-2.9642,-2.8512,-2.7702,-2.7288,-2.7303,-2.7695,-2.8061,-2.8389,-2.8785,-2.8994,-2.9005,-2.9005,-2.9005,-2.9005,-2.9005,-2.9005,-2.9005,-2.9005,-2.9005,-2.9005,-2.9005,-2.9005,-2.9005,-2.9005,-2.9005,-2.9115,-2.9886,-3.0687,-3.1507,-3.2326,-3.2619,-3.2784,-3.3568,-3.3807,-3.3807,-3.3807,-3.3807,-3.3807,-3.3807,-3.3807,-3.3807,-3.3807,-3.3807,-3.3807,-3.3807,-3.3807,-3.3807,-3.3807,-3.3807,-3.3807,-3.3807,-3.3807,-3.3807,-3.3807,-3.3807,-3.3807,-3.3807,-3.3807,-3.3807,-3.3807,-3.3807,-3.3807,-3.3807,-3.3807,-3.3807,-3.3807,-3.3807,-3.3807,-3.3807,-3.3807,-3.3807,-3.3807,-3.3807,-3.3807,-3.3807,-3.3807,-3.3807,-3.3807,-3.3807,-3.3807,-3.0695,-3.0723,-3.0793,-3.0879,-3.0837,-3.0793,-3.0879,-3.0898,-3.0898,-3.0898,-3.0898,-3.0898,-3.0838,-3.0837,-3.0792,-3.0679,-3.0657,-3.0609,0.0,-3.0441,-3.0476,-3.0682,-3.1219,-3.1523,-3.1416,-3.116,-3.1513,-3.2725,-3.2064,-3.1897,-3.2565,-3.1368,-3.0213,-2.9258,-2.8224,-2.771,-2.771,-2.8061,-2.8425,-2.8797,-2.8929,-2.9005,-2.9005,-2.9005,-2.9005,-2.9005,-2.9005,-2.9005,-2.9005,-2.9005,-2.9005,-2.9005,-2.9005,-2.9005,-2.9005,-2.9005,-2.9005,-2.9042,-2.9317,-2.9934,-3.0742,-3.1531,-3.2173,-3.2748,-3.3568,-3.3807,-3.3807,-3.3807,-3.3807,-3.3807,-3.3807,-3.3807,-3.3807,-3.3807,-3.3807,-3.3807,-3.3807,-3.3807,-3.3807,-3.3807,-3.3807,-3.3807,-3.3807,-3.3807,-3.3807,-3.3807,-3.3807,-3.3807,-3.3807,-3.3807,-3.3807,-3.3807,-3.3807,-3.3807,-3.3807,-3.3807,-3.3807,-3.3807,-3.3807,-3.3807,-3.3807,-3.3807,-3.3807,-3.3807,-3.3807,-3.3807,-3.3807,-3.3807,-3.3807,-3.3807,-3.3807,-3.3807,-3.0768,-3.077,-3.0793,-3.0879,-3.0837,-3.0793,-3.0879,-3.0898,-3.0898,-3.0898,-3.0898,-3.0898,-3.0898,-3.0898,-3.0878,-3.0792,-3.0722,-3.0642,0.0,-3.0467,-3.0428,-3.039,-3.0739,-3.1015,-3.1115,-3.0616,-3.1038,-3.2897,-3.2008,-3.1992,-3.3346,-3.2201,-3.1052,-3.009,-2.9047,-2.8374,-2.8075,-2.8303,-2.859,-2.9005,-2.9005,-2.9005,-2.9005,-2.9005,-2.9005,-2.9005,-2.9005,-2.9005,-2.9005,-2.9005,-2.9005,-2.9005,-2.9005,-2.9005,-2.9005,-2.9005,-2.9005,-2.9005,-2.9005,-2.9335,-2.9916,-3.0705,-3.1329,-3.1898,-3.2706,-3.3146,-3.3366,-3.3366,-3.3587,-3.3807,-3.3807,-3.3807,-3.3807,-3.3807,-3.3807,-3.3807,-3.3807,-3.3807,-3.3807,-3.3807,-3.3807,-3.3807,-3.3807,-3.3807,-3.3807,-3.3807,-3.3807,-3.3807,-3.3807,-3.3807,-3.3807,-3.3807,-3.3807,-3.3807,-3.3807,-3.3807,-3.3807,-3.3807,-3.3807,-3.3807,-3.3807,-3.3807,-3.3807,-3.3807,-3.3807,-3.3807,-3.3807,-3.3807,-3.3807,-3.3807,-3.3807,-3.3807]},{"header":{"parameterUnit":"m.s-1","parameterCategory":1,"la1":30.6,"la2":29.2853,"lo1":-89.7004,"lo2":-87.6739,"dy":0.0162,"dx":0.0183,"nx":112,"ny":82,"refTime":"2024-07-18T18:00:00:Z","depth":0,"parameterNumber":3,"parameterNumberName":"V-component_of_WINDS"},"data":[0.0,0.0,0.0,0.0,0.0,0.0,0.0,0.0,0.0,0.0,0.0,0.0,0.0,0.0,0.0,0.0,0.0,0.0,0.0,0.0,0.0,0.0,0.0,0.0,0.0,0.0,0.0,0.0,0.0,0.0,0.0,0.0,0.0,0.0,0.0,0.0,0.0,0.0,0.0,0.0,0.0,0.0,0.0,0.0,0.0,0.0,0.0,0.0,0.0,0.0,0.0,0.0,0.0,0.0,0.0,0.0,0.0,0.0,0.0,0.0,0.0,0.0,0.0,0.0,0.0,0.0,0.0,0.0,0.0,0.0,0.0,0.0,0.0,0.0,0.0,0.0,0.0,0.0,0.0,0.0,0.0,0.0,0.0,0.0,0.0,0.0,0.0,0.0,0.0,0.0,0.099,0.0113,0.0,0.0,0.0,0.0,0.0,0.0,0.0,0.0,0.0,0.0,0.0,0.0,0.0,0.0,0.0,0.0,0.0,0.0,0.0,0.0,0.0,0.0,0.0,0.0,0.0,0.0,0.0,0.0,0.0,0.0,0.0,0.0,0.0,0.0,0.0,0.0,0.0,0.0,0.0,0.0,0.0,0.0,0.0,0.0,0.0,0.0,0.0,0.0,0.0,0.0,0.0,0.0,0.0,0.0,0.0,0.0,0.0,0.0,0.0,0.0,0.0,0.0,0.0,0.0,0.0,0.0,0.0,0.0,0.0,0.0,0.0,0.0,0.0,0.0,0.0,0.0,0.0,0.0,0.0,0.0,0.0,0.0,0.0,0.0,0.0,0.0,0.0,0.0,0.0,0.0,0.0,0.0,0.0,0.0,0.0,0.0,0.0,0.0,0.0,0.0,0.0,0.0,0.0,0.0,0.0,0.0,0.0,0.0,0.0,0.0,0.0182,0.0,0.0,0.0,0.0,0.0,0.0,0.0,0.0,0.0,0.0,0.0,0.0,0.0,0.0,0.0,0.0,0.0,0.0,0.0,0.0,0.0,0.0,0.0,0.0,0.0,0.0,0.0,0.0,0.0,0.0,0.0,0.0,0.0,0.0,0.0,0.0,0.0,0.0,0.0,0.0,0.0,0.0,0.0,0.0,0.0,0.0,0.0,0.0,0.0,0.0,0.0,0.0,0.0,0.0,0.0,0.0,0.0,0.0,0.0,0.0,0.0,0.0,0.0,0.0,0.0,0.0,0.0,0.0,0.0,0.0,0.0,0.0,0.0,0.0,0.0,0.0,0.0,0.0,0.0,0.0,0.0,0.0,0.0,0.0,0.0,0.0,0.0,0.0,0.0,0.0,0.0,0.0,0.0,0.0,0.0,0.0,0.0,0.0,0.0,0.0,0.0,0.0,0.0,0.0,0.0,0.0,0.0,0.0,0.0,0.0,0.059,0.0,0.0,0.0,0.0,0.0,0.0,0.0,0.0,0.0,0.0,0.0,0.0,0.0,0.0,0.0,0.0,0.0,0.0,0.0,0.0,0.0,0.0,0.0,0.0,0.0,0.0,0.0,0.0,0.0,0.0,0.0,0.0,0.0,0.0,0.0,0.0,0.0,0.0,0.0,0.0,0.0,0.0,0.0,0.0,0.0,0.0,0.0,0.0,0.0,0.0,0.0,0.0,0.0,0.0,0.0,0.0,0.0,0.0,0.0,0.0,0.0,0.0,0.0,0.0,0.0,0.0,0.0,0.0,0.0,0.0,0.0,0.0,0.0,0.0,0.0,0.0,0.0,0.0,0.0,0.0,0.0,0.0,0.0,0.0,0.0,0.0,0.0,0.0,0.0,0.0,0.0,0.0,0.0,0.0,0.0,0.0,0.0,0.0,0.0,0.0,0.0,0.0,0.0,0.0,0.0,0.0,0.0,0.0,0.0,0.0,0.0,0.0871,0.0267,0.0038,0.0,0.0,0.0,0.0,0.0,0.0,0.0,0.0,0.0,0.0,0.0,0.0,0.0,0.0,0.0,0.0,0.0,0.0,0.0,0.0,0.0,0.0,0.0,0.0,0.0,0.0,0.0,0.0,0.0,0.0,0.0,0.0,0.0,0.0,0.0,0.0,0.0,0.0,0.0,0.0,0.0,0.0,0.0,0.0,0.0,0.0,0.0,0.0,0.0,0.0,0.0,0.0,0.0,0.0,0.0,0.0,0.0,0.0,0.0,0.0,0.0,0.0,0.0,0.0,0.0,0.0,0.0,0.0,0.0,0.0,0.0,0.0,0.0,0.0,0.0,0.0,0.0,0.0,0.0,0.0,0.0,0.0,0.0,0.0,0.0,0.0,0.0,0.0,0.0,0.0,0.0,0.0,0.0,0.0,0.0,0.0,0.0,0.0,0.0,0.0,0.0,0.0,0.0,0.0,0.0,0.0,0.0,0.0,0.0,0.1406,0.1124,0.0114,0.0,0.0,0.0,0.0,0.0,0.0,0.0,0.0,0.0,0.0,0.0,0.0,0.0,0.0,0.0,0.0,0.0,0.0,0.0,0.0,0.0,0.0,0.0,0.0,0.0,0.0,0.0,0.0,0.0,0.0,0.0,0.0,0.0,0.0,0.0,0.0,0.0,0.0,0.0,0.0,0.0,0.0,0.0,0.0,0.0,0.0,0.0,0.0,0.0,0.0,0.0,0.0,0.0,0.0,0.0,0.0,0.0,0.0,0.0,0.0,0.0,0.0,0.0,0.0,0.0,0.0,0.0,0.0,0.0,0.0,0.0,0.0,0.0,0.0,0.0,0.0,0.0,0.0,0.0,0.0,0.0,0.0,0.0,0.0,0.0,0.0,0.0,0.0,0.0,0.0,0.0,0.0,0.0,0.0,0.0,0.0,0.0,0.0,0.0,0.0,0.0,0.0,0.0,0.0,0.0,0.0,0.0,0.0,0.0,0.1462,0.1191,0.0116,0.0,0.0,0.0,0.0,0.0,0.0,0.0,0.0,0.0,0.0,0.0,0.0,0.0,0.0,0.0,0.0,0.0,0.0,0.0,0.0,0.0,0.0,0.0,0.0,0.0,0.0,0.0,0.0,0.0,0.0,0.0,0.0,0.0,0.0,0.0,0.0,0.0,0.0,0.0,0.0,0.0,0.0,0.0,0.0,0.0,0.0,0.0,0.0,0.0,0.0,0.0,0.0,0.0,0.0,0.0,0.0,0.0,0.0,0.0,0.0,0.0,0.0,0.0,0.0,0.0,0.0,0.0,0.0,0.0,0.0,0.0,0.0,0.0,0.0,0.0,0.0,0.0,0.0,0.0,0.0,0.0,0.0,0.0,0.0,0.0,0.0,0.0,0.0,0.0,0.0,0.0,0.0,0.0,0.0,0.0,0.0,0.0,0.0,0.0,0.0,0.0,0.0,0.0,0.0,0.0,0.0,0.0,0.0,0.2426,0.2131,0.1686,0.062,0.0191,0.0,0.0,0.0,0.0,0.0,0.0,0.0,0.0,0.0,0.0,0.0,0.0,0.0,0.0,0.0,0.0,0.0,0.0,0.0,0.0,0.0,0.0,0.0,0.0,0.0,0.0,0.0,0.0,0.0,0.0,0.0,0.0,0.0,0.0,0.0,0.0,0.0,0.0,0.0,0.0,0.0,0.0,0.0,0.0,0.0,0.0,0.0,0.0,0.0,0.0,0.0,0.0,0.0,0.0,0.0,0.0,0.0,0.0,0.0,0.0,0.0,0.0,0.0,0.0,0.0,0.0,0.0,0.0,0.0,0.0,0.0,0.0,0.0,0.0,0.0,0.0,0.0,0.0,0.0,0.0,0.0,0.0,0.0,0.0,0.0,0.0,0.0,0.0,0.0,0.0,0.0,0.0,0.0,0.0,0.0,0.0,0.0,0.0,0.0,0.0,0.0,0.0,0.0,0.0,0.0,0.0,0.0,0.4354,0.3561,0.2709,0.1704,0.0642,0.0,0.0,0.0,0.0,0.0,0.0,0.0,0.0,0.0,0.0,0.0,0.0,0.0,0.0,0.0,0.0,0.0,0.0,0.0,0.0,0.0,0.0,0.0,0.0,0.0,0.0,0.0,0.0,0.0,0.0,0.0,0.0,0.0,0.0,0.0,0.0,0.0,0.0,0.0,0.0,0.0,0.0,0.0,0.0,0.0,0.0,0.0,0.0,0.0,0.0,0.0,0.0,0.0,0.0,0.0,0.0,0.0,0.0,0.0,0.0,0.0,0.0,0.0,0.0,0.0,0.0,0.0,0.0,0.0,0.0,0.0,0.0,0.0,0.0,0.0,0.0,0.0,0.0,0.0,0.0,0.0,0.0,0.0,0.0,0.0,0.0,0.0,0.0,0.0,0.0,0.0,0.0,0.0,0.0,0.0,0.0,0.0,0.0,0.0,0.0,0.0,0.0,0.0,0.0,0.0,0.0,0.0,0.4354,0.355,0.27,0.1701,0.0623,0.0,0.0,0.0,0.0,0.0,0.0,0.0,0.0,0.0,0.0,0.0,0.0,0.0,0.0,0.0,0.0,0.0,0.0,0.0,0.0,0.0,0.0,0.0,0.0,0.0,0.0,0.0,0.0,0.0,0.0,0.0,0.0,0.0,0.0,0.0,0.0,0.0,0.0,0.0,0.0,0.0,0.0,0.0,0.0,0.0,0.0,0.0,0.0,0.0,0.0,0.0,0.0,0.0,0.0,0.0,0.0,0.0,0.0,0.0,0.0,0.0,0.0,0.0,0.0,0.0,0.0,0.0,0.0,0.0,0.0,0.0,0.0,0.0,0.0,0.0,0.0,0.0,0.0,0.0,0.0,0.0,0.0,0.0,0.0,0.0,0.0,0.0,0.0,0.0,0.0,0.0,0.0,0.0,0.0,0.0,0.0,0.0,0.0,0.0,0.0,0.0,0.0,0.0,0.0,0.0,0.0,0.0,0.4934,0.3823,0.2856,0.227,0.0863,0.0,0.0,0.0,0.0,0.0,0.0,0.0,0.0,0.0,0.0,0.0,0.0,0.0,0.0,0.0,0.0,0.0,0.0,0.0,0.0,0.0,0.0,0.0,0.0,0.0,0.0,0.0,0.0,0.0,0.0,0.0,0.0,0.0,0.0,0.0,0.0,0.0,0.0,0.0,0.0,0.0,0.0,0.0,0.0,0.0,0.0,0.0,0.0,0.0,0.0,0.0,0.0,0.0,0.0,0.0,0.0,0.0,0.0,0.0,0.0,0.0,0.0,0.0,0.0,0.0,0.0,0.0,0.0,0.0,0.0,0.0,0.0,0.0,0.0,0.0,0.0,0.0,0.0,0.0,0.0,0.0,0.0,0.0,0.0,0.0,0.0,0.0,0.0,0.0,0.0,0.0,0.0,0.0,0.0,0.0,0.0,0.0,0.0,0.0,0.0,0.0,0.0,0.0,0.0,0.0,0.0,0.0,0.5783,0.4215,0.3092,0.3085,0.1241,0.0,0.0,0.0,0.0,0.0,0.0,0.0,0.0,0.0,0.0,0.0,0.0,0.0,0.0,0.0,0.0,0.0,0.0,0.0,0.0,0.0,0.0,0.0,0.0,0.0,0.0,0.0,0.0,0.0,0.0,0.0,0.0,0.0,0.0,0.0,0.0,0.0,0.0,0.0,0.0,0.0,0.0,0.0,0.0,0.0,0.0,0.0,0.0,0.0,0.0,0.0,0.0,0.0,0.0,0.0,0.0,0.0,0.0,0.0,0.0,0.0,0.0,0.0,0.0,0.0,0.2438,0.1372,0.0,0.0,0.0,0.0,0.0,0.0,0.0,0.0,0.0,0.0,0.0,0.0,0.0,0.0,0.0,0.0,0.0,0.0,0.0,0.0,0.0,0.0,0.0,0.0,0.0,0.0,0.0,0.0,0.0,0.0,0.0,0.0,0.0,0.0,0.0,0.0,0.0,0.0,0.0,0.0,0.565,0.4142,0.3045,0.2965,0.1172,0.0,0.0,0.0,0.0,0.0,0.0,0.0,0.0,0.0,0.0,0.0,0.0,0.0,0.0,0.0,0.0,0.0,0.0,0.0,0.0,0.0,0.0,0.0,0.0,0.0,0.0,0.0,0.0,0.0,0.0,0.0,0.0,0.0,0.0,0.0,0.0,0.0,0.0,0.0,0.0,0.0,0.0,0.0,0.0,0.0,0.0,0.0,0.0,0.0,0.0,0.0,0.0,0.0,0.0,0.0,0.0,0.0,0.0,0.0,0.0,0.0,0.0,0.0,0.0,0.0,0.322,0.2599,0.0,0.0,0.0,0.0,0.0,0.0,0.0,0.0,0.0,0.0,0.0,0.0,0.0,0.0,0.0,0.0,0.0,0.0,0.0,0.0,0.0,0.0,0.0,0.0,0.0,0.0,0.0,0.0,0.0,0.0,0.0,0.0,0.0,0.0,0.0,0.0,0.0,0.0,0.0,0.0,0.5606,0.4143,0.3056,0.2905,0.1162,0.0,0.0,0.0,0.0,0.0,0.0,0.0,0.0,0.0,0.0,0.0,0.0,0.0,0.0,0.0,0.0,0.0,0.0,0.0,0.0,0.0,0.0,0.0,0.0,0.0,0.0,0.0,0.0,0.0,0.0,0.0,0.0,0.0,0.0,0.0,0.0,0.0,0.0,0.0,0.0,0.0,0.0,0.0,0.0,0.0,0.0,0.0,0.0,0.0,0.0,0.0,0.0,0.0,0.0,0.0,0.0,0.0,0.0,0.0,0.3661,0.3699,0.3642,0.3641,0.4128,0.4922,0.4045,0.4057,0.4575,0.2843,0.0,0.0,0.0,0.0,0.0,0.0,0.0,0.0,0.0,0.0,0.0,0.0,0.0,0.0,0.0,0.0,0.0,0.0,0.0,0.0,0.0,0.0,0.5917,0.6096,0.6371,0.6496,0.6225,0.0,0.0,0.0,0.0,0.0,0.0,0.0,0.0,0.0,0.0,0.0,0.561,0.4143,0.3051,0.2886,0.1158,0.0,0.0,0.0,0.0,0.0,0.0,0.0,0.0,0.0,0.0,0.0,0.0,0.0,0.0,0.0,0.0,0.0,0.0,0.0,0.0,0.0,0.0,0.0,0.0,0.0,0.0,0.0,0.0,0.0,0.0,0.0,0.0,0.0,0.0,0.0,0.0,0.0,0.0,0.0,0.2689,0.2682,0.0,0.0,0.0,0.0,0.0,0.0,0.0,0.0,0.0,0.0,0.0,0.0,0.0,0.3333,0.3553,0.4458,0.4831,0.4713,0.5604,0.5973,0.5877,0.5861,0.5938,0.6073,0.5938,0.0,0.4694,0.4392,0.0,0.0,0.0,0.0,0.0,0.0,0.0,0.0,0.0,0.0,0.0,0.0,0.0,0.0,0.0,0.0,0.0,0.0,0.0,0.0,0.0,0.0,0.6465,0.7331,0.7558,0.7579,0.7529,0.6858,0.6262,0.6242,0.6091,0.5956,0.0,0.0,0.0,0.0,0.0,0.0,0.5627,0.4143,0.2993,0.2742,0.1078,0.0,0.0,0.0,0.0,0.0,0.0,0.0,0.0,0.0739,0.0,0.0,0.0,0.0,0.0,0.0,0.0,0.0,0.0,0.0,0.0,0.0,0.0,0.0,0.0,0.0,0.0,0.0,0.0,0.0,0.0,0.0,0.0,0.0,0.0,0.0,0.0,0.0,0.0,0.2769,0.2669,0.208,0.1813,0.1437,0.0,0.0,0.0,0.0,0.0,0.0,0.0,0.0,0.0,0.4293,0.4453,0.4809,0.5461,0.5811,0.5956,0.5899,0.6231,0.6361,0.63,0.63,0.63,0.63,0.63,0.6025,0.5547,0.4942,0.4457,0.3997,0.0,0.0,0.0,0.0,0.2819,0.3429,0.4034,0.4242,0.4461,0.5327,0.0,0.0,0.0,0.0,0.0,0.0,0.0,0.5922,0.5969,0.6487,0.7127,0.7681,0.8279,0.8743,0.8743,0.8015,0.7168,0.6447,0.6245,0.6132,0.6006,0.5901,0.0,0.0,0.0,0.5885,0.563,0.4605,0.3768,0.3466,0.181,0.0739,0.0739,0.0269,0.0,0.0,0.0,0.0236,0.0706,0.1106,0.1374,0.0,0.0,0.0,0.0,0.0,0.0,0.0,0.0,0.0,0.0,0.0,0.0,0.0,0.0,0.0,0.0,0.0,0.0,0.0,0.0,0.0,0.0,0.0,0.0,0.0,0.0,0.0,0.0,0.3165,0.291,0.1835,0.2187,0.2068,0.0,0.0,0.0,0.0,0.0,0.0,0.3679,0.3746,0.4314,0.5507,0.5664,0.6108,0.6886,0.6776,0.6681,0.6637,0.646,0.6334,0.63,0.63,0.63,0.63,0.63,0.63,0.6219,0.5431,0.5174,0.5127,0.3971,0.3787,0.41,0.3671,0.3763,0.4233,0.5089,0.5448,0.5577,0.6221,0.6361,0.6159,0.5928,0.0,0.0,0.0,0.0,0.6342,0.6428,0.7198,0.8049,0.8462,0.9216,0.9839,0.9839,0.9109,0.8138,0.7025,0.6535,0.6317,0.6162,0.6017,0.0,0.5918,0.6017,0.5979,0.5681,0.498,0.4368,0.4038,0.2609,0.1675,0.1675,0.1074,0.0706,0.0706,0.0706,0.0974,0.1641,0.1876,0.2209,0.2678,0.0,0.0,0.0,0.0,0.0,0.0,0.0,0.0,0.0,0.0,0.0,0.0,0.0,0.0,0.0,0.0,0.0,0.0,0.0,0.0,0.0,0.0,0.0,0.0,0.0,0.0,0.0,0.0,0.0,0.2955,0.3834,0.0,0.0,0.0,0.0,0.3045,0.3189,0.3738,0.4753,0.4806,0.5445,0.6767,0.6696,0.6738,0.6883,0.6776,0.6627,0.6521,0.6508,0.6429,0.63,0.63,0.63,0.63,0.63,0.63,0.63,0.6257,0.6225,0.6112,0.5043,0.5237,0.6025,0.5002,0.5348,0.6321,0.6244,0.633,0.6421,0.6315,0.6166,0.6,0.5986,0.5979,0.0,0.0,0.6832,0.7719,0.7689,0.8452,0.947,1.0409,1.0683,1.0732,1.0732,0.9954,0.9024,0.8235,0.724,0.6501,0.6491,0.0,0.6276,0.6276,0.6282,0.6177,0.583,0.5033,0.4368,0.4038,0.3178,0.2644,0.2644,0.2577,0.2577,0.2577,0.2577,0.2577,0.2644,0.3411,0.3513,0.2711,0.3513,0.0,0.0,0.0,0.0,0.0,0.0,0.0,0.0,0.0,0.0,0.0,0.0,0.0,0.0,0.0,0.0,0.0,0.0,0.0,0.0,0.0,0.0,0.0,0.0,0.0,0.0,0.0,0.0,0.3174,0.4108,0.0,0.3218,0.3787,0.4241,0.4246,0.4861,0.5521,0.6158,0.6006,0.628,0.7007,0.6827,0.6773,0.6883,0.6678,0.6566,0.6511,0.6419,0.6351,0.63,0.63,0.63,0.63,0.63,0.63,0.63,0.63,0.6354,0.6386,0.5899,0.5999,0.6383,0.5899,0.6071,0.6504,0.6453,0.6535,0.6597,0.6484,0.6337,0.6179,0.6179,0.6179,0.6329,0.6969,0.7465,0.7936,0.858,0.9518,1.0378,1.0708,1.1279,1.1768,1.1768,1.0981,0.9976,0.9072,0.7536,0.6375,0.6375,0.6334,0.63,0.63,0.63,0.6187,0.584,0.5545,0.5223,0.4916,0.4084,0.3547,0.3547,0.3011,0.2711,0.2711,0.2711,0.2945,0.3513,0.3846,0.4148,0.4417,0.4755,0.4755,0.0,0.0,0.0,0.0,0.0,0.0,0.0,0.0,0.0,0.0,0.0,0.0,0.0,0.0,0.0,0.0,0.0,0.0,0.0,0.0,0.0,0.0,0.0,0.0,0.0,0.4604,0.4399,0.3248,0.4431,0.4912,0.3742,0.4635,0.5319,0.5359,0.5986,0.6501,0.6759,0.6583,0.663,0.6937,0.6753,0.6671,0.6773,0.6525,0.6443,0.6439,0.6344,0.63,0.63,0.63,0.63,0.63,0.63,0.63,0.63,0.63,0.6354,0.6429,0.6337,0.6358,0.6429,0.6334,0.6361,0.6443,0.6443,0.6508,0.6536,0.6474,0.6375,0.6377,0.6718,0.6795,0.7022,0.8008,0.8537,0.895,0.9631,1.0565,1.1316,1.1316,1.1811,1.2305,1.2305,1.1502,1.0602,0.9933,0.8194,0.6679,0.6377,0.63,0.63,0.63,0.63,0.6207,0.5911,0.5833,0.5708,0.5498,0.4882,0.4486,0.4486,0.3949,0.3613,0.3613,0.3613,0.3882,0.4453,0.4486,0.4755,0.5395,0.5446,0.5494,0.5542,0.0,0.0,0.0,0.0,0.0,0.0,0.0,0.0,0.0,0.0,0.0,0.0,0.0,0.0,0.0,0.0,0.0,0.0,0.0,0.0,0.0,0.0,0.0,0.4667,0.467,0.4372,0.3309,0.504,0.5906,0.4844,0.582,0.645,0.6317,0.6429,0.6511,0.6518,0.6511,0.6536,0.6695,0.6549,0.6508,0.6511,0.6371,0.63,0.63,0.63,0.63,0.63,0.63,0.63,0.63,0.63,0.63,0.63,0.63,0.63,0.63,0.63,0.63,0.63,0.63,0.63,0.63,0.63,0.63,0.63,0.63,0.6338,0.6528,0.7518,0.7821,0.8046,0.9069,1.004,1.082,1.082,1.1576,1.2305,1.2305,1.2305,1.2305,1.2305,1.1539,1.082,1.082,0.921,0.7553,0.6528,0.6338,0.63,0.63,0.63,0.0,0.6013,0.5898,0.5752,0.5606,0.5491,0.5399,0.5395,0.5395,0.5395,0.5395,0.5395,0.5395,0.5402,0.5402,0.5402,0.5409,0.5556,0.5664,0.58,0.0,0.0,0.0,0.0,0.0,0.0,0.0,0.0,0.0,0.0,0.0,0.0,0.0,0.0,0.0,0.0,0.0,0.0,0.0,0.0,0.0,0.5905,0.5915,0.5613,0.574,0.5745,0.5467,0.5944,0.618,0.5906,0.6175,0.6385,0.645,0.6395,0.6453,0.6627,0.6474,0.6477,0.6692,0.6494,0.6409,0.6511,0.6371,0.63,0.63,0.63,0.63,0.63,0.63,0.63,0.63,0.63,0.63,0.63,0.63,0.63,0.63,0.63,0.63,0.63,0.63,0.63,0.63,0.63,0.63,0.63,0.63,0.6795,0.7442,0.7706,0.8313,0.9107,1.0115,1.0596,1.0975,1.1694,1.2077,1.2305,1.2305,1.2305,1.2305,1.2305,1.2077,1.1657,1.0932,1.0335,0.9437,0.7706,0.6795,0.63,0.63,0.63,0.6245,0.6013,0.5956,0.5871,0.5616,0.5552,0.5518,0.5402,0.5395,0.5395,0.5395,0.5395,0.5443,0.5556,0.5562,0.5576,0.5677,0.5722,0.5762,0.0,0.0,0.0,0.0,0.0,0.0,0.0,0.0,0.0,0.0,0.0,0.0,0.0,0.0,0.0,0.0,0.0,0.0,0.0,0.0,0.0,0.0,0.6027,0.6125,0.6125,0.6242,0.63,0.63,0.63,0.63,0.63,0.63,0.6334,0.6416,0.6347,0.6375,0.6508,0.6392,0.6378,0.6512,0.6388,0.6337,0.6422,0.634,0.63,0.63,0.63,0.63,0.63,0.63,0.63,0.63,0.63,0.63,0.63,0.63,0.63,0.63,0.0,0.0,0.0,0.0,0.6679,0.63,0.63,0.6567,0.6945,0.6945,0.7591,0.8504,0.8912,0.9475,1.0158,1.1168,1.1428,1.1545,1.215,1.2305,1.2271,1.2151,1.2124,1.2084,1.1964,1.2031,1.1972,1.137,1.1009,0.0,0.8689,0.7591,0.6795,0.6377,0.63,0.6269,0.6139,0.6071,0.5929,0.5793,0.5718,0.5644,0.5586,0.5579,0.0,0.0,0.0,0.562,0.5674,0.5677,0.0,0.0,0.0,0.0,0.0,0.5993,0.0,0.0,0.5996,0.5932,0.0,0.0,0.0,0.0,0.0,0.0,0.0,0.0,0.0,0.0,0.0,0.0,0.0,0.0,0.0,0.0,0.6422,0.6451,0.6451,0.6377,0.63,0.63,0.63,0.63,0.63,0.63,0.63,0.63,0.63,0.63,0.63,0.63,0.0,0.0,0.0,0.63,0.63,0.63,0.63,0.63,0.63,0.63,0.63,0.63,0.63,0.63,0.63,0.63,0.63,0.63,0.6325,0.6423,0.6423,0.703,0.7897,0.7766,0.7229,0.651,0.6437,0.0,0.0,0.7867,0.8562,0.9594,1.0482,1.0877,1.1168,1.204,1.2305,1.2291,1.2265,1.2251,1.2178,1.1926,1.1852,1.175,1.1449,1.1657,1.1906,1.1906,1.1394,1.064,0.9636,0.8542,0.7442,0.6451,0.63,0.63,0.63,0.6139,0.6013,0.5993,0.5891,0.0,0.5779,0.5762,0.5759,0.5776,0.581,0.5827,0.5827,0.5844,0.5918,0.6016,0.602,0.6125,0.63,0.63,0.63,0.6293,0.5979,0.5925,0.0,0.0,0.0,0.0,0.0,0.0,0.0,0.0,0.0,0.0,0.0,0.0,0.0,0.0,0.0,0.8478,0.7957,0.7518,0.7518,0.6795,0.63,0.63,0.63,0.63,0.63,0.63,0.63,0.63,0.63,0.63,0.63,0.63,0.63,0.63,0.63,0.63,0.63,0.63,0.63,0.63,0.63,0.0,0.63,0.63,0.63,0.63,0.63,0.63,0.63,0.63,0.6638,0.71,0.71,0.7723,0.8511,0.7562,0.7538,0.7892,0.7186,0.7542,0.8282,0.8282,0.9155,1.0224,1.0405,1.1181,0.0,1.2261,1.2305,1.2245,1.2011,1.1986,1.1913,1.1583,1.151,1.1496,1.1402,1.1657,1.1906,1.1906,1.1952,1.1694,1.0677,0.8983,0.7442,0.6451,0.63,0.63,0.63,0.6272,0.6169,0.6006,0.5891,0.5755,0.564,0.5552,0.5532,0.5623,0.5854,0.5949,0.5949,0.6105,0.6224,0.6255,0.6255,0.6269,0.63,0.63,0.63,0.6296,0.6238,0.6228,0.0,0.0,0.0,0.0,0.0,0.0,0.0,0.0,0.0,0.0,0.0,0.8825,0.8944,0.0,0.9108,0.9183,0.8397,0.7749,0.7651,0.6779,0.6146,0.6146,0.6146,0.6146,0.6146,0.6146,0.6176,0.6293,0.63,0.63,0.63,0.63,0.63,0.63,0.63,0.63,0.63,0.63,0.63,0.63,0.63,0.63,0.63,0.63,0.63,0.63,0.63,0.6255,0.6177,0.6544,0.744,0.8587,0.8443,0.8224,0.7983,0.8377,0.8197,0.7743,0.7743,0.8368,0.9139,0.9139,0.9927,1.0895,1.0895,1.1452,1.2084,1.2084,1.2191,1.2271,1.2124,1.2013,1.1832,1.1496,1.1316,1.1169,1.1022,1.1336,1.165,1.165,1.1997,1.1959,1.0969,0.9959,0.8799,0.7288,0.7061,0.6872,0.6377,0.63,0.6269,0.6156,0.6078,0.604,0.5969,0.5783,0.5694,0.5694,0.5908,0.5993,0.5993,0.6179,0.63,0.63,0.63,0.63,0.63,0.63,0.63,0.63,0.63,0.63,0.0,0.0,0.0,0.0,0.0,0.0,0.0,0.931,0.8861,0.93,0.9458,0.9515,0.9681,0.9719,0.9748,0.9868,0.8845,0.8008,0.7844,0.6733,0.5939,0.5909,0.5932,0.5949,0.5949,0.5976,0.6081,0.6245,0.6282,0.63,0.63,0.63,0.63,0.63,0.63,0.63,0.63,0.63,0.63,0.63,0.63,0.63,0.63,0.63,0.63,0.63,0.6458,0.6518,0.66,0.729,0.8454,0.9811,0.9728,0.881,0.7704,0.9216,0.8941,0.7838,0.8384,0.9211,1.0043,1.0043,1.0631,1.1309,1.1309,1.155,1.1784,1.1784,1.1951,1.2118,1.2064,1.1917,1.169,1.1343,1.1122,1.0915,1.0653,1.0969,1.1322,1.1382,1.1857,1.1974,1.123,1.1087,1.0335,0.8122,0.7783,0.7442,0.6416,0.63,0.63,0.63,0.6272,0.6242,0.6211,0.6084,0.5929,0.5813,0.5973,0.6023,0.5993,0.6179,0.63,0.63,0.63,0.63,0.63,0.63,0.63,0.63,0.63,0.63,1.0593,1.0593,1.0593,1.0593,0.9945,0.9564,0.0,1.0368,1.0235,1.1327,1.1729,1.1911,1.1944,1.1951,1.1964,1.1959,1.027,0.8951,0.8926,0.7134,0.5779,0.5654,0.5749,0.5827,0.5827,0.5912,0.6,0.6016,0.6183,0.63,0.63,0.63,0.63,0.63,0.63,0.63,0.63,0.63,0.63,0.63,0.63,0.63,0.63,0.63,0.63,0.6328,0.6926,0.7688,0.8507,0.9015,0.9344,0.9622,1.0225,0.988,0.9097,0.9291,0.9711,1.0097,0.9421,0.9776,1.052,1.052,1.0763,1.1042,1.1042,1.1243,1.1476,1.1476,1.1462,1.1463,1.1209,1.1309,1.1336,1.0821,1.0861,1.0915,1.0653,1.0847,1.1122,1.1342,1.169,1.1997,1.2104,1.215,1.113,0.8232,0.7783,0.7442,0.6416,0.63,0.63,0.63,0.6139,0.6,0.5864,0.5962,0.5929,0.5813,0.6112,0.6173,0.5996,0.6179,0.63,0.63,0.63,0.63,0.63,0.63,0.63,0.63,0.63,0.63,1.0634,1.0593,1.0593,1.0593,1.0333,1.0213,1.0856,1.0816,1.081,1.1481,1.1844,1.2087,1.2087,1.2184,1.2245,1.2078,1.0809,0.9766,0.9487,0.8146,0.716,0.7002,0.6672,0.6227,0.5748,0.5735,0.5844,0.5979,0.6091,0.6166,0.6293,0.63,0.63,0.63,0.63,0.6567,0.7176,0.7176,0.7176,0.7176,0.7176,0.6872,0.6338,0.6911,0.748,0.8028,0.8043,0.8577,0.9428,0.9393,0.9687,1.0161,1.0474,1.0364,1.0047,1.0047,0.9983,0.9849,1.0009,1.0301,1.0593,1.0593,1.0673,1.0774,1.0774,1.1062,1.1355,1.1223,1.1543,1.187,1.1577,1.1597,1.1623,1.1417,1.1283,1.1209,1.1089,1.1296,1.1578,1.1657,1.1924,1.2164,1.2278,1.2305,1.1663,0.9814,0.9064,0.8313,0.7288,0.6679,0.63,0.63,0.6242,0.6101,0.5945,0.5956,0.5929,0.5813,0.6006,0.6098,0.5996,0.6179,0.63,0.63,0.63,0.63,0.63,0.63,0.63,0.63,0.63,0.63,1.0658,1.0593,1.0593,1.0593,1.0593,1.0646,1.0861,1.0935,1.1056,1.1263,1.1543,1.175,1.175,1.1917,1.2017,1.1926,1.0935,1.0096,0.983,0.8857,0.8136,0.8128,0.7626,0.7095,0.6537,0.5992,0.5752,0.5973,0.5993,0.6098,0.6289,0.63,0.6416,0.6718,0.6718,0.7215,0.8199,0.8199,0.8199,0.8199,0.8199,0.7821,0.7138,0.7897,0.8765,0.968,0.9174,0.9463,1.0301,0.9919,1.0129,1.0713,1.0713,1.0713,1.07,1.062,1.0206,0.9754,1.0364,1.0593,1.0593,1.0593,1.0593,1.0593,1.0593,1.0909,1.1263,1.1049,1.151,1.2011,1.1804,1.1839,1.1886,1.1764,1.1643,1.1523,1.1409,1.1597,1.1806,1.1893,1.2074,1.2204,1.2285,1.2305,1.204,1.1316,1.034,0.9253,0.797,0.6907,0.63,0.63,0.63,0.6252,0.6101,0.6095,0.6027,0.5874,0.601,0.6074,0.5993,0.6179,0.63,0.63,0.63,0.63,0.63,0.63,0.63,0.63,0.63,0.63,1.0586,1.0593,1.0593,1.0593,1.0593,1.0593,1.06,1.0821,1.0995,1.1002,1.1236,1.1409,1.1409,1.1415,1.1543,1.1859,1.0663,0.9789,1.0059,0.8881,0.8113,0.8351,0.8386,0.8439,0.8688,0.6924,0.5861,0.5979,0.5993,0.6098,0.6289,0.63,0.6756,0.7706,0.7744,0.8237,0.9258,0.9258,0.9258,0.9258,0.9258,0.9226,0.9221,0.9226,0.982,1.0722,1.0131,1.0441,1.1334,1.1069,1.0942,1.0982,1.0982,1.0982,1.0949,1.07,1.0593,1.0561,1.0593,1.0593,1.0593,1.0593,1.0593,1.0593,1.0593,1.0801,1.1002,1.0995,1.1216,1.1415,1.1409,1.1657,1.1832,1.151,1.165,1.1812,1.1455,1.1395,1.1523,1.1852,1.1913,1.2007,1.2258,1.2305,1.2298,1.2261,1.1391,1.0034,0.8046,0.6907,0.63,0.63,0.63,0.6296,0.6293,0.6293,0.6186,0.5996,0.6169,0.6186,0.5996,0.6179,0.63,0.63,0.63,0.63,0.63,0.63,0.63,0.63,0.63,0.63,1.0902,1.0989,1.1257,1.0744,1.0593,1.0593,1.0593,1.0667,1.0734,1.0734,1.0935,1.1136,1.1136,1.1296,1.1396,1.1303,1.0882,1.0521,1.0431,1.0026,0.9808,1.0079,0.9683,0.9534,0.9817,0.8593,0.7856,0.8029,0.8047,0.8133,0.8266,0.8275,0.8428,0.877,0.8803,0.9291,1.0303,1.0303,1.0303,1.0303,0.9631,0.9631,1.0303,1.0303,1.0826,1.1786,1.1377,1.1429,1.1697,1.1403,1.1283,1.1283,1.1283,1.1283,1.1269,1.1169,1.1009,1.0854,1.066,1.0593,1.0593,1.0593,1.0593,1.0593,1.0593,1.0895,1.1236,1.1049,1.1483,1.1964,1.177,1.1937,1.2131,1.2031,1.2084,1.2131,1.2031,1.2004,1.2037,1.2138,1.2158,1.2184,1.2285,1.2305,1.2305,1.2305,1.1428,1.0072,0.8046,0.7518,0.7022,0.6377,0.63,0.63,0.63,0.63,0.6276,0.6186,0.6272,0.6276,0.6183,0.6272,0.63,0.63,0.63,0.63,0.63,0.63,0.63,0.63,0.63,0.63,1.1382,1.1413,1.1624,1.0807,1.0593,1.0593,1.0593,1.0593,1.0593,1.0593,1.074,1.0868,1.0868,1.0989,1.1122,1.1142,1.0975,1.0842,1.0868,1.0814,1.0854,1.1109,1.0842,1.0799,1.1205,1.064,0.9916,0.9221,0.9227,0.9251,0.9291,0.9296,0.9448,0.982,0.982,1.0303,1.1316,1.1354,1.1354,1.1316,1.0683,1.072,1.1354,1.1354,1.1643,1.2138,1.1986,1.1846,1.1703,1.1617,1.1583,1.1583,1.1583,1.1583,1.157,1.1429,1.1309,1.1102,1.0847,1.068,1.0593,1.0593,1.0593,1.0613,1.0713,1.1049,1.1375,1.1329,1.1784,1.2258,1.2107,1.2164,1.2305,1.2305,1.2305,1.2305,1.2305,1.2305,1.2305,1.2305,1.2305,1.2305,1.2305,1.2305,1.2305,1.2305,1.1731,1.0752,0.9102,0.8575,0.8084,0.7442,0.7061,0.6834,0.6834,0.649,0.63,0.63,0.63,0.63,0.63,0.63,0.63,0.63,0.63,0.63,0.63,0.63,0.63,0.63,0.63,0.63,1.202,1.1804,1.1626,1.078,1.0579,1.0593,1.0593,1.0593,1.0593,1.0593,1.0593,1.0593,1.0593,1.06,1.0794,1.1316,1.0955,1.0827,1.1315,1.1189,1.1122,1.1382,1.1697,1.2134,1.271,1.2777,1.1885,0.9614,0.9604,0.9609,0.9501,0.9458,0.9895,1.0864,1.0901,1.1316,1.2298,1.2305,1.2305,1.2305,1.2305,1.2305,1.2305,1.2305,1.2151,1.1926,1.1926,1.173,1.1455,1.1777,1.1926,1.1926,1.1926,1.1926,1.1893,1.157,1.1429,1.1375,1.1136,1.0881,1.0633,1.062,1.0626,1.0687,1.0929,1.1216,1.151,1.1826,1.2078,1.2305,1.2305,1.2305,1.2305,1.2305,1.2305,1.2305,1.2305,1.2305,1.2305,1.2305,1.2305,1.2305,1.2305,1.2305,1.2305,1.2305,1.2305,1.1922,1.0938,0.997,0.9372,0.9296,0.8428,0.7859,0.7859,0.6984,0.6412,0.6377,0.6377,0.6338,0.63,0.63,0.6338,0.6377,0.6338,0.6338,0.6377,0.6338,0.63,0.63,0.63,0.63,1.1966,1.1825,1.193,1.0557,1.0432,1.0593,1.0593,1.0593,1.0593,1.0593,1.0593,1.0593,1.0593,1.0767,1.0929,1.1082,1.1156,1.1256,1.1369,1.1329,1.1423,1.1724,1.1859,1.2053,1.2378,1.2656,1.2467,1.1608,1.1815,1.1936,1.1897,1.1665,1.1663,1.1922,1.1922,1.2033,1.2305,1.2305,1.2305,1.2305,1.2305,1.2305,1.2305,1.2305,1.2265,1.2191,1.2191,1.2151,1.2084,1.2158,1.2191,1.2191,1.2191,1.2191,1.2184,1.2104,1.1944,1.1744,1.1705,1.145,1.1169,1.0955,1.1029,1.1223,1.1289,1.1523,1.177,1.1886,1.2078,1.2305,1.2305,1.2305,1.2305,1.2305,1.2305,1.2305,1.2305,1.2305,1.2305,1.2305,1.2305,1.2305,1.2305,1.2305,1.2305,1.2305,1.2305,1.1922,1.0938,1.0596,1.0115,0.9372,0.9069,0.8917,0.8917,0.8689,0.8199,0.748,0.7403,0.7099,0.6338,0.63,0.6644,0.7403,0.6679,0.6679,0.7403,0.6679,0.63,0.63,0.63,0.63,1.1702,1.144,1.1494,1.0375,1.0241,1.0432,1.0566,1.0593,1.0593,1.0593,1.0593,1.0593,1.0593,1.0935,1.1223,1.1356,1.1516,1.1663,1.179,1.1703,1.1683,1.1886,1.202,1.2171,1.2509,1.269,1.277,1.2705,1.2764,1.273,1.2596,1.2392,1.2305,1.2305,1.2305,1.2305,1.2305,1.2305,1.2305,1.2305,1.2305,1.2305,1.2305,1.2305,1.2231,1.2118,1.2245,1.2231,1.2124,1.2245,1.2305,1.2305,1.2305,1.2305,1.2305,1.2305,1.2198,1.2044,1.1946,1.1844,1.1744,1.1316,1.1289,1.1415,1.1583,1.1737,1.1933,1.2024,1.2178,1.2305,1.2305,1.2305,1.2305,1.2305,1.2305,1.2305,1.2305,1.2305,1.2305,1.2305,1.2305,1.2305,1.2305,1.2305,1.2305,1.2305,1.2305,1.2114,1.1545,1.1465,1.1242,1.0683,1.0233,0.997,0.997,0.9561,0.9069,0.8504,0.8046,0.7557,0.6984,0.6945,0.7211,0.7783,0.7668,0.7668,0.7783,0.7249,0.6718,0.63,0.63,0.63,1.1367,1.0838,1.0694,1.0189,1.0057,1.0194,1.0526,1.0593,1.0593,1.0593,1.0593,1.0593,1.0593,1.1002,1.1463,1.1799,1.1879,1.202,1.2311,1.2147,1.198,1.202,1.2171,1.2405,1.2697,1.2723,1.2837,1.3066,1.2878,1.263,1.2371,1.2325,1.2305,1.2305,1.2305,1.2305,1.2305,1.2305,1.2305,1.2305,1.2305,1.2305,1.2305,1.2305,1.2164,1.198,1.2191,1.2158,1.198,1.2198,1.2305,1.2305,1.2305,1.2305,1.2305,1.2305,1.2305,1.2265,1.2011,1.2091,1.2211,1.1663,1.1475,1.1555,1.185,1.196,1.2013,1.2231,1.2305,1.2305,1.2305,1.2305,1.2305,1.2305,1.2305,1.2305,1.2305,1.2305,1.2305,1.2305,1.2305,1.2305,1.2305,1.2305,1.2305,1.2305,1.2305,1.2305,1.2305,1.2305,1.2305,1.2305,1.1502,1.1013,1.1013,1.0196,0.9636,0.9523,0.8689,0.8122,0.8012,0.8012,0.8046,0.8194,0.8803,0.8732,0.8012,0.7744,0.7138,0.63,0.63,0.63,1.095,1.0499,1.0313,0.9882,0.994,1.0194,1.0526,1.0593,1.0593,1.0593,1.0593,1.0593,1.0593,1.0868,1.1162,1.1456,1.171,1.2094,1.2636,1.2412,1.2318,1.2603,1.2455,1.2318,1.2371,1.2378,1.2405,1.2452,1.2405,1.2465,1.2697,1.2438,1.2305,1.2305,1.2305,1.2305,1.2305,1.2305,1.2305,1.2305,1.2305,1.2305,1.2305,1.2305,1.2271,1.2231,1.2278,1.2271,1.2231,1.2278,1.2305,1.2305,1.2305,1.2305,1.2305,1.2305,1.2305,1.2291,1.2245,1.2258,1.2245,1.1904,1.1951,1.2158,1.2211,1.2225,1.2238,1.2285,1.2305,1.2305,1.2305,1.2305,1.2305,1.2305,1.2305,1.2305,1.2305,1.2305,1.2305,1.2305,1.2305,1.2305,1.2305,1.2305,1.2305,1.2305,1.2305,1.2305,1.2305,1.2305,1.2305,1.2305,1.215,1.2033,1.2033,1.1885,1.1434,1.0596,1.0372,0.989,0.9069,0.9031,0.9442,1.026,0.8836,0.8389,0.9031,0.7365,0.649,0.63,0.63,0.63,1.0168,0.9683,0.9547,0.968,0.9786,1.0013,1.0486,1.0593,1.0593,1.0593,1.0593,1.0593,1.0593,1.0922,1.1316,1.161,1.1904,1.2305,1.2906,1.2764,1.2623,1.2764,1.2656,1.2472,1.2318,1.2305,1.2305,1.2305,1.2305,1.2365,1.2543,1.2378,1.2305,1.2305,1.2305,1.2305,1.2305,1.2305,1.2305,1.2305,1.2305,1.2305,1.2305,1.2305,1.2305,1.2305,1.2305,1.2305,1.2305,1.2305,1.2305,1.2305,1.2305,1.2305,1.2305,1.2305,1.2305,1.2305,1.2305,1.2305,1.2278,1.2138,1.2191,1.2305,1.2305,1.2305,1.2305,1.2305,1.2666,1.2915,1.2409,1.2659,1.2915,1.2409,1.2305,1.2305,1.2305,1.2305,1.2305,1.2305,1.2305,1.2305,1.2305,1.2305,1.2305,1.2305,1.2305,1.2305,1.2305,1.2305,1.2305,1.2305,1.2305,1.2305,1.2305,1.2305,1.207,1.162,1.1087,1.0596,1.0115,1.0078,1.0303,1.0783,1.0378,0.9857,0.9296,0.8313,0.7326,0.63,0.63,0.63,0.9582,0.9144,0.9118,0.9646,0.978,0.9943,1.0472,1.0593,1.0593,1.0593,1.0593,1.0593,1.0593,1.0929,1.1356,1.1717,1.1964,1.2371,1.3106,1.2985,1.2811,1.2878,1.2824,1.2663,1.2331,1.2305,1.2305,1.2305,1.2305,1.2305,1.2305,1.2305,1.2305,1.2305,1.2305,1.2305,1.2305,1.2305,1.2305,1.2305,1.2305,1.2305,1.2305,1.2305,1.2305,1.2305,1.2305,1.2305,1.2305,1.2305,1.2305,1.2305,1.2305,1.2305,1.2305,1.2305,1.2305,1.2305,1.2305,1.2305,1.2305,1.2305,1.2305,1.2305,1.2305,1.2445,1.2592,1.2592,1.3273,1.3846,1.3127,1.331,1.3455,1.2519,1.2305,1.2305,1.2305,1.2305,1.2305,1.2305,1.2305,1.2305,1.2305,1.2305,1.2305,1.2305,1.2305,1.2305,1.2305,1.2305,1.2305,1.2305,1.2305,1.2305,1.2305,1.2305,1.2305,1.2305,1.1545,1.1124,1.1124,1.1124,1.1124,1.1124,1.1471,1.0875,0.9296,0.8884,0.7974,0.6606,0.6412,0.6416,0.9848,0.9626,0.9679,1.0,1.0043,1.016,1.0519,1.0593,1.0593,1.0593,1.0593,1.0593,1.0593,1.0633,1.0854,1.1376,1.1455,1.1868,1.3053,1.2985,1.2891,1.3133,1.2958,1.2663,1.2331,1.2305,1.2305,1.2305,1.2305,1.2305,1.2305,1.2305,1.2305,1.2305,1.2305,1.2305,1.2305,1.2305,1.2305,1.2305,1.2305,1.2305,1.2305,1.2305,1.2305,1.2305,1.2305,1.2305,1.2305,1.2305,1.2305,1.2305,1.2305,1.2305,1.2305,1.2305,1.2305,1.2305,1.2305,1.2305,1.2305,1.2305,1.2305,1.2305,1.2305,1.2915,1.3564,1.3564,1.4271,1.5057,1.495,1.4314,1.3455,1.2519,1.2305,1.2305,1.2305,1.2305,1.2305,1.2305,1.2305,1.2305,1.2305,1.2305,1.2305,1.2305,1.2305,1.2305,1.2305,1.2305,1.2305,1.2305,1.2305,1.2305,1.2305,1.2305,1.2305,1.2305,1.2224,1.215,1.215,1.215,1.215,1.215,1.0458,0.9485,0.9296,0.748,0.6949,0.7629,0.6718,0.6795,0.9999,0.982,0.9753,1.0047,1.0083,1.0194,1.0526,1.0593,1.0593,1.0593,1.0593,1.0593,1.0593,1.0593,1.0787,1.1295,1.1389,1.1808,1.3046,1.3106,1.3133,1.3393,1.3206,1.2906,1.2636,1.2405,1.2305,1.2305,1.2305,1.2305,1.2305,1.2305,1.2305,1.2305,1.2131,1.2124,1.2305,1.2131,1.2131,1.2305,1.2305,1.2305,1.2305,1.2305,1.2305,1.2305,1.2305,1.2305,1.2305,1.2305,1.2305,1.2305,1.2305,1.2305,1.2305,1.2305,1.2305,1.2305,1.2305,1.2305,1.2305,1.2305,1.2666,1.3025,1.2482,1.2952,1.3709,1.3709,1.4843,1.5895,1.534,1.445,1.36,1.3237,1.2696,1.2305,1.2305,1.2305,1.2305,1.2305,1.2305,1.2305,1.2305,1.2305,1.2305,1.2305,1.2305,1.2305,1.2305,1.2305,1.2305,1.2305,1.2305,1.2305,1.2305,1.2305,1.2305,1.2305,1.2305,1.2305,1.2305,1.2305,1.2305,1.2305,1.1515,1.0795,1.019,0.9394,0.8609,0.7783,0.7403,0.7099,1.0247,1.01,1.0023,1.0194,1.0247,1.0301,1.0546,1.0593,1.0593,1.0593,1.0593,1.0593,1.0593,1.0593,1.0787,1.1295,1.1462,1.1944,1.3053,1.328,1.3373,1.358,1.342,1.318,1.2824,1.2516,1.2305,1.2305,1.2305,1.2305,1.2305,1.2305,1.2305,1.2305,1.2104,1.2098,1.2298,1.2098,1.2098,1.2305,1.2305,1.2305,1.2305,1.2305,1.2305,1.2305,1.2305,1.2305,1.2305,1.2305,1.2305,1.2305,1.2305,1.2305,1.2305,1.2305,1.2305,1.2305,1.2305,1.2305,1.2305,1.2305,1.2952,1.3564,1.2915,1.3593,1.4557,1.4557,1.5755,1.6784,1.5869,1.4879,1.4063,1.3781,1.2989,1.2305,1.2305,1.2305,1.2305,1.2305,1.2305,1.2305,1.2305,1.2305,1.2305,1.2305,1.2305,1.2305,1.2305,1.2305,1.2305,1.2305,1.2305,1.2305,1.2305,1.2305,1.2305,1.2305,1.2305,1.2305,1.2305,1.2305,1.2305,1.2305,1.1996,1.1502,1.0783,1.049,0.9626,0.8237,0.7936,0.7249,1.0586,1.0586,1.0586,1.0586,1.0586,1.0586,1.0593,1.0593,1.0593,1.0593,1.0593,1.0593,1.0593,1.0593,1.0787,1.1295,1.167,1.2214,1.3086,1.342,1.36,1.36,1.36,1.34,1.2844,1.2516,1.2305,1.2305,1.2305,1.2305,1.2305,1.2305,1.2305,1.2305,1.2298,1.2298,1.2305,1.2298,1.2298,1.2305,1.2305,1.2305,1.2305,1.2305,1.2305,1.2305,1.2305,1.2305,1.2305,1.2305,1.2305,1.2305,1.2305,1.2305,1.2305,1.2305,1.2305,1.2305,1.2305,1.2305,1.2305,1.2305,1.2952,1.3709,1.3709,1.5048,1.6558,1.6558,1.7251,1.7759,1.6819,1.5904,1.4914,1.3954,1.2989,1.2305,1.2305,1.2305,1.2305,1.2305,1.2305,1.2305,1.2305,1.2305,1.2305,1.2305,1.2305,1.2305,1.2305,1.2305,1.2305,1.2305,1.2305,1.2305,1.2305,1.2305,1.2305,1.2305,1.2305,1.2305,1.2305,1.2305,1.2305,1.2305,1.1316,1.082,1.0783,0.982,0.9296,0.9258,0.8275,0.7249,1.0593,1.0593,1.0593,1.0593,1.0593,1.0428,0.9849,1.0174,1.0263,0.9064,0.9773,1.0434,0.9817,1.0206,1.0847,1.1638,1.1839,1.2251,1.3307,1.3547,1.368,1.3921,1.3594,1.3106,1.2498,1.2358,1.2305,1.2305,1.2305,1.2305,1.2305,1.2305,1.2305,1.2305,1.2111,1.2098,1.2298,1.2104,1.2104,1.2305,1.2305,1.2305,1.2305,1.2305,1.2305,1.2305,1.2305,1.2305,1.2305,1.2305,1.2305,1.2305,1.2305,1.2305,1.2305,1.2305,1.2305,1.2305,1.2305,1.2305,1.2305,1.2305,1.3411,1.4736,1.4736,1.5614,1.674,1.7398,1.7759,1.794,1.7647,1.6853,1.5895,1.495,1.3991,1.3098,1.2445,1.2305,1.2305,1.2305,1.2305,1.2305,1.2305,1.2305,1.2305,1.2305,1.2305,1.2305,1.2305,1.2305,1.2305,1.2305,1.2305,1.2305,1.2305,1.2305,1.2305,1.2305,1.2305,1.2305,1.2305,1.2305,1.2305,1.2305,1.1996,1.1502,1.0783,1.049,0.9626,0.8237,0.7253,0.6606,1.0428,1.0136,0.9779,1.0428,1.0104,0.9556,0.9338,0.946,0.9326,0.8221,0.9134,0.9976,0.9527,1.0167,1.1008,1.1779,1.2094,1.2536,1.336,1.3633,1.3841,1.3908,1.3394,1.2886,1.2543,1.2365,1.2305,1.2305,1.2305,1.2305,1.2305,1.2305,1.2305,1.2305,1.2124,1.2118,1.2305,1.2124,1.2124,1.2305,1.2305,1.2305,1.2305,1.2305,1.2305,1.2305,1.2305,1.2305,0.0,1.2305,1.2305,1.2305,1.2305,1.2305,1.2305,1.2305,1.2305,1.2305,1.2305,1.2519,1.2842,1.2842,1.4127,1.5799,1.6158,1.6655,1.7251,1.7828,1.8008,1.8008,1.8008,1.7285,1.6349,1.5411,1.4422,1.3455,1.2519,1.2305,1.2305,1.2305,1.2305,1.2305,1.2305,1.2305,1.2305,1.2305,1.2305,1.2305,1.2305,1.2305,1.2305,1.2305,1.2305,1.2305,1.2305,1.2305,1.2305,1.2305,1.2305,1.2305,1.2305,1.2305,1.2305,1.2305,1.2305,1.1996,1.1354,1.0602,0.9588,0.8351,0.6949,0.649,0.0,0.9224,0.8382,1.0009,0.9192,0.8188,0.8941,0.8549,0.0,0.7832,0.863,0.9379,0.9599,1.0386,1.1223,1.1866,1.2422,1.2898,1.3193,1.3707,1.3948,1.3606,1.31,1.2777,1.2757,1.2465,1.2305,1.2305,1.2285,1.2278,1.2305,1.2285,1.2278,1.2305,1.2305,1.2305,1.2305,1.2305,1.2305,1.2305,1.2305,1.2305,1.2305,1.2305,1.2305,1.2305,1.2305,1.2305,1.2305,1.2305,1.2305,1.2305,1.2305,1.2305,1.2305,1.2305,1.2305,1.2305,1.2378,1.2989,1.3709,1.3854,1.5119,1.6775,1.7716,1.8008,1.8008,1.8008,1.8008,1.8008,1.8008,1.7354,1.6463,1.5517,1.4522,1.3564,1.2592,1.2342,1.2305,1.2305,1.2305,1.2305,1.2305,1.2305,1.2305,1.2305,1.2305,1.2305,1.2305,1.2305,1.2305,1.2305,1.2305,1.2305,1.2305,1.2305,1.2305,1.2305,1.2305,1.2305,1.2305,1.2305,1.2305,1.2305,1.2224,1.2187,1.2187,1.0239,0.9258,0.9145,0.7288,0.6911,0.8318,0.0,0.8091,0.8511,0.8318,0.7864,0.0,0.7665,0.7637,0.6272,0.7938,0.9471,0.909,1.0274,1.159,1.2442,1.269,1.2971,1.3427,1.362,1.36,1.3347,1.3018,1.2697,1.2425,1.2345,1.2305,1.2305,1.2098,1.2064,1.2291,1.2091,1.2107,1.2291,1.2305,1.2305,1.2305,1.2305,1.2305,1.2305,1.2305,1.2305,1.2305,1.2305,1.2305,1.2305,1.2305,1.2305,1.2305,1.2305,1.2305,1.2305,1.2305,1.2305,1.2305,1.2305,1.2305,1.2409,1.3135,1.3528,1.3962,1.5419,1.6228,1.6775,1.7716,1.8008,1.8008,1.8008,1.8008,1.8008,1.8008,1.7828,1.7432,1.6498,1.5544,1.4593,1.3593,1.2806,1.2305,1.2305,1.2305,1.2305,1.2305,1.2305,1.2305,1.2305,1.2305,1.2305,1.2305,1.2305,1.2305,1.2305,1.2305,1.2305,1.2305,1.2305,1.2305,1.2305,1.2305,1.2305,1.2305,1.2305,1.2305,1.2305,1.1539,1.1162,1.1162,0.9895,0.8922,0.8122,0.7672,0.7591,0.6662,0.6858,0.7094,0.7887,0.7489,0.6889,0.6818,0.6788,0.6535,0.5591,0.7379,0.904,0.8852,1.046,1.2031,1.2683,1.3018,1.3273,1.3553,1.3407,1.3173,1.3019,1.2764,1.2516,1.2318,1.2305,1.2305,1.2305,1.2067,1.1973,1.2098,1.1824,1.1804,1.2091,1.2104,1.2171,1.2305,1.2305,1.2305,1.2305,1.2305,1.2305,1.2305,1.2305,1.2305,1.2305,1.2305,1.2305,1.2305,1.2305,1.2305,1.2305,1.2305,1.2305,1.2305,1.2305,1.2305,1.2445,1.3382,1.4271,1.5261,1.6768,1.7226,1.7354,1.7872,1.8008,1.8008,1.8008,1.8008,1.8008,1.8008,1.8008,1.7647,1.6289,1.5587,1.4807,1.3382,1.2666,1.2305,1.2305,1.2305,1.2305,1.2305,1.2305,1.2305,1.2305,1.2305,1.2305,1.2305,1.2305,1.2305,1.2305,1.2305,1.2305,1.2305,1.2305,1.2305,1.2305,1.2305,1.2305,1.2305,1.2305,1.2305,1.2305,1.1768,1.1502,1.1502,1.049,0.948,0.8504,0.8504,0.8504,0.5423,0.5641,0.6191,0.7624,0.689,0.6058,0.6869,0.0,0.0,0.5752,0.723,0.8578,0.9009,1.0864,1.2465,1.2811,1.3247,1.3553,1.3593,1.3126,1.2784,1.2784,1.2485,1.2305,1.2305,1.2305,1.2285,1.2238,1.1964,1.1839,1.1839,1.1516,1.1496,1.1826,1.1879,1.2027,1.2231,1.2278,1.2305,1.2305,1.2305,1.2305,1.2305,1.2305,1.2305,1.2305,1.2305,1.2305,1.2305,1.2305,1.2305,1.2305,1.2305,1.2305,1.2305,1.2305,1.2372,1.2659,1.3774,1.5332,1.6957,1.7759,1.8008,1.8008,1.8008,1.8008,1.8008,1.8008,1.8008,1.8008,1.8008,1.8008,1.7588,1.6018,1.5411,1.4736,1.3091,1.2519,1.2305,1.2305,1.2305,1.2305,1.2305,1.2305,1.2305,1.2305,1.2305,1.2305,1.2305,1.2305,1.2305,1.2305,1.2305,1.2305,1.2305,1.2305,1.2305,1.2305,1.2305,1.2305,1.2305,1.2305,1.2305,1.2305,1.2305,1.2305,1.2305,1.1428,1.049,0.9518,0.9518,0.9518,0.5552,0.6278,0.7024,0.6943,0.689,0.7039,0.7696,0.6585,0.5818,0.0,0.8213,0.9055,1.0129,1.1644,1.2817,1.3086,1.322,1.332,1.3567,1.3126,1.2784,1.2784,1.2485,1.2305,1.2305,1.2305,1.2204,1.1993,1.1663,1.149,1.149,1.1216,1.1189,1.1483,1.1737,1.1926,1.1973,1.2178,1.2305,1.2305,1.2305,1.2305,1.2305,1.2305,1.2305,1.2305,1.2305,1.2305,1.2305,1.2305,1.2305,1.2305,1.2305,1.2305,1.2305,1.2305,1.2806,1.3738,1.5535,1.6862,1.7794,1.794,1.8008,1.8008,1.8008,1.8008,1.8008,1.8008,1.8008,1.8008,1.8008,1.8008,1.794,1.7657,1.6367,1.5128,1.4807,1.3448,1.2305,1.2305,1.2305,1.2305,1.2305,1.2305,1.2305,1.2305,1.2305,1.2305,1.2305,1.2305,1.2305,1.2305,1.2305,1.2305,1.2305,1.2305,1.2305,1.2305,1.2305,1.2305,1.2305,1.2305,1.2305,1.2305,1.2305,1.2305,1.2305,1.215,1.1545,1.0565,1.0565,1.0565,0.5481,0.6656,0.7844,0.765,0.7917,0.8242,0.8523,0.7892,0.7471,0.8282,0.913,0.9946,1.0509,1.1916,1.3093,1.3353,1.3273,1.32,1.316,1.2779,1.2543,1.2543,1.2385,1.2238,1.2084,1.2064,1.1944,1.165,1.1356,1.1189,1.1189,1.0915,1.0928,1.1182,1.1476,1.171,1.1906,1.2158,1.2305,1.2305,1.2305,1.2305,1.2305,1.2305,1.2305,1.2305,1.2305,1.2305,1.2305,1.2305,1.2305,1.2305,1.2305,1.2629,1.3135,1.3665,1.4442,1.5403,1.628,1.7217,1.8008,1.8008,1.8008,1.8008,1.8008,1.8008,1.8008,1.8008,1.8008,1.8008,1.8008,1.8008,1.7862,1.7354,1.6576,1.5825,1.5305,1.4055,1.3062,1.3062,1.2666,1.2305,1.2305,1.2305,1.2305,1.2305,1.2305,1.2305,1.2305,1.2305,1.2305,1.2305,1.2305,1.2305,1.2305,1.2305,1.2305,1.2305,1.2305,1.2305,1.2305,1.2305,1.2305,1.2305,1.2305,1.2305,1.2305,1.2305,1.1768,1.082,1.1354,1.1316,0.5385,0.6864,0.8402,0.8453,0.8833,0.9323,0.9586,0.9159,0.8831,0.9302,1.0054,1.0677,1.0857,1.2124,1.32,1.3453,1.3293,1.3019,1.2817,1.2529,1.2278,1.2204,1.2204,1.2084,1.1797,1.1764,1.1643,1.1349,1.1122,1.0962,1.0895,1.0713,1.0693,1.0882,1.1176,1.147,1.1799,1.2058,1.2231,1.2305,1.2305,1.2305,1.2305,1.2305,1.2305,1.2305,1.2305,1.2305,1.2305,1.2305,1.2305,1.2335,1.2556,1.32,1.4171,1.5163,1.5965,1.6636,1.6853,1.7398,1.8008,1.8008,1.8008,1.8008,1.8008,1.8008,1.8008,1.8008,1.8008,1.8008,1.8008,1.8008,1.7828,1.7104,1.674,1.6349,1.5411,1.4422,1.3637,1.3419,1.2806,1.2305,1.2305,1.2305,1.2305,1.2305,1.2305,1.2305,1.2305,1.2305,1.2305,1.2305,1.2305,1.2305,1.2305,1.2305,1.2305,1.2305,1.2305,1.2305,1.2305,1.2305,1.2305,1.2305,1.2305,1.2305,1.2305,1.2305,1.1768,1.082,1.1842,1.1768,0.5354,0.6864,0.8438,0.8548,0.9131,0.9936,1.0979,0.9781,0.8949,1.0844,1.0879,1.0857,1.165,1.2365,1.2918,1.3193,1.2979,1.2811,1.279,1.2529,1.2204,1.1973,1.194,1.1784,1.1483,1.1422,1.1336,1.1049,1.1002,1.0875,1.064,1.06,1.06,1.062,1.0875,1.1162,1.1422,1.175,1.2037,1.2305,1.2305,1.2305,1.2305,1.2305,1.2305,1.2305,1.2305,1.2305,1.2305,1.2305,1.2305,1.2372,1.3273,1.4207,1.5199,1.614,1.6532,1.6706,1.7613,1.794,1.8008,1.8008,1.8008,1.8008,1.8008,1.8008,1.8008,1.8008,1.8008,1.8008,1.8008,1.8008,1.7974,1.7906,1.7217,1.6349,1.5411,1.4422,1.3455,1.2556,1.2342,1.2305,1.2305,1.2305,1.2305,1.2305,1.2305,1.2305,1.2305,1.2305,1.2305,1.2305,1.2305,1.2305,1.2305,1.2305,1.2305,1.2305,1.2305,1.2305,1.2305,1.2305,1.2305,1.2305,1.2305,1.2305,1.2305,1.2305,1.1768,1.082,1.1842,1.1768,0.5837,0.7198,0.8547,0.9151,1.0048,1.0921,1.1567,1.1115,1.0835,1.1761,1.1804,1.1825,1.2341,1.2636,1.2824,1.2945,1.271,1.2442,1.2261,1.1944,1.1717,1.1603,1.159,1.1476,1.1182,1.1156,1.1035,1.0774,1.0754,1.0707,1.06,1.0593,1.0593,1.0593,1.0874,1.1049,1.1156,1.1443,1.1744,1.2037,1.2218,1.2305,1.2305,1.2305,1.2305,1.2305,1.2305,1.2305,1.2305,1.2305,1.2622,1.3346,1.4906,1.5755,1.6175,1.7104,1.7467,1.7501,1.7862,1.8008,1.8008,1.8008,1.8008,1.8008,1.8008,1.8008,1.8008,1.8008,1.8008,1.8008,1.8008,1.8008,1.8008,1.8008,1.7725,1.7364,1.701,1.5737,1.4522,1.4163,1.3127,1.2305,1.2305,1.2305,1.2305,1.2305,1.2305,1.2305,1.2305,1.2305,1.2305,1.2305,1.2305,1.2305,1.2305,1.2305,1.2305,1.2305,1.2305,1.2305,1.2305,1.2305,1.2305,1.2305,1.2305,1.2305,1.2305,1.2305,1.2114,1.1731,1.2114,1.2114,0.6392,0.7648,0.8985,0.9648,1.0562,1.139,1.1819,1.1906,1.1986,1.2238,1.2305,1.2365,1.2603,1.2569,1.2509,1.2509,1.2218,1.1957,1.1757,1.1557,1.1362,1.1262,1.1255,1.1176,1.0882,1.0855,1.0807,1.0606,1.0593,1.0593,1.0593,1.0593,1.0593,1.0593,1.0787,1.0902,1.0995,1.1283,1.1577,1.1906,1.2164,1.2305,1.2305,1.2305,1.2305,1.2305,1.2305,1.2482,1.2732,1.2732,1.3484,1.4764,1.607,1.6775,1.7104,1.7759,1.8008,1.8008,1.8008,1.8008,1.8008,1.8008,1.8008,1.8008,1.8008,1.8008,1.8008,1.8008,1.8008,1.8008,1.8008,1.8008,1.8008,1.8008,1.8008,1.7837,1.7226,1.6123,1.5021,1.4414,1.3193,1.2305,1.2305,1.2305,1.2305,1.2305,1.2305,1.2305,1.2305,1.2305,1.2305,1.2305,1.2305,1.2305,1.2305,1.2305,1.2305,1.2305,1.2305,1.2305,1.2305,1.2305,1.2305,1.2305,1.2305,1.2305,1.2305,1.2305,1.215,1.1842,1.215,1.2114,0.6867,0.8261,0.9781,1.0036,1.0562,1.1156,1.1772,1.1906,1.1986,1.2238,1.2291,1.2291,1.2291,1.2058,1.1899,1.1899,1.1617,1.1389,1.1389,1.1382,1.1275,1.1022,1.0989,1.0875,1.062,1.0593,1.0593,1.0593,1.0593,1.0593,1.0593,1.0593,1.0593,1.0593,1.0593,1.0727,1.0982,1.1242,1.157,1.1906,1.2158,1.2298,1.2305,1.2305,1.2305,1.2305,1.2305,1.2842,1.3709,1.3709,1.4871,1.6602,1.6602,1.7173,1.8008,1.8008,1.8008,1.8008,1.8008,1.8008,1.8008,1.8008,1.8008,1.8008,1.8008,1.8008,1.8008,1.8008,1.8008,1.8008,1.8008,1.8008,1.8008,1.8008,1.8008,1.7476,1.5623,1.5199,1.4629,1.2696,1.2305,1.2305,1.2305,1.2305,1.2305,1.2305,1.2305,1.2305,1.2305,1.2305,1.2305,1.2305,1.2305,1.2305,1.2305,1.2305,1.2305,1.2305,1.2305,1.2305,1.2305,1.2305,1.2305,1.2305,1.2305,1.2305,1.2305,1.2305,1.1774,1.082,1.1842,1.1768,0.7334,0.8555,0.9874,1.0556,1.1192,1.1692,1.1866,1.1906,1.1933,1.202,1.183,1.1683,1.1683,1.1617,1.1557,1.1557,1.1309,1.1122,1.1122,1.0949,1.0814,1.0727,1.072,1.0687,1.06,1.0593,1.0593,1.0593,1.0593,1.0593,1.0593,1.0593,1.0593,1.0593,1.0593,1.0633,1.072,1.0975,1.1269,1.1563,1.1857,1.2104,1.2305,1.2305,1.2305,1.2335,1.2989,1.3455,1.3818,1.519,1.607,1.6671,1.732,1.7759,1.8008,1.8008,1.8008,1.8008,1.8008,1.8008,1.8008,1.8008,1.8008,1.8008,1.8008,1.8008,1.8008,1.8008,1.8008,1.8008,1.8008,1.8008,1.8008,1.8008,1.8008,1.7691,1.6463,1.5658,1.4807,1.352,1.2732,1.2305,1.2305,1.2305,1.2305,1.2305,1.2305,1.2305,1.2305,1.2305,1.2305,1.2305,1.2305,1.2305,1.2305,1.2305,1.2305,1.2305,1.2305,1.2305,1.2305,1.2305,1.2305,1.2305,1.2305,1.2305,1.2305,1.2305,1.215,1.1848,1.215,1.215,0.8398,0.9489,1.0568,1.1312,1.169,1.1906,1.1906,1.1906,1.1873,1.1717,1.155,1.1389,1.1389,1.1295,1.1249,1.1249,1.1009,1.0854,1.0854,1.0707,1.0593,1.0593,1.0593,1.0593,1.0593,1.0593,1.0593,1.0593,1.0593,1.0593,1.0593,1.0593,1.0593,1.0593,1.0593,1.0593,1.0593,1.0962,1.1249,1.1395,1.1844,1.2131,1.2298,1.2184,1.2191,1.2372,1.3702,1.4522,1.4977,1.6532,1.7173,1.7217,1.7794,1.8008,1.8008,1.8008,1.8008,1.8008,1.8008,1.8008,1.8008,1.8008,1.8008,1.8008,1.8008,1.7759,1.7501,1.7896,1.7725,1.7535,1.7896,1.7716,1.7432,1.7432,1.7442,1.7088,1.572,1.5013,1.4307,1.3346,1.2696,1.2305,1.2305,1.2305,1.2305,1.2305,1.2305,1.2305,1.2305,1.2305,1.2305,1.2305,1.2305,1.2305,1.2305,1.2305,1.2305,1.2305,1.2305,1.2305,1.2305,1.2305,1.2305,1.2305,1.2305,1.2305,1.2305,1.2305,1.2305,1.2305,1.2305,1.2305,0.973,1.0692,1.1495,1.2118,1.2064,1.1893,1.1832,1.1826,1.1745,1.1443,1.1329,1.1349,1.1349,1.1129,1.0955,1.0955,1.0767,1.0593,1.0593,1.0593,1.0593,1.0593,1.0593,1.0593,1.0593,1.0593,1.0593,1.0593,1.0593,1.0593,1.0593,1.0593,1.0593,1.0593,1.0593,1.0593,1.0593,1.1109,1.1349,1.1362,1.1957,1.2225,1.2211,1.2004,1.2159,1.2659,1.4522,1.586,1.6784,1.7647,1.8008,1.8008,1.8008,1.8008,1.8008,1.8008,1.8008,1.8008,1.8008,1.8008,1.8008,1.8008,1.8008,1.8008,1.8008,1.7398,1.6922,1.7759,1.7389,1.6922,1.7794,1.7285,1.6567,1.6489,1.6481,1.5956,1.4099,1.3709,1.3419,1.2482,1.2305,1.2305,1.2305,1.2305,1.2305,1.2305,1.2305,1.2305,1.2305,1.2305,1.2311,1.2338,1.2318,1.2311,1.2338,1.2318,1.2305,1.2305,1.2305,1.2305,1.2305,1.2305,1.2305,1.2305,1.2305,1.2305,1.2305,1.2305,1.2305,1.2305,1.2305,1.2305,0.9501,1.0409,1.1223,1.1852,1.1953,1.1785,1.1283,1.1182,1.1162,1.1096,1.0909,1.078,1.078,1.0727,1.0687,1.0687,1.0633,1.0593,1.0593,1.0593,1.0593,1.0593,1.0593,1.0593,1.0593,1.0593,1.0593,1.0593,1.0593,1.0593,1.0593,1.0593,1.0593,1.0593,1.0593,1.0593,1.0593,1.0909,1.1089,1.1089,1.1443,1.1582,1.1623,1.2024,1.3063,1.4629,1.579,1.6819,1.7716,1.7906,1.8008,1.8008,1.8008,1.8008,1.8008,1.8008,1.8008,1.8008,1.8008,1.8008,1.8008,1.8008,1.8008,1.8008,1.8008,1.7862,1.7759,1.794,1.7862,1.7759,1.794,1.7285,1.6419,1.5685,1.5517,1.5163,1.3954,1.3709,1.3419,1.2482,1.2305,1.2305,1.2305,1.2305,1.2305,1.2305,1.2305,1.2305,1.2305,1.2305,1.2392,1.2663,1.2445,1.2398,1.267,1.2438,1.2305,1.2305,1.2305,1.2305,1.2305,1.2305,1.2305,1.2305,1.2305,1.2305,1.2305,1.2305,1.2305,1.2305,1.2305,1.2305,0.9564,1.0516,1.1309,1.1792,1.1906,1.1752,1.1129,1.0995,1.0955,1.0847,1.07,1.0593,1.0593,1.0593,1.0593,1.0593,1.0593,1.0593,1.0593,1.0593,1.0593,1.0593,1.0593,1.0593,1.0593,1.0593,1.0593,1.0593,1.0593,1.0593,1.0593,1.0593,1.0593,1.0593,1.0593,1.0593,1.0593,1.0881,1.0995,1.0995,1.1255,1.1628,1.2017,1.234,1.3546,1.5367,1.5993,1.6918,1.8008,1.8008,1.8008,1.8008,1.8008,1.8008,1.8008,1.8008,1.7716,1.7389,1.7828,1.7725,1.7398,1.7862,1.8008,1.8008,1.8008,1.7681,1.7432,1.7862,1.7681,1.732,1.732,1.6645,1.5685,1.47,1.4494,1.4199,1.3237,1.3025,1.2879,1.2372,1.2305,1.2305,1.2305,1.2305,1.2305,1.2305,1.2305,1.2305,1.2305,1.2305,1.2418,1.275,1.2643,1.2677,1.2985,1.273,1.2549,1.2549,1.2378,1.2305,1.2305,1.2305,1.2305,1.2305,1.2305,1.2305,1.2305,1.2305,1.2305,1.2305,1.2305,1.2305,0.9633,1.0729,1.155,1.1744,1.1826,1.1672,1.1089,1.0915,1.0881,1.064,1.0593,1.0593,1.0593,1.0593,1.0593,1.0593,1.0593,1.0593,1.0593,1.0593,1.0593,1.0593,1.0593,1.0593,1.0593,1.0593,1.0593,1.0593,1.0593,1.0593,1.0593,1.0593,1.0593,1.0593,1.0593,1.0593,1.0593,1.0827,1.0915,1.0955,1.1289,1.1909,1.2742,1.2742,1.3745,1.5477,1.5975,1.6829,1.791,1.7978,1.8008,1.8008,1.8008,1.8008,1.7974,1.7828,1.7285,1.6706,1.7285,1.7001,1.6498,1.7251,1.751,1.751,1.751,1.6966,1.6532,1.7295,1.6966,1.6349,1.6349,1.5649,1.4736,1.389,1.3564,1.3237,1.2482,1.2305,1.2305,1.2305,1.2305,1.2305,1.2305,1.2305,1.2318,1.2371,1.2378,1.2378,1.2378,1.2378,1.2492,1.2831,1.2817,1.2931,1.3253,1.2991,1.2784,1.2784,1.2502,1.2305,1.2305,1.2305,1.2305,1.2305,1.2305,1.2305,1.2305,1.2305,1.2305,1.2305,1.2305,1.2305,0.9214,1.0757,1.1757,1.1543,1.1483,1.1329,1.0787,1.0646,1.064,1.06,1.0593,1.0593,1.0593,1.0593,1.0593,1.0593,1.0593,1.0593,1.0593,1.0593,1.0593,1.0593,1.0593,1.0593,1.0593,1.0593,1.0593,1.0593,1.0593,1.0593,1.0593,1.0593,1.0593,1.0593,1.0593,1.0593,1.0593,1.0633,1.0646,1.0653,1.1396,1.2157,1.2972,1.2972,1.3834,1.5413,1.6637,1.7313,1.75,1.7861,1.8008,1.8008,1.8008,1.8008,1.7896,1.7104,1.6706,1.6498,1.5799,1.5482,1.5411,1.5517,1.5552,1.5552,1.5552,1.5482,1.5411,1.5552,1.5482,1.5376,1.5376,1.4665,1.3882,1.3745,1.3098,1.2445,1.2342,1.2305,1.2305,1.2305,1.2305,1.2305,1.2305,1.2305,1.2392,1.2683,1.2723,1.2723,1.2723,1.2723,1.2844,1.3113,1.2945,1.3012,1.35,1.3105,1.2784,1.2784,1.2502,1.2305,1.2305,1.2305,1.2305,1.2305,1.2305,1.2305,1.2305,1.2305,1.2305,1.2305,1.2305,1.2305,0.9344,1.0522,1.1261,1.1598,1.155,1.1282,1.0902,1.0707,1.0593,1.0593,1.0593,1.0593,1.0593,1.0593,1.0593,1.0593,1.0593,1.0593,1.0593,1.0593,1.0593,1.0593,1.0593,1.0593,1.0593,1.0593,1.0593,1.0593,1.0593,1.0593,1.0593,1.0593,1.0593,1.0593,1.0593,1.0593,1.0593,1.1045,1.1507,1.1942,1.2757,1.3083,1.3039,1.3936,1.4611,1.5111,1.5746,1.6395,1.7051,1.748,1.7656,1.7686,1.792,1.8008,1.7906,1.6957,1.6289,1.5755,1.534,1.4843,1.445,1.5021,1.5199,1.5199,1.5199,1.5199,1.5199,1.5199,1.5199,1.5057,1.4522,1.4027,1.3564,1.3025,1.2592,1.2305,1.2305,1.2305,1.2305,1.2305,1.2305,1.2305,1.2305,1.2305,1.2345,1.2516,1.2677,1.2784,1.2784,1.2938,1.312,1.338,1.3333,1.342,1.3854,1.3494,1.3247,1.3247,1.2973,1.2732,1.2596,1.2589,1.2472,1.2305,1.2305,1.2305,1.2305,1.2305,1.2305,1.2305,1.2305,1.2305,0.8848,0.9698,1.0319,1.1214,1.1287,1.1147,1.1102,1.0935,1.0787,1.072,1.07,1.068,1.0606,1.0593,1.0593,1.0593,1.0593,1.0593,1.0593,1.0593,1.0593,1.0593,1.0593,1.0593,1.0593,1.0593,1.0593,1.0593,1.0593,1.0593,1.0593,1.0593,1.0593,1.0593,1.0593,1.0713,1.0895,1.1686,1.2512,1.3312,1.3704,1.3575,1.3039,1.4243,1.4646,1.4449,1.4979,1.5716,1.6592,1.7041,1.7217,1.7223,1.7398,1.7484,1.7358,1.6253,1.5403,1.4772,1.4557,1.3991,1.3455,1.4235,1.445,1.445,1.445,1.445,1.445,1.445,1.445,1.4307,1.3528,1.3346,1.3171,1.2482,1.2305,1.2305,1.2305,1.2305,1.2305,1.2305,1.2305,1.2305,1.2305,1.2305,1.2351,1.2512,1.2726,1.2931,1.3005,1.3173,1.336,1.358,1.36,1.3726,1.4062,1.3773,1.36,1.36,1.3367,1.3073,1.2797,1.2784,1.2643,1.2311,1.2305,1.2305,1.2305,1.2305,1.2305,1.2305,1.2305,1.2305,0.7141,0.7959,0.896,0.9945,1.0325,1.0604,1.1222,1.1362,1.1303,1.1022,1.0969,1.0882,1.064,1.0593,1.0593,1.0593,1.0593,1.0593,1.0593,1.0593,1.0593,1.0593,1.0593,1.0593,1.0593,1.0593,1.0593,1.0593,1.0593,1.0593,1.0593,1.0593,1.0593,1.0593,1.0593,1.0958,1.1741,1.2543,1.3342,1.4124,1.3403,1.3039,1.3009,1.31,1.3108,1.3202,1.5165,1.6074,1.6163,1.6582,1.6736,1.6679,1.6195,1.5999,1.5842,1.4395,1.381,1.3637,1.2769,1.2409,1.2372,1.2445,1.2445,1.2445,1.2445,1.2445,1.2445,1.2445,1.2445,1.2445,1.2372,1.2372,1.2372,1.2305,1.2305,1.2305,1.2305,1.2305,1.2305,1.2305,1.2305,1.2305,1.2305,1.2305,1.2498,1.308,1.318,1.3287,1.352,1.3573,1.3586,1.36,1.36,1.3726,1.4062,1.3773,1.36,1.36,1.3367,1.3073,1.2797,1.2784,1.2643,1.2311,1.2305,1.2305,1.2305,1.2305,1.2305,1.2305,1.2305,1.2305,0.6861,0.737,0.79,0.9002,0.974,1.0283,1.0506,1.1005,1.1309,1.1056,1.0995,1.0935,1.0646,1.0593,1.0593,1.0593,1.0593,1.0593,1.0593,1.0593,1.0593,1.0593,1.0593,1.0593,1.0593,1.0593,1.0593,1.0593,1.0593,1.0593,1.0593,1.0593,1.0832,1.1344,1.1375,1.1989,1.3326,1.3122,1.3394,1.4174,1.3364,1.2726,1.2258,1.3304,1.3494,1.3108,1.4876,1.5644,1.5684,1.6123,1.6299,1.6346,1.6714,1.6457,1.5815,1.4988,1.4243,1.3564,1.2629,1.2305,1.2305,1.2305,1.2305,1.2305,1.2305,1.2305,1.2305,1.2305,1.2305,1.2305,1.2305,1.2305,1.2305,1.2305,1.2305,1.2305,1.2305,1.2305,1.2305,1.2305,1.2305,1.2305,1.2305,1.2305,1.2438,1.2891,1.308,1.3313,1.3567,1.3808,1.3928,1.3928,1.3928,1.3975,1.4082,1.3988,1.3928,1.3928,1.3613,1.3353,1.306,1.2891,1.2643,1.2311,1.2305,1.2305,1.2305,1.2305,1.2305,1.2305,1.2305,1.2305,0.6318,0.6563,0.6854,0.8004,0.8724,0.9368,1.0172,1.0754,1.1171,1.1289,1.1209,1.1049,1.0787,1.066,1.0593,1.0593,1.0593,1.0593,1.0593,1.0593,1.0593,1.0593,1.0593,1.0593,1.0593,1.0593,1.0593,1.0593,1.0593,1.0713,1.0989,1.0982,1.1382,1.2174,1.2473,1.2992,1.3786,1.3515,1.3545,1.3795,1.297,1.2328,1.1865,1.3183,1.3524,1.31,1.4688,1.541,1.543,1.5723,1.588,1.5888,1.5998,1.5658,1.497,1.4348,1.368,1.3028,1.2485,1.2305,1.2305,1.2305,1.2305,1.2305,1.2305,1.2305,1.2305,1.2305,1.2305,1.2305,1.2305,1.2305,1.2305,1.2305,1.2305,1.2305,1.2305,1.2305,1.2305,1.2305,1.2305,1.2305,1.2305,1.2305,1.2438,1.2878,1.3025,1.32,1.3553,1.3773,1.3941,1.3941,1.4028,1.4088,1.4088,1.3995,1.3941,1.3941,1.362,1.3367,1.3066,1.2898,1.2643,1.2311,1.2305,1.2305,1.2305,1.2305,1.2305,1.2305,1.2305,1.2305,0.0,0.0,0.0,0.6977,0.727,0.7901,1.0151,1.0608,1.0809,1.1637,1.1554,1.1268,1.1009,1.0762,1.06,1.0593,1.0593,1.0593,1.0593,1.0593,1.0593,1.0593,1.0593,1.0593,1.0593,1.0593,1.0593,1.0593,1.0593,1.0958,1.1772,1.1865,1.2235,1.3009,1.3816,1.3846,1.307,1.3816,1.3786,1.2978,1.2174,1.1803,1.1803,1.2604,1.3009,1.31,1.4688,1.5352,1.5381,1.5381,1.541,1.5274,1.3958,1.3442,1.3276,1.2283,1.1935,1.1946,1.2191,1.2291,1.2305,1.2305,1.2305,1.2305,1.2305,1.2305,1.2305,1.2305,1.2305,1.2305,1.2305,1.2305,1.2305,1.2305,1.2305,1.2305,1.2305,1.2305,1.2305,1.2305,1.2305,1.2305,1.2305,1.2311,1.2518,1.312,1.2998,1.3025,1.354,1.3606,1.36,1.36,1.3901,1.4075,1.4075,1.3808,1.36,1.36,1.332,1.306,1.2797,1.2777,1.2636,1.2311,1.2305,1.2305,1.2305,1.2305,1.2305,1.2305,1.2305,1.2305,0.5395,0.0,0.0,0.0,0.0,0.0,0.7985,0.875,0.9346,0.9498,1.0009,1.0367,0.9992,1.0456,1.0841,1.0626,1.0593,1.0593,1.0593,1.0593,1.0593,1.0593,1.0593,1.0593,1.0593,1.0593,1.0593,1.0593,1.0593,1.0958,1.1772,1.2893,1.3627,1.3846,1.4658,1.4962,1.4746,1.4392,1.3786,1.2978,1.2174,1.15,1.0989,1.2366,1.3009,1.307,1.4094,1.454,1.4569,1.5167,1.541,1.5332,1.4707,1.4042,1.334,1.2818,1.2304,1.1913,1.1993,1.2124,1.2305,1.2305,1.2305,1.2305,1.2305,1.2305,1.2305,1.2305,1.2305,1.2305,1.2305,1.2305,1.2305,1.2305,1.2305,1.2305,1.2305,1.2305,1.2305,1.2305,1.2305,1.2305,1.2305,1.2516,1.2797,1.3153,1.3313,1.3534,1.3915,1.3733,1.36,1.36,1.3673,1.3726,1.3726,1.3646,1.36,1.36,1.316,1.2878,1.279,1.2576,1.2385,1.2305,1.2305,1.2305,1.2305,1.2305,1.2305,1.2305,1.2305,1.2305,0.5412,0.5395,0.5409,0.5474,0.0,0.0,0.7056,0.7667,0.8225,0.8725,0.9154,0.9418,0.9229,0.9593,0.9985,1.0271,1.0312,1.0405,1.0723,1.0667,1.0633,1.076,1.0774,1.0727,1.06,1.07,1.072,1.06,1.0926,1.1593,1.2749,1.4016,1.4688,1.4688,1.5167,1.5235,1.4903,1.4421,1.3786,1.2978,1.2512,1.2058,1.1632,1.2581,1.3009,1.3039,1.3485,1.3696,1.3726,1.4213,1.4392,1.435,1.3817,1.3244,1.2664,1.2248,1.1942,1.1703,1.1859,1.2094,1.2305,1.2305,1.2305,1.2305,1.2305,1.2305,1.2305,1.2305,1.2305,1.2305,1.2305,1.2305,1.2305,1.2305,1.2305,1.2305,1.2305,1.2305,1.2305,1.2305,1.2305,1.2305,1.2305,1.2445,1.2703,1.2973,1.316,1.338,1.3681,1.3633,1.36,1.36,1.36,1.36,1.36,1.3373,1.3273,1.3273,1.2826,1.2596,1.2596,1.2392,1.2305,1.2305,1.2305,1.2305,1.2305,1.2305,1.2305,1.2305,1.2305,1.2305,0.5481,0.5443,0.5474,0.5559,0.5532,0.0,0.6841,0.7012,0.7281,0.8483,0.8552,0.8473,0.8579,0.8481,0.8704,0.9558,0.9806,1.0184,1.0943,1.0854,1.0787,1.1009,1.1042,1.0929,1.0667,1.0874,1.0875,1.0613,1.1437,1.2596,1.4115,1.4962,1.541,1.541,1.541,1.505,1.4332,1.4323,1.3944,1.313,1.3039,1.2948,1.2856,1.2856,1.2856,1.2856,1.2856,1.2856,1.2856,1.2765,1.2856,1.2917,1.2112,1.1803,1.1716,1.1159,1.1149,1.1429,1.173,1.2031,1.2305,1.2305,1.2305,1.2305,1.2305,1.2305,1.2305,1.2305,1.2305,1.2305,1.2305,1.2305,1.2305,1.2305,1.2305,1.2305,1.2305,1.2305,1.2305,1.2305,1.2305,1.2305,1.2305,1.2325,1.2445,1.2744,1.2811,1.2938,1.3173,1.3393,1.354,1.3507,1.3533,1.354,1.3507,1.3053,1.2784,1.2784,1.2502,1.2305,1.2305,1.2305,1.2305,1.2305,1.2305,1.2305,1.2305,1.2305,1.2305,1.2305,1.2305,1.2305,0.5725,0.5715,0.5694,0.561,0.5654,0.0,0.5755,0.5825,0.5984,0.6216,0.6892,0.7383,0.7276,0.7976,0.8508,0.8381,0.9237,1.0244,1.1179,1.1289,1.1242,1.1336,1.1309,1.1229,1.0935,1.0962,1.0875,1.0613,1.1942,1.3183,1.4145,1.4962,1.541,1.541,1.541,1.5323,1.5177,1.5177,1.4746,1.3965,1.3312,1.2665,1.2012,1.2012,1.2012,1.2012,1.2012,1.2012,1.1989,1.1358,1.1818,1.2917,1.2112,1.1803,1.1717,1.0964,1.0975,1.1395,1.1455,1.1857,1.2305,1.2305,1.2305,1.2305,1.2305,1.2305,1.2305,1.2305,1.2305,1.2305,1.2305,1.2305,1.2305,1.2305,1.2305,1.2305,1.2305,1.2305,1.2305,1.2305,1.2305,1.2305,1.2305,1.2536,1.2717,1.2777,1.2998,1.314,1.32,1.326,1.32,1.2985,1.3146,1.3193,1.2985,1.2851,1.2784,1.2784,1.2502,1.2305,1.2305,1.2305,1.2305,1.2305,1.2305,1.2305,1.2305,1.2305,1.2305,1.2305,1.2305,1.2305,0.5068,0.4906,0.4765,0.427,0.4518,0.0,0.0,0.5129,0.5532,0.5576,0.5996,0.636,0.6332,0.6804,0.7293,0.7612,0.8249,0.903,0.9968,1.0861,1.1449,1.163,1.165,1.153,1.1236,1.1343,1.1708,1.2295,1.2877,1.3768,1.5085,1.5321,1.541,1.541,1.541,1.541,1.541,1.541,1.4991,1.4213,1.3786,1.3183,1.2389,1.1981,1.1803,1.1772,1.1375,1.1195,1.1163,1.0776,1.1083,1.1756,1.1351,1.1195,1.1132,1.0744,1.0835,1.1209,1.1209,1.1597,1.2084,1.2084,1.2184,1.2305,1.2305,1.2305,1.2305,1.2305,1.2305,1.2305,1.2305,1.2305,1.2305,1.2305,1.2305,1.2305,1.2305,1.2305,1.2305,1.2305,1.2305,1.2305,1.2305,1.2425,1.2563,1.2563,1.2824,1.3018,1.3018,1.3113,1.3153,1.2993,1.3018,1.2951,1.2797,1.265,1.2563,1.2563,1.2385,1.2305,1.2305,1.2305,1.2305,1.2305,1.2305,1.2305,1.2305,1.2305,1.2305,1.2305,1.2305,1.2305,0.4345,0.397,0.3635,0.2906,0.3274,0.382,0.0,0.0,0.0,0.504,0.5058,0.5124,0.5409,0.5487,0.5813,0.6764,0.722,0.7694,0.8379,0.9881,1.1073,1.1582,1.1846,1.1837,1.1543,1.1677,1.2436,1.3974,1.3745,1.4276,1.6004,1.5732,1.5498,1.541,1.541,1.541,1.541,1.5264,1.4844,1.4213,1.3906,1.3394,1.2726,1.1927,1.1562,1.1531,1.0863,1.0593,1.0593,1.0593,1.0593,1.0593,1.0593,1.0593,1.0593,1.0593,1.0774,1.1002,1.1056,1.1423,1.1913,1.1973,1.2111,1.2305,1.2305,1.2305,1.2305,1.2305,1.2305,1.2305,1.2305,1.2305,1.2305,1.2305,1.2305,1.2305,1.2305,1.2305,1.2305,1.2305,1.2305,1.2305,1.2305,1.2305,1.2305,1.2305,1.2543,1.2697,1.2697,1.2933,1.31,1.3046,1.2904,1.2764,1.2703,1.2476,1.2305,1.2305,1.2305,1.2305,1.2305,1.2305,1.2305,1.2305,1.2305,1.2305,1.2305,1.2305,1.2305,1.2305,1.2305,1.2305,0.4477,0.3826,0.3166,0.2924,0.3027,0.3143,0.2892,0.0,0.3141,0.304,0.0,0.3263,0.4051,0.0,0.0,0.5497,0.6572,0.7319,0.731,0.8324,0.9512,1.0605,1.1655,1.2138,1.1879,1.161,1.2194,1.3958,1.4049,1.4626,1.6023,1.6046,1.584,1.542,1.541,1.541,1.541,1.4688,1.4293,1.4183,1.274,1.2012,1.1896,1.1108,1.0744,1.0744,1.0656,1.0593,1.0593,1.0593,1.0593,1.0593,1.0593,1.0593,1.0593,1.0593,1.0774,1.1029,1.1255,1.159,1.1946,1.2171,1.2278,1.2305,1.2305,1.2305,1.2305,1.2305,1.2305,1.2305,1.2305,1.2305,1.2305,1.2305,1.2305,1.2305,1.2305,1.2305,1.2305,1.2305,1.2305,1.2305,1.2305,1.2305,1.2305,1.2305,1.2331,1.2351,1.2351,1.265,1.2737,1.2432,1.2643,1.2677,1.2378,1.2318,1.2305,1.2305,1.2305,1.2305,1.2305,1.2305,1.2305,1.2305,1.2305,1.2305,1.2305,1.2305,1.2305,1.2305,1.2305,1.2305,0.3615,0.3156,0.2593,0.15,0.2066,0.268,0.2035,0.2359,0.2785,0.2718,0.0,0.0,0.0,0.0,0.0,0.0,0.5111,0.5641,0.6041,0.7164,0.8332,0.9425,1.0426,1.1236,1.1828,1.1757,1.2305,1.3766,1.3528,1.4082,1.5896,1.5532,1.5451,1.5801,1.5537,1.5167,1.4717,1.4362,1.3717,1.281,1.2135,1.1562,1.1076,1.0744,1.0593,1.0593,1.0593,1.0593,1.0593,1.0593,1.0593,1.0593,1.0593,1.0593,1.0593,1.0593,1.0667,1.0787,1.0914,1.1116,1.1436,1.194,1.2164,1.2305,1.2305,1.2305,1.2305,1.2305,1.2305,1.2305,1.2305,1.2305,1.2305,1.2305,1.2305,1.2305,1.2305,1.2305,1.2305,1.2305,1.2305,1.2305,1.2305,1.2305,1.2305,1.2305,1.2305,1.2305,1.2305,1.2412,1.2476,1.2318,1.2412,1.2438,1.2311,1.2305,1.2305,1.2305,1.2305,1.2305,1.2305,1.2305,1.2305,1.2305,1.2305,1.2305,1.2305,1.2305,1.2305,1.2305,1.2305,1.2305,0.2518,0.2141,0.1631,0.0319,0.0983,0.1797,0.1107,0.1463,0.1944,0.1944,0.1944,0.0,0.0,0.0,0.2611,0.3513,0.0,0.435,0.4937,0.6048,0.7181,0.821,0.9176,1.0236,1.1446,1.1472,1.2033,1.3571,1.3195,1.3645,1.5408,1.488,1.4885,1.5689,1.5309,1.4776,1.4213,1.3965,1.3174,1.1803,1.1593,1.117,1.0593,1.0593,1.0593,1.0593,1.0593,1.0593,1.0593,1.0593,1.0593,1.0593,1.0593,1.0593,1.0593,1.0593,1.0593,1.06,1.068,1.0901,1.1196,1.1739,1.2011,1.2198,1.2278,1.2305,1.2305,1.2305,1.2305,1.2305,1.2305,1.2305,1.2305,1.2305,1.2305,1.2305,1.2305,1.2305,1.2305,1.2305,1.2305,1.2305,1.2305,1.2305,1.2305,1.2305,1.2305,1.2305,1.2305,1.2305,1.2305,1.2305,1.2305,1.2305,1.2305,1.2305,1.2305,1.2305,1.2305,1.2305,1.2305,1.2305,1.2305,1.2305,1.2305,1.2305,1.2305,1.2305,1.2305,1.2305,1.2305,1.2305,0.1342,0.074,0.0067,0.0,0.0034,0.0067,0.0034,0.0067,0.0101,0.0101,0.0101,0.0337,0.1173,0.134,0.1641,0.2577,0.3449,0.0,0.0,0.4861,0.5892,0.7035,0.8146,0.9311,1.0503,1.0337,1.1131,1.3512,1.3431,1.3654,1.4516,1.4263,1.4298,1.4724,1.4421,1.4243,1.4213,1.3433,1.2604,1.1795,1.1014,1.0624,1.0593,1.0593,1.0593,1.0593,1.0593,1.0593,1.0593,1.0593,1.0593,1.0593,1.0593,1.0593,1.0593,1.0593,1.0593,1.0633,1.0914,1.1169,1.1429,1.1806,1.1913,1.1973,1.2218,1.2305,1.2305,1.2305,1.2305,1.2305,1.2305,1.2305,1.2305,1.2305,1.2305,1.2305,1.2305,1.2305,1.2305,1.2305,1.2305,1.2305,1.2305,1.2305,1.2305,1.2305,1.2305,1.2305,1.2305,1.2305,1.2305,1.2305,1.2305,1.2305,1.2305,1.2305,1.2305,1.2305,1.2305,1.2305,1.2305,1.2305,1.2305,1.2305,1.2305,1.2305,1.2305,1.2305,1.2305,1.2305,1.2305,1.2305,0.1307,0.1073,0.0706,0.0135,0.0437,0.0706,0.0135,0.0,0.0,0.0,0.0,0.0101,0.037,0.0437,0.0739,0.1641,0.2009,0.2644,0.0,0.4821,0.5545,0.5929,0.6992,0.8299,0.9868,0.99,1.0582,1.2358,1.2228,1.2605,1.3907,1.3477,1.3769,1.5069,1.3995,1.3403,1.3403,1.2604,1.181,1.0982,1.0744,1.0593,1.0593,1.0593,1.0593,1.0593,1.0593,1.0593,1.0593,1.0593,1.0593,1.0593,1.0593,1.0593,1.0593,1.0593,1.0593,1.0606,1.0707,1.0895,1.1189,1.1476,1.171,1.196,1.2218,1.2305,1.2305,1.2305,1.2305,1.2305,1.2305,1.2305,1.2305,1.2305,1.2305,1.2305,1.2305,1.2305,1.2305,1.2305,1.2305,1.2305,1.2305,1.2305,1.2305,1.2305,1.2305,1.2305,1.2305,1.2305,1.2305,1.2305,1.2305,1.2305,1.2305,1.2305,1.2305,1.2305,1.2305,1.2305,1.2305,1.2305,1.2305,1.2305,1.2305,1.2305,1.2305,1.2305,1.2305,1.2305,1.2305,1.2305,0.0906,0.0839,0.0706,0.0135,0.0437,0.0706,0.0135,0.0,0.0,0.0,0.0,0.0,0.0,0.0,0.0168,0.0739,0.1106,0.1941,0.0,0.4519,0.5024,0.5359,0.6045,0.7267,0.918,0.9214,0.9898,1.1892,1.165,1.1921,1.3135,1.2684,1.3021,1.4312,1.3314,1.267,1.2573,1.205,1.1406,1.0593,1.0593,1.0593,1.0593,1.0593,1.0593,1.0593,1.0593,1.0593,1.0593,1.0593,1.0593,1.0593,1.0593,1.0593,1.0593,1.0593,1.0593,1.0593,1.0593,1.0713,1.0889,1.1176,1.1403,1.161,1.1904,1.2064,1.2144,1.2144,1.2225,1.2305,1.2305,1.2305,1.2305,1.2305,1.2305,1.2305,1.2305,1.2305,1.2305,1.2305,1.2305,1.2305,1.2305,1.2305,1.2305,1.2305,1.2305,1.2305,1.2305,1.2305,1.2305,1.2305,1.2305,1.2305,1.2305,1.2305,1.2305,1.2305,1.2305,1.2305,1.2305,1.2305,1.2305,1.2305,1.2305,1.2305,1.2305,1.2305,1.2305,1.2305,1.2305,1.2305]}]]